GFSSW_sfc_30mbdewp_000.txt.gz
Dewpoint
53 53 53 53 53 54 54 54 55 55 55 55 56 57 57 57 56 54 39 33 35 67 69 56 55 55 54 49 49 49 38 33 35 38 40 46 46 52 53 55 56 56 54 57 60
52 52 52 52 53 53 54 54 54 54 54 55 55 56 56 56 47 35 33 40 58 70 52 49 45 52 43 36 40 42 38 34 35 39 42 46 46 52 53 54 54 57 57 58 60
52 52 52 52 52 53 53 54 54 54 54 54 55 56 56 56 40 21 47 57 64 68 39 41 33 42 27 21 28 35 37 38 38 39 43 45 47 51 48 50 51 55 57 59 60
51 51 52 52 52 53 53 53 53 53 54 54 54 55 56 51 15 26 52 57 62 57 37 34 25 26 14 17 22 31 33 34 38 42 43 45 47 48 48 47 50 54 58 59 60
50 51 51 52 52 52 53 53 53 53 53 54 54 55 52 36 24 42 51 55 50 50 30 26 17 19 13 19 22 26 27 29 32 40 42 46 46 47 49 51 52 56 59 59 59
50 51 52 52 52 52 52 53 52 52 52 53 54 54 46 23 25 39 47 51 43 38 28 21 17 15 15 18 22 24 25 27 30 38 43 46 48 49 49 50 55 57 59 58 59
51 50 51 51 51 51 51 52 51 51 52 53 55 53 43 24 27 31 35 36 41 36 26 23 18 14 15 19 23 25 29 38 37 40 44 46 48 48 50 53 56 57 58 58 59
50 50 50 50 50 51 51 51 50 52 54 57 55 52 33 35 38 37 37 35 36 41 32 27 21 19 15 24 24 25 29 30 39 43 46 46 37 47 52 54 56 57 58 58 59
50 50 50 50 51 51 50 50 51 55 55 56 54 50 30 42 38 36 38 29 29 32 29 24 22 22 18 22 23 27 26 28 40 44 47 46 38 47 52 53 53 56 56 58 59
51 50 50 50 50 50 49 50 53 56 56 55 53 47 38 26 36 32 39 26 26 30 28 23 21 17 18 18 20 25 26 28 30 43 45 44 40 48 51 51 51 55 56 56 57
50 50 50 50 49 49 47 36 40 41 49 31 23 30 23 27 31 28 33 24 21 25 15 15 12 11 16 20 22 24 28 28 29 40 43 40 40 43 52 51 51 53 56 56 55
50 50 50 49 48 48 45 17 25 24 14 13 14 17 19 22 21 20 27 27 20 18 15 11 8 10 13 18 21 24 25 27 30 40 41 38 39 42 46 52 50 51 54 57 56
50 49 49 49 47 45 28 25 29 23 15 11 14 15 19 20 21 21 23 25 21 15 12 11 5 9 11 13 20 24 25 27 31 40 41 37 39 39 41 49 51 51 52 55 56
49 49 48 48 36 30 27 30 32 28 13 12 19 24 29 27 25 25 21 22 20 16 14 8 7 7 10 14 19 22 24 27 30 34 34 39 31 32 36 45 49 52 51 51 56
49 48 48 48 36 28 27 29 29 28 9 17 21 28 30 28 25 26 22 19 18 17 16 12 6 8 7 10 15 21 23 25 27 32 33 36 34 31 37 37 43 49 51 51 51
49 48 47 37 39 34 32 32 32 20 9 13 22 24 25 24 23 27 23 21 18 17 19 15 12 7 8 7 13 20 23 25 26 27 28 31 32 27 29 35 34 42 48 51 50
48 46 46 40 23 33 33 20 12 8 15 10 15 20 17 14 18 22 22 20 17 19 17 15 11 8 5 9 10 17 23 24 23 23 24 30 30 28 26 27 31 28 39 50 50
47 46 40 39 38 37 28 4 5 8 9 16 18 18 17 15 14 18 19 16 16 18 16 15 10 11 9 5 12 16 20 21 19 18 20 26 26 25 29 28 27 28 36 46 50
46 32 30 35 41 38 20 -2 3 6 10 6 8 12 13 15 13 16 16 17 15 17 16 14 14 12 9 9 8 16 17 21 20 20 17 17 25 26 26 30 30 33 38 42 48
39 32 26 35 45 37 16 2 -1 -1 7 13 11 10 8 8 12 12 12 16 16 18 20 19 16 16 12 11 10 11 19 19 20 19 18 18 19 23 25 23 22 29 38 41 47
37 23 32 46 44 33 14 5 2 -1 2 8 7 7 11 10 13 11 12 15 17 18 22 21 19 13 14 9 7 11 13 19 20 19 17 18 19 21 23 24 24 22 37 38 44
32 17 34 41 29 21 16 12 12 5 -1 -2 3 2 5 12 13 13 14 14 19 19 21 23 21 18 8 9 7 9 14 19 19 22 20 18 16 19 21 23 22 21 22 25 41
31 23 23 31 14 9 16 16 15 14 6 1 -3 2 5 8 11 12 12 12 14 19 20 22 21 19 18 7 7 5 9 15 19 20 22 19 19 19 21 23 24 34 34 35 46
31 17 17 31 23 24 21 24 20 17 15 10 8 8 2 7 10 12 15 13 19 17 35 29 18 19 16 16 9 7 6 8 12 16 19 18 20 19 18 21 20 25 35 40 48
31 21 31 16 25 32 32 29 23 18 19 18 16 17 12 10 12 14 17 19 24 27 32 36 30 25 20 17 15 13 8 7 7 10 15 18 17 20 21 21 21 20 25 38 48
33 31 34 29 28 25 21 22 23 20 23 22 21 16 14 15 15 14 14 16 14 23 23 28 32 30 26 23 20 17 15 8 7 8 9 13 16 17 19 21 20 20 21 37 48
35 34 32 24 21 22 19 19 21 27 26 24 25 26 25 25 27 27 28 29 29 25 27 30 32 34 28 26 23 21 19 15 10 7 10 10 12 14 15 18 22 23 33 38 46

GFSSW_sfc_30mbdewp_003.txt.gz
Dewpoint
53 53 53 53 53 53 54 54 55 55 55 55 56 56 57 58 56 54 41 35 36 57 65 53 53 46 48 44 43 38 39 32 33 40 33 36 37 43 47 48 49 51 54 58 61
52 52 52 53 53 53 54 54 54 54 54 55 55 56 57 57 47 33 37 44 52 58 49 43 40 42 40 39 40 38 46 36 32 41 35 37 36 41 44 47 49 51 55 59 61
51 52 52 52 52 53 53 54 54 54 54 54 55 55 56 56 37 24 46 56 61 61 33 36 34 38 37 34 31 33 43 40 35 35 38 37 37 40 42 44 48 51 54 58 60
51 51 51 52 52 52 53 53 53 53 53 53 54 55 56 48 22 34 51 56 56 51 38 31 31 28 32 26 26 29 37 36 36 37 39 36 38 38 39 41 47 51 54 57 59
50 51 51 51 51 52 52 52 52 52 52 52 54 55 52 35 25 45 51 57 51 41 39 26 26 23 27 23 25 26 30 31 31 36 37 40 38 36 38 42 47 52 53 55 57
50 50 51 51 50 50 51 52 51 51 51 52 54 55 46 27 22 33 34 42 36 36 29 24 23 20 20 22 24 26 28 27 29 32 37 39 39 41 39 44 47 52 53 54 56
50 50 50 50 49 49 51 51 51 50 51 53 54 53 37 28 23 26 36 31 32 31 26 21 19 15 15 18 21 25 24 29 30 30 35 37 38 37 40 46 47 51 53 53 55
49 50 50 50 49 50 51 50 50 51 54 56 57 49 32 28 31 26 26 26 27 29 26 20 17 16 16 19 22 22 25 25 31 30 33 37 35 40 43 44 45 50 53 53 54
49 49 50 50 50 50 50 49 50 54 55 56 53 47 28 38 32 29 30 29 26 25 29 24 22 16 17 16 19 24 22 24 31 32 36 37 38 42 45 43 44 47 51 53 54
50 50 50 50 50 49 48 48 50 56 56 53 49 43 35 28 27 29 30 26 20 25 23 20 17 15 15 18 19 24 23 25 33 30 37 36 39 42 44 45 41 45 48 52 53
50 50 50 50 49 48 46 35 40 46 47 32 31 25 25 24 31 26 29 22 19 24 17 15 10 9 15 19 21 23 24 24 26 28 34 36 36 39 44 45 43 43 45 49 51
50 50 50 49 48 47 46 22 20 21 14 15 18 18 18 17 16 22 25 20 14 18 17 11 8 10 16 19 20 21 22 25 26 29 31 33 35 36 45 45 45 44 44 46 49
50 50 49 49 46 46 20 22 23 20 14 10 11 12 11 12 12 13 14 20 15 12 15 7 6 9 13 18 20 21 21 23 24 35 36 33 34 34 38 45 47 45 45 46 47
50 50 49 48 35 23 21 26 24 20 13 7 11 12 16 17 12 15 19 12 18 13 10 11 7 6 9 15 18 18 22 24 24 31 32 30 29 33 33 37 45 46 46 46 47
50 50 48 47 35 26 20 20 20 21 7 12 15 21 23 22 23 20 21 14 15 14 12 8 7 7 8 11 16 17 19 23 24 28 38 28 27 30 32 33 38 45 47 46 46
50 49 48 36 36 34 28 24 23 14 9 12 18 21 23 21 17 22 18 17 17 14 13 10 9 6 7 9 14 17 19 22 22 24 24 28 29 31 33 32 34 39 45 48 48
49 47 45 40 24 25 24 20 12 9 12 10 11 15 15 14 15 19 17 14 14 12 13 13 10 9 5 7 11 15 18 18 20 20 20 24 29 38 32 30 32 31 35 44 48
48 45 40 36 34 31 25 11 7 11 10 9 9 15 12 12 12 16 17 14 14 14 10 12 11 11 8 6 7 13 16 17 18 19 20 22 23 26 30 29 27 30 28 36 46
46 33 28 26 31 31 19 5 7 10 10 9 10 10 13 12 12 10 14 16 14 14 11 11 13 12 10 7 6 9 13 18 18 20 19 19 22 24 29 30 28 27 26 27 41
41 36 27 26 37 34 19 10 7 7 5 6 7 8 10 12 11 11 11 13 14 14 13 13 13 13 8 8 5 4 11 15 17 18 17 17 18 20 25 25 24 27 26 28 34
40 24 28 32 38 31 17 12 11 9 6 3 7 9 7 7 8 9 11 10 11 13 15 13 14 14 13 9 7 4 5 13 17 17 16 17 19 20 25 28 25 26 24 26 34
33 25 28 34 30 25 22 19 17 12 8 3 1 6 10 9 9 10 11 11 12 14 14 16 16 17 14 13 10 6 5 7 16 21 17 18 17 21 21 23 24 25 24 26 33
32 28 27 22 15 13 16 16 17 16 13 10 5 1 4 6 8 12 12 12 15 16 16 16 17 16 18 14 11 9 8 6 8 17 21 18 18 20 21 22 24 24 24 24 32
34 24 20 20 19 14 12 13 13 14 15 15 13 9 2 2 6 7 11 13 13 14 29 25 20 18 17 17 10 8 8 5 6 9 15 17 20 22 21 23 23 24 24 29 30
34 26 23 22 19 27 29 32 23 27 22 19 16 13 9 6 4 5 10 13 13 14 21 23 22 20 19 19 17 10 4 4 3 8 10 15 18 21 22 22 22 22 23 24 25
36 30 30 26 26 24 24 22 17 20 22 23 18 17 14 13 13 6 8 13 16 16 21 23 25 24 20 18 16 14 13 5 5 4 7 10 13 18 20 23 22 22 23 23 23
40 40 34 25 23 19 15 20 20 14 16 25 27 29 26 22 26 26 27 19 17 21 23 28 29 31 27 26 24 20 16 15 13 11 6 6 9 12 15 21 23 23 23 25 28

GFSSW_sfc_30mbdewp_006.txt.gz
Dewpoint
52 52 53 53 53 54 54 55 55 55 55 55 55 56 57 57 57 53 43 34 37 59 60 53 53 50 44 41 43 44 37 38 37 33 29 35 35 43 48 47 54 55 55 58 61
52 52 52 52 52 53 53 54 54 54 54 54 55 55 56 57 47 35 34 45 43 58 37 36 43 45 37 38 39 39 40 40 43 38 33 34 35 39 42 45 47 52 56 58 61
50 51 51 51 51 51 52 52 53 53 53 53 54 55 56 56 38 28 50 47 53 50 26 28 35 36 34 36 36 39 39 40 40 40 38 34 35 36 41 42 46 54 56 57 58
50 51 51 51 51 50 51 51 52 52 52 53 53 54 56 49 23 31 47 52 57 46 30 27 28 31 31 34 34 31 37 38 37 35 39 33 36 36 40 41 47 53 58 57 57
50 51 51 51 51 50 50 51 51 52 52 52 53 54 49 33 33 39 57 57 48 39 32 31 26 30 28 31 29 25 34 35 32 33 36 35 36 36 36 43 47 51 56 57 57
49 50 51 52 51 50 50 51 51 51 51 52 53 55 46 23 27 40 35 42 33 29 30 33 25 29 27 27 26 24 26 28 28 29 33 38 36 36 36 41 45 49 53 56 57
49 49 50 51 50 50 51 51 50 50 51 53 55 53 34 20 28 25 28 32 31 32 23 28 26 24 25 23 25 23 24 25 26 27 32 35 36 36 38 38 44 48 50 53 55
50 50 50 51 50 50 50 50 50 50 52 55 56 51 30 18 24 27 25 27 27 29 26 23 23 20 21 20 20 19 22 23 25 28 30 34 34 34 40 39 41 48 49 51 53
50 50 51 51 51 50 49 49 49 51 56 56 54 48 29 30 29 28 25 22 21 23 26 24 20 15 17 16 17 19 20 21 23 29 30 32 38 40 40 41 40 45 48 49 52
50 50 50 50 50 49 49 47 48 54 56 52 48 42 39 28 28 25 25 22 22 22 19 23 19 18 14 17 16 18 20 22 23 31 28 31 46 46 45 39 41 42 46 49 50
50 50 50 50 49 49 45 38 39 44 48 38 35 26 20 29 24 26 27 26 22 17 20 22 18 17 19 18 19 18 23 21 24 33 29 35 48 49 46 44 39 42 43 47 50
50 50 50 50 49 46 45 33 19 20 14 15 23 32 32 25 24 27 23 23 18 16 19 14 13 12 17 20 19 20 21 23 24 32 32 31 45 46 47 43 42 40 42 43 45
50 50 50 49 46 44 32 17 21 19 14 11 11 10 21 27 21 17 22 24 15 13 18 14 10 9 12 17 19 19 20 22 23 28 30 28 30 38 42 41 41 42 42 42 45
49 49 50 49 37 30 25 24 18 16 12 10 9 9 10 11 10 13 14 19 19 13 10 15 14 7 8 14 18 18 20 21 21 28 29 32 28 37 37 42 41 42 42 43 44
49 49 49 48 38 33 23 21 19 17 9 11 10 13 9 9 11 10 11 12 10 13 15 9 12 8 5 9 15 18 20 20 20 23 32 34 32 33 39 40 43 43 43 43 45
49 49 48 38 35 35 32 24 19 14 9 12 15 15 11 9 14 17 10 12 14 10 15 14 11 10 6 5 11 16 18 18 19 21 22 28 31 29 34 36 36 42 44 44 45
49 48 46 42 30 25 26 18 12 10 14 11 13 18 17 16 12 17 16 16 13 8 12 13 12 9 8 5 7 10 14 17 16 18 19 23 31 33 36 37 36 40 45 45 46
49 46 43 39 37 37 28 16 11 14 13 13 11 14 15 18 16 13 16 15 13 12 12 12 10 10 8 5 6 7 11 16 16 17 19 21 21 28 37 38 39 42 47 43 47
47 38 35 30 31 32 25 8 12 15 15 13 11 9 11 13 12 11 14 15 11 12 12 8 11 13 10 9 5 6 7 13 15 17 17 19 20 22 26 36 38 34 33 34 44
41 38 37 35 28 27 22 18 12 13 13 12 10 11 9 11 11 11 12 16 15 12 12 12 10 12 12 10 9 4 9 8 11 15 16 17 21 23 25 31 36 36 36 29 32
41 31 27 26 27 30 21 18 18 18 15 13 11 8 9 10 11 12 10 12 12 15 14 12 13 11 13 12 10 6 4 7 10 14 15 18 20 25 31 31 35 34 30 29 30
34 27 24 31 27 28 26 25 23 21 19 16 13 10 7 8 11 11 12 12 13 12 13 14 13 13 12 14 12 10 7 6 8 15 14 17 19 21 26 31 29 29 29 30 31
32 29 28 25 21 19 19 21 22 22 23 21 17 13 10 5 8 11 13 11 12 12 11 12 15 15 12 14 15 9 7 7 5 9 16 16 18 22 25 27 32 29 30 33 32
36 25 22 21 21 18 16 16 15 15 17 19 21 20 15 11 8 9 10 12 12 12 24 18 16 17 15 16 16 14 10 10 8 5 9 13 21 22 27 28 28 31 31 31 32
34 29 25 26 24 27 33 30 27 25 23 27 27 25 21 16 11 8 7 8 11 15 17 17 19 19 16 16 17 15 13 11 10 11 10 10 13 23 25 29 29 28 30 31 33
38 30 35 30 25 21 20 25 24 27 23 22 27 28 28 28 31 30 26 19 12 13 15 15 20 22 21 19 17 18 16 10 9 10 11 11 11 14 21 23 32 29 30 32 32
40 41 38 33 26 20 15 15 24 22 25 25 22 25 30 30 34 32 29 26 25 22 20 18 17 23 22 21 20 17 19 16 13 8 9 8 12 16 17 24 28 34 32 34 33

GFSSW_sfc_30mbdewp_009.txt.gz
Dewpoint
52 52 52 52 52 52 52 53 53 54 54 54 55 55 56 57 56 51 40 36 39 53 57 49 55 52 55 54 54 55 50 47 46 40 34 40 48 52 54 57 58 59 58 62 62
51 52 52 52 51 51 51 51 52 53 53 54 54 54 55 57 52 36 32 40 45 60 44 36 40 50 46 45 40 40 45 43 43 42 35 38 48 51 53 56 57 58 60 62 63
50 51 51 51 51 51 51 51 51 51 51 53 53 54 55 56 45 28 46 44 42 59 40 30 26 34 42 41 36 37 38 41 40 40 36 37 38 43 51 53 56 58 60 62 63
49 50 50 50 50 50 51 51 51 51 51 52 53 53 55 53 15 31 53 48 49 52 41 29 22 23 29 33 34 34 37 38 40 41 38 36 36 42 43 52 56 59 62 62 62
49 50 50 50 50 51 51 51 51 51 51 51 52 54 51 40 34 29 44 58 59 48 37 30 23 24 26 31 31 33 34 35 38 41 37 36 36 41 43 55 57 57 59 61 61
50 50 51 51 51 51 51 51 51 50 50 51 52 55 50 20 20 24 43 50 43 38 33 30 27 27 28 30 29 29 30 35 34 33 40 37 35 40 47 56 57 57 56 58 62
50 50 51 51 50 51 51 51 50 49 49 51 54 54 45 21 20 42 35 40 38 33 27 29 31 31 26 28 29 26 24 24 27 28 32 40 42 37 46 50 56 57 57 57 58
50 51 51 51 51 51 50 50 49 49 50 53 56 52 38 29 27 24 22 24 34 30 30 24 27 28 24 24 24 23 20 19 23 26 28 38 41 42 42 49 52 55 56 57 57
51 50 50 50 50 50 50 49 49 50 52 56 55 53 40 36 32 26 23 25 26 26 30 27 23 22 21 18 19 18 17 18 20 26 32 34 38 37 37 47 48 52 53 55 57
50 50 50 50 50 49 49 47 47 51 56 55 50 46 44 32 27 28 26 27 22 22 21 22 24 20 19 16 15 16 17 18 20 27 33 36 38 40 40 41 47 49 50 52 54
50 50 50 49 49 49 46 42 36 39 49 43 40 34 24 26 28 27 26 23 21 18 19 19 20 19 17 14 16 18 18 19 20 30 33 38 41 41 40 42 43 48 49 50 52
50 50 50 49 49 47 47 38 32 17 18 18 17 30 36 37 32 24 24 22 21 21 21 16 19 21 20 19 15 17 18 19 21 29 31 42 42 41 39 37 40 44 48 50 51
51 50 49 49 47 45 31 27 26 18 15 14 14 14 14 26 32 29 25 24 23 20 17 16 21 21 18 18 19 17 18 19 21 26 32 42 43 44 40 40 43 45 46 49 50
51 50 49 49 36 36 31 31 27 19 12 12 11 10 12 13 19 28 26 24 22 19 16 17 20 17 16 13 15 19 20 20 20 21 25 36 34 44 42 45 47 47 43 46 49
50 50 49 48 42 39 32 34 30 22 10 14 12 12 11 9 15 24 27 22 20 22 14 12 18 17 14 8 10 18 21 20 20 20 32 31 30 34 44 45 45 46 42 43 46
50 49 49 42 39 38 36 32 27 16 12 13 9 8 8 8 9 10 22 17 15 19 19 17 16 11 14 14 8 11 18 20 20 20 19 29 29 32 38 45 48 45 43 43 44
50 49 47 44 37 31 38 30 14 12 16 14 11 12 7 7 7 7 9 9 8 8 9 10 12 16 12 11 10 7 9 14 16 18 18 20 29 33 35 37 41 43 42 44 44
50 47 44 41 41 41 38 21 14 16 14 16 15 15 12 10 8 7 10 8 9 9 12 10 9 13 15 10 9 6 7 10 14 17 18 20 20 23 34 38 41 44 45 45 45
49 40 37 36 36 38 32 24 14 16 18 16 15 14 14 16 17 10 13 10 9 9 13 9 11 16 15 13 9 8 5 7 10 17 19 19 19 21 33 35 38 40 43 43 44
44 39 38 38 37 34 29 24 19 17 18 20 16 14 14 14 15 18 13 15 17 16 17 13 15 16 15 13 11 7 10 6 6 7 12 15 19 22 26 35 40 40 40 41 43
43 33 30 29 29 31 26 24 23 23 21 19 19 18 17 15 14 13 15 16 14 17 15 13 13 13 16 12 9 9 5 5 8 8 10 15 18 23 23 35 40 39 39 40 43
36 30 29 30 25 25 23 25 27 26 27 25 24 22 21 19 17 14 12 12 16 16 16 14 12 11 12 15 14 10 10 5 8 8 14 11 13 24 20 33 39 38 38 36 39
35 32 32 29 21 23 23 23 24 21 19 21 22 23 24 22 21 19 17 14 11 13 16 18 13 12 15 14 14 11 10 11 6 11 11 16 14 15 16 26 28 32 38 37 38
38 28 26 28 26 23 26 29 30 31 28 25 25 27 26 26 25 24 22 19 12 10 20 25 16 14 14 16 15 15 13 11 8 4 5 7 8 13 21 29 30 33 33 31 37
38 32 28 29 30 30 29 32 27 25 27 24 28 30 27 29 28 28 32 32 31 29 21 17 17 14 17 17 16 12 16 12 11 8 7 8 7 11 14 29 31 34 38 34 38
36 33 35 31 29 26 25 21 20 19 26 25 25 31 29 32 34 33 32 32 31 29 28 27 24 22 21 20 17 14 15 17 10 10 11 11 12 18 18 18 33 35 30 27 40
39 39 38 33 28 26 26 24 27 25 27 27 29 25 30 28 31 35 32 30 31 31 28 26 26 26 18 22 22 19 14 17 19 13 13 11 12 14 14 16 29 32 36 27 29

GFSSW_sfc_30mbdewp_012.txt.gz
Dewpoint
51 51 51 52 51 51 52 52 52 52 52 52 53 54 55 56 56 54 32 28 35 59 65 65 63 58 64 63 59 58 49 41 44 44 46 54 54 56 58 58 58 58 60 62 63
50 50 50 51 51 51 51 51 52 51 51 52 53 53 55 56 53 38 30 39 44 57 47 41 52 53 51 52 58 55 46 43 45 44 46 52 54 56 57 57 57 59 61 62 63
50 50 50 50 50 51 51 51 51 51 51 51 52 53 54 56 42 21 55 50 48 62 46 42 34 46 48 46 44 44 41 42 44 44 49 53 54 56 56 56 57 59 61 62 63
50 50 50 50 50 51 51 51 51 51 51 51 52 53 54 54 5 25 51 57 50 55 44 36 31 24 23 27 32 35 36 39 41 40 44 50 53 56 56 56 59 61 61 62 62
50 50 50 50 50 50 51 51 51 51 51 51 51 53 51 38 26 20 41 60 59 52 42 37 30 24 22 25 28 31 32 34 39 41 39 40 50 55 54 58 60 61 62 62 62
51 51 51 51 51 51 51 52 51 50 50 50 51 54 47 10 15 19 27 43 43 46 41 36 29 27 24 26 27 30 30 29 34 39 39 36 42 47 55 58 60 60 61 62 62
51 51 51 51 51 51 51 51 51 50 50 51 52 53 48 14 21 26 38 41 41 37 31 35 31 27 28 27 28 29 26 25 24 30 37 40 42 50 56 58 60 60 61 62 62
51 50 51 50 50 50 50 50 50 50 51 52 53 53 30 36 31 24 22 19 33 40 36 30 31 28 29 30 24 20 21 20 21 24 39 38 42 53 56 57 59 60 61 62 62
51 51 51 50 50 50 49 49 49 50 52 55 54 53 29 43 41 35 26 23 28 27 32 30 25 26 25 22 19 19 19 19 18 22 40 38 39 48 56 56 56 57 60 60 61
51 51 50 50 49 49 49 48 48 52 55 55 53 42 37 23 38 29 27 22 24 28 28 29 26 22 21 19 17 18 17 17 17 18 34 37 39 43 55 56 56 56 56 57 60
51 51 51 50 49 48 47 43 31 30 48 38 39 33 29 31 36 29 26 22 25 21 21 21 21 22 21 20 18 17 17 17 18 21 35 35 37 40 50 54 55 56 56 56 56
51 51 51 50 49 47 47 31 33 31 24 22 23 29 33 33 32 35 27 22 23 21 18 19 18 20 22 19 18 15 14 16 18 20 28 38 37 40 46 49 52 53 55 56 56
51 51 51 50 47 41 36 29 32 31 17 14 17 18 18 24 29 30 30 23 21 19 18 17 18 19 21 20 18 15 13 14 17 19 32 40 39 40 41 44 47 50 52 54 55
51 51 50 49 33 41 36 35 34 32 13 13 13 13 15 17 20 25 33 23 23 19 21 21 20 18 18 20 19 17 18 16 17 19 19 38 31 41 42 40 42 47 49 50 52
51 50 50 49 43 40 31 36 36 23 14 17 13 14 14 11 13 17 26 27 23 22 21 18 18 16 20 20 20 17 18 20 19 20 21 22 30 36 43 42 45 45 46 49 51
51 50 49 45 43 40 39 39 31 13 11 15 13 9 11 10 10 17 22 27 23 22 21 19 17 18 19 19 19 17 12 16 21 20 19 25 31 31 41 40 43 44 46 47 50
50 49 47 45 36 38 41 33 12 11 16 15 15 13 8 8 7 8 23 25 22 17 19 21 21 16 16 17 17 13 9 7 10 15 17 20 27 30 36 42 42 43 44 46 48
48 48 43 41 44 44 38 20 13 16 15 18 19 17 11 7 6 4 9 23 23 13 12 16 15 14 15 15 13 12 10 7 7 12 15 19 20 24 34 42 44 43 44 47 44
48 42 40 38 37 40 34 20 15 16 19 20 19 15 15 16 17 10 5 7 19 17 9 10 11 12 11 12 15 14 8 8 7 16 13 16 20 22 25 37 43 44 45 45 44
45 42 39 39 37 37 31 25 21 23 23 23 18 17 21 20 19 19 15 11 9 12 11 9 10 12 10 12 12 12 11 7 7 5 6 10 17 18 20 23 35 40 44 44 44
43 35 34 32 30 33 29 27 25 24 24 25 24 24 23 22 22 22 19 15 14 10 10 8 11 11 14 11 13 13 10 9 7 5 4 7 9 16 19 22 28 41 44 44 45
39 31 33 33 25 27 29 28 27 26 26 25 26 25 24 23 22 23 22 19 23 24 20 11 7 9 13 13 15 15 12 8 6 6 7 5 6 19 19 21 28 35 42 45 45
37 35 35 31 25 29 32 30 29 29 29 28 25 26 28 27 26 26 27 27 33 31 33 29 15 12 12 12 13 13 12 9 8 6 6 8 8 14 14 15 28 31 40 41 41
38 31 29 31 31 28 28 31 28 30 25 26 25 30 29 26 30 30 31 33 33 32 34 28 22 13 12 12 12 12 13 11 8 6 6 7 11 14 14 16 24 32 40 40 39
37 32 32 29 29 29 27 26 30 28 25 26 26 26 30 28 30 29 31 33 31 32 30 30 24 21 22 18 13 13 13 12 10 8 6 7 7 9 10 12 12 15 37 38 38
35 35 35 32 32 28 26 24 30 30 29 25 26 28 29 29 30 30 30 33 30 30 29 30 25 25 23 22 14 14 16 14 15 11 10 8 7 9 9 11 18 22 30 36 37
40 39 37 33 30 28 27 26 26 27 33 30 27 28 27 29 32 30 32 34 33 32 29 29 26 24 21 24 16 15 15 15 14 14 13 10 10 14 14 17 18 20 25 32 40

GFSSW_sfc_30mbdewp_015.txt.gz
Dewpoint
51 51 51 51 51 51 52 52 52 52 52 52 52 53 54 55 55 53 25 24 34 72 74 72 68 67 66 66 61 60 52 46 44 46 47 55 56 58 59 59 58 59 60 61 64
51 51 50 50 51 51 52 52 52 52 52 52 52 53 54 55 52 37 30 43 47 72 67 68 65 64 63 63 61 57 51 46 45 45 52 55 55 57 58 58 58 59 61 63 64
50 50 50 50 50 50 51 51 51 51 51 52 52 53 54 55 36 12 47 52 57 68 52 59 56 57 54 50 60 56 52 48 45 43 53 54 55 57 57 56 58 58 61 62 64
50 50 50 50 50 50 50 51 51 51 51 51 51 52 54 53 6 20 62 63 63 52 44 41 36 44 43 48 50 43 47 51 45 39 53 54 55 56 56 55 59 60 61 62 63
50 50 50 50 50 50 50 50 51 51 51 51 51 52 50 35 18 14 47 63 62 49 41 36 32 30 22 25 31 43 41 35 36 37 50 54 55 55 56 58 59 60 61 62 63
51 51 51 51 51 50 50 51 51 50 50 51 51 52 44 6 12 22 25 51 48 48 42 36 29 28 24 23 25 29 30 30 30 28 49 53 55 55 56 58 60 60 61 62 62
51 51 51 51 51 51 51 50 50 50 50 51 52 51 47 8 16 27 34 37 50 42 38 38 32 25 24 22 27 27 25 23 24 25 46 51 51 54 56 60 60 60 61 62 62
51 51 51 51 51 51 50 49 49 50 52 53 53 52 22 32 33 23 18 16 38 42 32 33 35 29 28 29 27 22 21 22 24 23 29 46 44 51 58 59 59 60 61 61 62
52 51 51 51 51 50 49 49 49 52 53 53 52 51 20 39 41 32 26 16 17 30 38 35 31 27 25 24 22 19 22 21 22 21 38 38 39 54 58 59 59 60 60 61 62
52 51 51 51 50 50 48 49 49 54 55 54 53 42 37 20 41 35 32 22 22 27 29 29 25 23 22 22 21 20 19 19 19 22 37 38 41 54 57 58 58 59 60 61 61
51 51 51 50 50 48 48 42 31 31 45 34 39 34 29 30 34 33 26 22 22 25 24 26 26 23 21 21 20 19 18 19 19 21 30 35 39 54 56 57 58 59 59 61 61
51 51 51 50 48 48 42 28 32 32 28 27 27 28 30 31 24 24 24 17 20 19 22 22 22 25 25 23 21 19 18 17 17 19 23 30 35 53 55 56 57 58 59 60 61
51 50 50 50 48 40 38 31 34 34 23 18 20 20 19 26 25 22 25 20 20 20 21 19 19 20 21 21 20 18 18 17 16 19 26 36 38 43 54 55 56 56 57 59 59
50 50 49 49 32 42 33 36 36 36 14 14 13 14 19 25 24 25 31 21 22 20 21 20 18 19 19 19 20 19 18 17 15 15 14 36 32 39 46 53 54 55 56 56 56
50 49 48 48 43 38 29 38 40 25 18 21 13 16 17 15 14 21 30 29 22 21 21 19 17 17 17 18 20 19 20 19 20 18 18 20 25 29 41 45 47 51 53 55 56
49 48 48 45 44 41 40 40 30 14 16 16 13 11 13 13 10 22 22 28 25 22 21 19 21 19 19 19 18 21 19 16 19 19 15 18 21 20 36 40 42 45 49 52 54
48 47 46 45 35 40 41 33 13 13 17 17 17 18 17 9 9 16 20 23 23 20 20 20 20 18 19 18 20 20 16 14 11 12 13 16 21 21 29 41 41 43 44 49 50
48 46 44 41 42 44 39 21 13 14 14 20 21 19 14 18 10 10 20 21 25 20 20 19 18 20 17 17 16 17 16 12 9 10 12 18 18 20 28 33 43 42 44 45 48
47 41 41 39 39 40 33 17 13 16 21 22 20 18 20 22 21 20 16 21 24 20 17 18 18 19 20 17 17 14 14 14 10 16 11 16 19 21 22 26 37 42 42 44 46
43 41 39 40 38 37 31 22 21 24 23 25 19 23 22 23 21 23 20 18 18 24 18 14 12 13 15 18 16 15 14 10 9 9 8 9 12 13 20 22 29 39 43 43 46
39 34 33 34 34 34 26 28 27 26 25 24 23 23 24 24 23 23 23 24 29 28 26 17 12 12 12 11 12 13 13 11 11 8 7 6 8 13 18 21 24 32 42 44 46
38 28 30 36 27 28 27 29 30 27 28 27 25 25 25 26 25 22 23 25 32 33 32 31 17 12 11 14 11 11 12 11 10 8 8 7 7 17 16 18 22 24 34 41 44
36 35 37 33 26 24 26 27 30 29 28 26 26 27 28 27 22 30 30 33 32 32 34 34 24 12 8 9 13 12 13 11 11 10 10 7 7 11 15 17 20 24 33 34 41
37 29 32 31 31 29 28 25 29 32 29 26 25 29 29 26 29 28 28 33 31 31 36 31 26 21 15 12 16 12 13 14 12 10 10 9 8 13 12 11 12 21 27 35 43
35 31 33 28 29 31 28 26 29 30 33 29 25 27 29 28 29 29 30 31 31 32 31 30 25 24 25 25 23 21 15 12 12 12 10 11 8 8 12 15 16 16 20 31 41
34 33 34 32 31 30 27 27 28 28 31 31 27 26 27 27 28 28 30 32 29 30 27 30 25 27 24 21 23 21 16 15 13 12 11 10 9 10 10 14 14 13 14 22 37
39 39 37 34 31 29 26 27 27 28 31 34 28 26 24 27 32 31 32 32 30 29 27 28 27 26 22 23 24 17 17 16 14 14 12 10 11 10 10 11 11 11 16 21 21

GFSSW_sfc_30mbdewp_018.txt.gz
Dewpoint
50 51 51 51 51 51 51 52 52 52 52 52 52 53 54 55 55 53 24 21 31 67 73 71 70 65 67 64 62 60 54 49 45 50 49 58 56 59 59 58 58 59 60 61 65
50 50 50 50 50 51 51 51 52 52 52 52 52 53 53 55 52 37 32 42 60 74 71 68 66 65 64 65 62 58 53 49 47 47 49 56 56 58 58 57 58 59 61 64 64
50 50 50 50 50 50 51 51 51 51 51 52 52 52 53 55 38 12 50 50 72 74 69 67 66 63 61 59 61 59 54 52 48 47 48 55 56 57 58 56 58 59 61 63 64
50 50 50 50 50 50 51 51 51 51 51 51 52 52 53 53 9 42 61 57 71 68 67 64 64 59 56 57 58 54 51 54 50 46 52 54 56 56 57 56 57 61 62 63 64
51 51 51 51 51 51 51 51 51 50 50 51 51 52 50 35 14 57 62 61 70 56 57 52 58 53 46 46 50 50 47 44 43 42 43 54 55 55 57 57 60 61 62 62 64
52 52 52 52 51 51 51 52 51 50 50 51 51 52 44 2 9 23 57 59 58 50 43 40 41 40 28 25 38 32 36 40 34 31 41 53 54 55 56 59 59 61 61 62 63
52 52 52 52 51 51 51 51 50 50 51 51 52 51 46 3 14 25 52 48 48 45 39 37 32 31 28 24 25 27 27 28 28 28 37 52 53 54 57 58 59 60 61 62 63
51 52 52 52 51 50 50 49 50 51 53 54 52 50 18 27 32 26 20 37 47 44 37 38 33 28 26 26 25 23 21 22 25 28 44 50 46 55 57 58 58 59 60 61 62
51 51 51 51 50 50 49 49 51 54 54 53 50 49 15 39 37 30 20 18 37 44 39 34 34 30 27 23 22 21 22 22 23 23 33 51 42 52 57 58 58 59 59 61 62
51 51 50 50 49 49 48 48 49 55 53 53 52 42 35 24 39 40 28 19 19 30 32 34 29 27 24 21 12 21 20 20 21 23 40 47 41 51 57 58 58 59 60 61 61
50 50 50 49 49 47 47 37 30 31 36 42 40 35 31 28 31 32 29 20 27 27 26 28 28 25 22 20 20 23 20 20 20 22 28 38 41 53 57 58 58 59 59 60 61
50 50 49 49 48 47 39 31 29 30 29 28 28 29 34 31 23 25 24 18 20 22 26 24 26 27 24 21 21 20 19 19 19 19 19 19 24 51 56 57 58 58 59 60 61
49 49 49 48 48 40 38 32 36 36 28 23 26 25 24 28 25 21 23 20 17 21 24 23 22 27 27 23 20 20 19 19 19 18 21 28 31 37 55 56 57 58 59 60 60
50 49 48 48 30 42 28 36 38 38 19 18 16 17 23 26 22 25 23 20 20 18 21 21 22 24 24 24 23 20 20 19 17 15 15 33 21 38 49 55 56 57 59 59 60
49 49 48 47 42 36 27 40 39 29 16 22 13 16 22 19 17 22 30 25 19 20 21 20 20 20 20 20 21 21 21 19 18 16 16 21 20 21 45 53 54 55 57 59 60
49 49 48 44 43 41 41 41 32 19 18 18 13 13 16 16 13 23 25 29 24 21 21 21 21 21 19 20 21 21 19 17 20 19 15 17 18 19 36 47 53 54 55 56 57
48 47 47 45 35 40 42 33 15 16 19 18 18 20 18 14 11 19 21 25 20 19 19 21 22 20 19 17 19 20 18 15 13 14 15 17 18 18 26 40 44 51 53 55 56
48 47 42 42 41 40 38 20 12 15 14 22 22 20 17 22 20 20 19 22 24 21 20 18 18 21 19 17 17 18 17 15 10 10 13 18 16 18 21 33 41 42 46 50 53
47 41 38 38 38 40 31 15 14 16 22 22 22 20 21 23 22 20 18 17 25 20 19 19 20 21 19 18 18 17 16 16 12 15 11 15 18 20 24 24 35 40 41 43 48
42 39 35 39 36 36 30 21 22 26 27 24 21 24 22 23 22 22 20 30 28 29 26 17 19 18 21 18 18 15 16 15 14 11 9 11 11 14 21 22 26 34 41 43 44
38 33 30 37 35 32 22 27 29 30 28 26 24 23 24 24 24 22 23 31 31 32 31 27 13 12 16 18 18 15 13 13 15 12 8 8 10 15 15 22 22 24 35 41 43
37 27 29 34 25 28 24 25 33 31 29 27 27 26 26 27 24 23 26 31 31 34 31 33 23 17 15 12 18 18 15 13 11 10 10 9 8 15 14 16 20 23 30 40 44
35 34 36 31 25 26 28 25 26 34 32 26 25 28 28 27 22 29 28 33 30 31 35 30 24 15 12 14 14 12 16 15 13 13 11 9 9 12 14 16 18 21 25 33 41
36 29 31 32 31 30 29 25 24 30 35 34 27 29 29 27 29 27 29 31 31 32 36 31 26 21 18 17 23 19 15 12 14 12 12 12 11 12 11 12 13 17 21 26 33
34 29 33 28 28 29 30 27 28 29 31 35 32 28 27 27 27 28 30 29 30 33 29 29 23 25 25 25 24 23 21 20 14 12 11 11 12 14 13 13 13 13 17 22 25
33 33 35 32 32 30 28 26 27 26 29 30 32 32 27 26 28 28 30 30 28 29 26 29 24 27 24 23 23 23 23 23 20 16 14 12 12 13 14 14 15 16 17 19 22
39 39 37 32 33 30 27 27 26 28 29 32 34 29 26 26 31 31 31 30 29 30 27 26 27 25 21 23 22 18 17 18 18 16 14 13 14 13 12 13 14 14 16 17 19

GFSSW_sfc_30mbdewp_021.txt.gz
Dewpoint
51 51 51 51 51 51 52 52 52 52 52 52 53 53 53 54 54 52 31 21 32 70 69 67 64 64 64 63 63 61 55 49 45 48 49 57 56 58 59 57 57 58 59 60 64
51 51 51 51 51 51 51 52 52 52 52 52 52 53 53 54 50 37 33 42 47 73 66 63 61 63 61 61 62 59 54 49 48 48 43 55 56 58 57 56 56 58 61 63 64
51 51 51 51 51 51 51 51 52 51 52 52 52 53 53 53 36 16 39 49 65 72 65 63 63 61 59 62 61 60 54 53 48 47 45 51 56 57 57 55 55 57 60 62 63
51 51 51 51 51 51 51 51 51 51 51 52 52 52 53 52 8 44 66 56 70 66 65 63 61 57 55 56 60 56 56 54 48 47 47 51 56 56 57 55 56 58 60 61 62
51 51 51 51 51 51 51 51 52 51 51 51 52 52 50 36 13 57 61 62 70 64 60 59 59 55 50 54 54 56 50 48 46 45 41 46 54 54 56 56 57 60 60 60 61
51 51 52 51 51 50 51 51 51 50 50 51 51 51 44 4 7 41 54 65 65 61 57 58 58 54 47 35 47 44 42 32 36 37 33 43 48 55 55 58 59 60 60 60 60
50 50 51 51 50 50 50 50 49 50 51 51 51 50 44 9 17 30 55 59 62 55 55 53 51 51 36 29 32 31 25 25 26 28 29 40 50 52 55 58 59 60 60 60 61
49 49 50 50 50 50 49 49 50 55 54 52 52 49 24 26 26 22 46 47 60 51 45 46 42 45 30 27 25 25 25 20 23 25 33 40 28 49 57 57 58 59 59 60 61
50 50 50 50 50 49 48 49 52 54 55 53 50 48 17 39 27 20 26 38 49 48 39 39 34 33 28 24 20 21 20 22 23 25 39 44 31 41 56 56 57 58 59 59 61
50 50 50 49 49 48 48 48 53 54 52 53 49 38 29 24 34 28 19 40 38 39 35 32 31 30 27 22 15 17 18 21 23 25 29 39 39 45 55 56 56 58 58 59 60
50 50 50 49 48 47 44 38 31 33 33 42 42 34 34 28 38 33 17 21 30 33 26 31 25 25 24 22 19 17 17 20 21 22 30 34 38 45 54 56 56 57 57 58 59
50 50 50 49 48 47 38 30 31 32 29 29 29 32 38 34 26 30 19 13 19 22 27 28 24 23 24 25 22 18 16 19 21 21 21 24 28 33 50 55 56 57 57 58 59
49 49 49 48 48 40 38 34 37 37 31 26 28 26 25 27 27 26 19 15 17 18 21 22 22 25 26 24 20 17 14 16 20 20 20 23 23 30 48 53 56 57 58 58 58
49 49 48 48 34 40 30 37 39 39 22 20 19 22 24 25 24 25 26 20 17 17 19 18 23 25 25 23 20 12 15 16 19 20 19 26 21 32 36 49 53 55 57 58 58
49 48 47 48 42 38 32 40 40 36 2 21 14 20 24 22 19 23 24 23 16 16 20 18 24 24 24 23 23 14 18 17 19 19 19 19 22 24 41 45 51 54 56 57 58
48 48 48 43 43 41 41 41 36 18 9 19 13 14 19 19 16 23 23 26 23 18 18 17 23 24 24 24 25 24 22 22 22 20 17 19 19 21 27 35 44 51 55 57 58
48 47 46 44 33 38 40 34 17 14 19 19 20 21 20 17 14 21 22 23 20 16 18 19 20 21 22 20 22 21 18 15 13 14 15 19 20 21 26 35 33 46 52 55 58
47 46 41 41 41 39 37 18 12 14 18 22 23 22 17 23 19 20 20 20 23 17 15 16 16 20 20 20 18 20 16 9 8 8 11 22 18 20 24 26 36 40 47 52 56
47 40 37 37 36 38 30 10 14 23 27 25 23 22 22 23 23 22 20 18 23 22 15 15 15 21 20 19 19 19 18 15 11 16 12 12 16 22 25 25 31 36 39 46 51
41 38 33 35 36 36 25 20 26 30 29 25 23 24 23 23 22 22 23 30 26 30 30 23 19 20 21 20 19 18 19 15 13 6 6 10 16 13 23 24 28 33 36 39 43
39 32 29 36 33 28 23 24 26 30 31 27 25 24 24 24 24 22 27 28 30 31 32 28 19 17 21 18 18 17 17 16 14 11 3 2 4 21 24 31 28 30 33 36 40
37 25 33 33 23 26 22 25 26 27 33 29 26 26 26 26 24 25 29 30 28 33 31 31 20 18 19 21 19 19 17 17 13 17 12 8 5 19 21 26 32 29 32 37 43
35 33 35 31 24 26 27 26 24 29 31 33 28 28 29 28 23 28 29 32 28 33 32 29 25 21 19 18 17 19 18 18 16 16 15 8 7 13 19 24 24 24 27 35 41
35 27 29 31 31 26 26 24 25 29 32 36 34 28 27 27 29 26 27 29 29 33 36 31 26 24 19 20 23 22 18 19 16 15 15 15 11 15 20 23 24 27 31 33 37
36 31 33 26 26 28 28 27 26 25 27 31 33 33 29 26 26 27 28 28 28 31 28 29 24 25 25 24 23 23 21 21 18 18 16 15 15 17 19 21 22 25 31 31 33
35 32 36 32 31 30 27 25 26 25 27 24 32 31 32 30 26 27 29 29 27 29 26 28 23 28 22 21 21 21 22 22 21 20 19 18 17 18 22 24 25 22 23 26 32
40 40 37 34 30 30 26 25 25 27 27 29 33 30 26 27 29 28 28 28 27 26 27 27 26 24 18 22 22 19 20 20 20 21 20 17 18 20 19 20 24 26 29 29 29

GFSSW_sfc_30mbdewp_024.txt.gz
Dewpoint
52 52 52 52 52 52 52 52 52 53 53 53 53 53 54 54 53 49 31 23 32 68 67 63 64 62 61 59 61 59 51 42 42 43 46 53 53 56 57 55 55 56 56 60 63
51 51 51 51 51 51 52 52 52 52 52 53 53 53 53 54 44 30 25 41 44 71 57 59 60 59 57 55 57 55 48 42 43 42 41 47 52 56 54 54 53 56 57 61 62
51 51 51 51 51 51 51 51 51 51 52 52 53 53 53 53 34 15 46 49 61 67 49 55 54 54 49 52 54 52 48 45 43 43 42 44 52 55 52 51 52 56 59 61 61
50 50 50 50 50 50 50 50 50 51 51 52 52 52 53 46 13 33 63 53 66 49 47 50 52 51 47 50 51 50 49 49 45 43 42 39 49 53 52 50 53 57 59 60 60
49 50 50 50 50 50 50 51 51 50 51 51 52 52 48 30 13 38 60 56 60 48 46 47 50 46 41 44 47 50 45 44 44 43 41 37 44 48 52 53 54 57 58 59 59
49 50 50 50 50 50 50 50 50 50 51 52 51 51 38 17 11 13 42 49 53 49 47 46 47 44 41 41 44 44 46 43 33 33 36 33 40 47 50 54 55 57 57 58 58
50 50 51 51 50 50 50 50 49 51 54 55 52 49 38 20 12 17 43 49 53 51 45 44 45 45 38 39 34 41 37 29 27 29 30 30 32 43 48 55 56 56 57 57 58
50 50 50 51 50 50 49 49 50 54 55 53 52 47 31 25 23 30 40 48 54 51 44 45 45 45 37 29 26 28 27 26 29 30 29 31 31 42 50 54 55 56 57 57 57
50 50 50 50 49 49 49 49 52 55 53 53 49 43 28 31 19 17 41 42 50 47 46 44 44 39 37 32 24 22 24 27 29 29 31 34 32 37 49 52 53 56 57 57 57
50 50 50 49 49 48 48 47 55 54 52 52 45 37 30 22 24 13 37 33 46 45 39 36 35 25 28 29 23 22 22 24 26 29 29 30 33 34 45 48 51 55 56 56 57
50 49 49 48 48 48 43 35 37 42 35 38 38 30 30 25 32 16 21 32 41 41 28 26 21 18 17 21 21 21 22 23 25 29 28 30 30 32 41 48 48 54 56 56 57
49 49 49 48 48 47 38 28 31 31 26 24 25 29 37 35 30 20 20 28 27 30 25 24 21 17 17 15 18 20 18 20 24 26 24 27 27 31 37 47 48 52 55 56 56
49 49 48 48 47 39 33 33 36 34 26 22 25 23 25 29 27 25 15 22 24 23 21 19 19 18 17 19 19 18 18 19 21 24 23 24 25 27 27 36 46 49 53 55 56
49 48 48 47 37 35 30 32 36 36 23 12 20 24 24 26 25 27 13 19 18 21 19 18 19 20 18 18 18 15 16 17 17 20 22 26 23 27 28 33 39 45 50 53 55
49 48 47 47 38 31 33 35 37 35 2 19 18 22 23 24 23 22 26 10 10 16 18 18 19 19 18 19 18 14 9 12 14 15 19 22 23 24 28 29 32 40 45 51 53
48 47 47 39 35 33 34 36 36 21 3 16 15 17 19 22 21 23 25 16 14 14 17 17 17 17 19 20 20 17 12 10 13 13 15 20 23 23 25 29 31 39 45 50 53
48 46 45 38 31 34 34 32 15 6 13 19 18 19 17 16 20 20 22 23 22 16 14 17 16 19 19 19 20 18 16 12 8 8 11 18 20 23 25 26 30 31 36 49 52
47 45 38 35 32 34 32 21 7 10 20 24 23 21 19 17 16 16 21 21 22 19 15 15 14 16 19 19 18 18 15 7 6 4 6 15 17 20 24 27 28 30 30 43 51
45 31 30 29 32 35 27 8 3 25 26 25 22 20 18 21 20 18 17 20 20 21 16 15 15 15 18 19 18 19 16 11 6 11 9 7 13 18 23 24 26 27 29 33 48
38 30 26 29 31 32 22 11 20 25 26 25 22 23 23 22 22 19 16 25 21 21 25 20 16 16 16 17 17 17 18 10 8 7 7 4 9 13 18 23 25 26 28 31 41
32 25 27 30 28 19 13 16 18 20 25 24 24 23 24 24 24 21 22 26 28 25 31 24 20 17 17 16 15 15 15 14 10 7 5 5 3 13 16 22 23 26 28 30 37
30 17 29 29 18 19 17 22 22 19 22 25 24 21 24 25 24 24 26 28 28 30 28 26 22 20 17 17 16 16 15 15 11 12 10 8 4 11 15 17 24 24 27 29 32
30 28 29 27 18 19 21 21 20 22 26 28 28 27 26 25 25 26 29 29 27 31 30 29 22 19 19 19 19 16 16 16 14 12 14 10 6 15 21 24 27 28 28 31 35
31 22 22 25 25 23 22 20 20 22 23 23 35 32 28 21 25 25 26 26 26 28 33 32 26 21 18 19 20 18 18 17 16 14 11 14 11 14 15 20 22 22 25 27 34
32 25 29 23 24 26 26 21 20 22 22 22 31 33 33 26 21 22 26 26 25 26 26 27 25 26 26 25 23 20 18 18 17 17 15 13 15 16 17 19 22 23 24 23 28
30 30 31 31 29 25 23 22 20 23 23 22 24 29 29 31 29 28 27 26 25 26 25 25 26 26 25 24 23 21 22 20 19 19 19 18 18 19 20 23 23 23 24 24 24
38 37 36 29 28 25 23 23 25 24 25 25 24 23 23 28 31 30 28 26 27 26 24 24 23 25 21 23 22 21 21 21 21 22 21 20 22 22 22 22 22 22 22 22 26

GFSSW_sfc_30mbdewp_027.txt.gz
Dewpoint
51 51 51 51 51 51 51 52 52 52 52 53 53 54 54 54 54 47 34 26 30 53 60 55 57 58 59 56 55 55 51 46 39 41 43 46 43 49 53 53 54 55 58 60 61
50 50 50 50 50 50 51 51 51 51 52 52 53 53 54 54 45 30 27 39 41 56 55 51 52 55 53 53 52 51 52 54 40 38 40 45 45 47 50 51 52 53 58 60 60
50 50 50 50 50 50 50 50 50 51 51 52 52 53 53 53 37 22 46 45 49 64 40 49 52 52 49 46 47 48 48 55 40 40 39 42 47 47 44 47 51 54 58 59 59
50 50 50 50 50 50 50 50 50 51 51 52 52 52 53 46 19 42 56 53 53 48 35 44 48 50 45 43 44 43 47 53 41 41 39 40 46 47 45 44 50 55 58 59 58
49 50 50 50 50 50 51 51 51 50 50 51 52 52 49 33 20 47 63 58 41 42 32 41 44 47 43 40 42 42 43 44 45 43 40 37 41 48 46 45 49 55 57 58 58
49 51 51 51 51 51 51 51 51 50 51 52 53 52 43 28 21 20 38 45 41 44 31 38 41 44 43 39 39 40 42 43 41 39 37 36 35 43 48 48 50 54 56 57 57
49 50 51 51 51 50 50 50 50 52 55 56 56 49 37 32 19 11 27 38 44 43 31 36 37 42 41 37 37 39 38 41 42 35 34 35 33 40 47 51 51 54 55 56 56
49 49 50 50 50 49 49 50 50 55 55 54 54 46 36 33 35 18 29 36 41 44 37 36 37 38 39 36 36 36 37 36 35 33 32 32 30 35 46 51 51 53 53 55 56
50 50 50 50 49 49 49 49 51 55 53 53 50 43 35 31 27 27 22 36 42 45 43 39 37 37 37 34 29 27 27 30 32 32 31 31 32 39 43 49 51 52 53 53 55
50 50 49 49 49 48 48 46 49 54 53 50 46 39 36 28 26 23 21 33 42 43 41 38 38 35 35 33 27 24 23 25 26 30 31 30 32 37 44 46 48 51 53 53 53
50 50 49 49 48 48 45 31 35 43 45 39 36 33 30 29 25 19 20 34 39 41 36 37 34 34 28 34 30 25 23 22 25 29 28 31 33 33 37 42 43 49 52 53 53
50 50 49 48 48 48 39 26 30 30 26 23 20 20 31 30 28 18 26 29 32 37 33 29 30 28 28 21 25 25 24 22 23 25 28 29 30 30 33 38 42 46 51 53 54
50 50 49 48 48 38 30 28 29 30 24 16 15 15 15 31 29 26 18 23 28 34 31 22 19 21 16 13 14 18 19 20 21 24 24 27 28 29 30 35 42 45 50 51 53
50 49 48 48 37 28 26 27 29 31 21 8 15 16 15 22 28 29 13 20 26 31 33 23 19 17 15 12 12 10 13 17 19 20 21 25 24 28 28 30 39 42 47 50 52
50 48 47 47 38 30 27 25 29 30 6 11 16 22 19 18 19 26 18 18 20 22 26 24 17 16 16 14 13 12 12 13 16 18 21 23 25 26 28 27 29 34 42 48 50
48 47 47 32 29 25 25 24 28 21 8 13 15 18 19 18 18 23 24 15 21 19 20 19 17 15 17 16 14 15 13 11 11 12 15 19 22 25 26 28 29 32 35 42 46
47 46 45 35 24 23 25 21 13 6 7 20 20 18 17 19 20 21 23 13 15 16 13 17 17 17 16 16 16 16 13 8 5 5 10 15 18 22 25 25 28 30 32 36 42
47 45 37 29 23 23 24 16 7 5 20 24 23 23 21 19 19 20 21 23 14 14 12 14 15 17 16 16 16 16 13 8 5 3 3 11 15 18 24 26 26 30 31 38 42
46 28 25 22 23 23 21 8 4 13 22 20 21 20 18 20 18 20 20 21 19 13 12 15 16 18 17 15 17 17 13 11 5 5 3 2 9 15 19 22 25 27 30 33 39
40 27 24 22 25 23 18 10 18 19 16 16 18 22 23 22 19 19 18 20 21 19 21 20 17 18 17 17 17 17 15 10 8 6 5 5 9 10 18 22 24 27 28 30 33
37 18 24 23 23 16 9 12 14 13 14 14 14 19 24 26 28 22 19 23 23 23 23 22 20 20 18 16 16 16 16 13 10 6 6 9 7 11 17 21 23 25 27 29 30
28 19 25 24 14 11 13 12 16 12 17 17 20 17 20 25 28 27 24 27 26 29 26 22 22 21 17 16 17 17 15 17 12 12 6 7 8 14 13 16 23 25 27 27 29
29 22 22 20 13 14 15 14 17 20 16 20 19 27 30 25 28 33 31 30 26 29 31 27 24 22 21 17 17 15 14 15 15 12 12 7 10 18 17 18 22 24 26 29 31
30 21 20 18 17 18 18 17 16 16 16 16 26 26 26 24 23 27 32 30 26 26 32 33 28 24 21 19 17 16 14 14 14 13 11 13 10 17 19 23 26 27 28 29 32
30 24 26 21 20 21 20 17 21 17 17 17 31 28 25 26 25 32 34 31 26 27 28 28 28 26 24 22 19 17 16 15 14 16 13 12 15 16 18 24 24 26 28 29 33
32 30 28 28 25 23 22 20 16 19 19 17 19 22 20 26 28 27 33 30 30 29 27 27 26 28 25 23 24 22 19 17 15 16 15 14 14 18 20 21 23 23 24 26 27
41 38 37 30 24 23 22 20 17 21 24 24 20 19 18 23 25 24 27 26 25 25 26 27 25 27 25 26 25 23 22 20 18 17 17 16 18 19 21 23 24 26 26 26 25

GFSSW_sfc_30mbdewp_030.txt.gz
Dewpoint
50 51 50 50 51 51 51 51 51 52 52 52 53 53 54 55 55 48 33 24 32 51 49 49 45 54 58 58 60 58 55 52 53 47 49 44 50 53 52 53 55 58 59 62 62
50 50 50 50 50 50 50 51 51 51 52 52 52 53 54 54 49 37 31 39 46 52 32 44 43 51 54 54 53 52 55 53 53 51 48 46 44 47 49 50 54 58 60 61 62
49 49 49 49 49 50 50 50 51 51 51 52 52 53 53 53 42 25 44 42 50 46 31 41 43 48 50 50 48 48 50 49 49 50 43 45 42 46 45 48 55 57 58 60 61
49 49 49 49 49 50 50 50 50 51 51 51 52 52 53 48 26 33 44 53 55 34 30 35 43 45 48 45 46 43 53 53 51 50 39 47 50 43 46 48 55 58 58 60 60
49 50 51 51 50 50 50 51 51 50 51 51 52 52 50 38 28 29 54 57 44 28 32 32 40 45 46 44 43 41 50 50 51 51 37 48 53 49 49 48 54 58 58 58 59
50 51 51 51 51 51 51 51 51 50 53 55 54 53 43 34 34 31 43 45 31 28 32 31 36 43 46 43 40 41 41 46 48 49 39 35 47 48 49 47 53 56 57 57 57
51 51 51 51 51 50 50 50 50 50 55 56 56 51 38 33 32 19 29 42 35 32 29 29 32 38 44 42 42 38 38 39 41 40 36 35 33 39 49 47 49 54 56 56 56
51 51 51 50 50 50 49 49 49 51 56 55 56 50 36 37 38 35 12 30 33 36 32 27 31 34 38 41 40 36 35 36 39 40 36 33 29 43 49 47 49 52 54 55 56
51 51 51 50 49 49 49 49 49 52 55 55 53 45 36 38 36 33 21 19 33 39 37 31 31 31 33 37 37 34 31 33 36 37 35 31 30 33 48 47 50 50 53 54 56
51 51 50 50 49 48 48 47 47 54 54 51 49 42 39 32 32 32 29 21 30 36 37 35 34 29 31 32 33 31 30 30 33 35 33 30 30 37 42 53 49 52 51 53 54
51 50 50 49 48 48 45 29 23 40 28 35 38 34 30 32 28 27 28 19 30 36 36 37 34 30 28 31 32 32 28 25 26 30 32 29 33 37 44 51 54 50 52 51 53
50 50 50 49 48 47 42 25 22 23 21 21 22 22 30 35 28 24 25 20 29 34 37 35 33 32 30 30 31 31 28 24 23 24 26 30 28 35 44 49 51 50 56 52 52
50 50 49 48 47 39 25 25 22 22 21 17 16 16 16 20 26 26 22 20 25 32 36 34 33 32 31 30 26 29 28 25 23 22 25 29 28 31 38 40 41 47 52 51 53
49 48 48 48 34 32 23 19 19 21 16 8 9 10 12 9 18 30 20 20 27 29 36 34 31 29 30 27 27 22 28 24 23 21 20 23 22 31 32 33 37 40 46 50 53
48 48 47 47 37 29 18 16 18 22 9 10 9 20 11 7 12 22 27 20 27 24 30 33 29 24 22 25 21 15 15 19 19 19 19 21 21 23 32 31 32 39 45 53 52
48 47 47 35 31 25 18 17 18 15 6 14 18 22 16 9 8 17 28 20 27 22 25 31 31 23 17 17 14 12 10 10 11 14 17 19 20 23 26 31 30 36 39 47 49
48 46 45 39 27 18 17 16 8 8 6 12 20 21 21 20 9 10 24 24 17 19 22 26 29 28 19 15 15 12 10 9 9 9 12 17 19 23 25 32 31 31 35 41 48
47 45 41 34 20 18 18 12 7 6 18 19 16 16 19 21 20 13 18 23 15 17 19 20 19 24 17 15 15 12 10 11 10 9 7 10 13 18 23 25 32 32 33 38 43
46 37 30 26 17 22 18 9 18 19 18 13 13 14 21 24 26 22 16 21 19 16 19 18 18 20 19 15 15 14 12 12 8 7 5 5 9 14 19 22 25 25 31 34 39
41 37 33 24 17 20 16 8 15 16 12 10 12 12 16 18 23 26 25 19 21 17 17 20 17 17 18 17 15 16 15 12 10 8 7 5 10 11 16 21 24 27 27 32 37
38 25 23 22 20 17 10 8 12 11 13 14 11 11 18 28 27 28 28 29 27 22 18 16 18 16 17 17 16 14 16 14 11 9 7 10 6 14 20 22 26 27 27 31 38
36 27 23 20 14 10 9 11 16 21 18 13 11 12 23 27 29 31 33 37 35 28 26 19 15 16 19 18 17 15 15 17 15 15 10 12 11 17 21 23 24 25 28 31 34
34 29 24 19 13 11 12 12 10 21 19 13 13 17 18 23 27 33 35 38 34 30 30 31 24 18 22 20 18 17 15 17 17 13 15 11 10 17 19 23 27 26 31 33 36
36 27 27 25 19 18 15 12 16 21 26 16 12 20 19 21 24 31 33 37 34 31 32 30 29 24 21 22 20 18 16 16 16 15 14 12 16 19 19 19 24 29 30 32 38
36 29 30 25 23 22 19 21 27 20 24 14 17 23 19 18 23 23 28 29 34 33 29 29 29 27 23 23 21 17 16 17 16 18 16 13 13 22 24 26 26 30 34 34 37
39 39 37 32 29 23 19 22 21 17 13 14 17 19 15 14 22 25 28 27 34 30 27 29 28 30 28 26 25 23 17 16 15 14 15 15 14 22 27 29 30 32 31 31 34
42 39 40 32 29 26 24 21 18 21 21 17 24 16 13 15 22 20 20 20 25 25 24 27 29 29 28 29 27 24 22 18 16 14 15 16 18 23 26 27 28 28 28 28 29

GFSSW_sfc_30mbdewp_033.txt.gz
Dewpoint
50 50 50 50 50 50 51 51 51 52 52 52 53 53 54 55 55 51 41 29 35 46 59 52 45 45 61 62 61 62 56 50 54 51 50 54 53 55 58 58 59 59 62 64 64
50 49 49 50 50 50 50 51 51 51 51 52 53 53 54 54 51 45 41 42 40 49 43 41 43 41 54 59 59 58 55 54 54 52 51 54 54 52 57 58 60 62 63 63 64
49 49 49 49 50 50 50 50 50 51 51 52 52 52 53 54 46 34 40 48 46 54 38 29 41 40 49 55 54 56 52 53 51 50 55 52 53 56 57 57 60 61 62 63 63
49 49 50 50 49 49 50 51 51 51 51 51 52 52 53 51 24 29 46 54 49 50 37 28 32 39 45 51 52 50 52 52 50 50 49 49 51 52 53 58 61 61 62 62 62
50 51 52 52 51 51 51 51 51 51 51 52 55 53 51 43 35 33 48 54 52 45 32 25 29 39 40 47 48 46 51 48 46 49 49 49 48 49 55 59 60 61 61 61 61
51 52 52 52 51 51 51 51 51 50 51 54 56 52 48 34 38 36 46 53 46 37 30 26 31 37 42 44 46 45 49 48 49 47 49 48 45 52 57 59 59 60 61 61 60
52 52 51 51 51 51 51 50 50 49 50 55 55 52 45 31 34 35 41 45 38 32 25 26 32 31 41 44 47 45 42 49 49 47 46 51 49 50 57 58 57 59 60 60 60
51 51 51 51 50 50 50 49 49 49 51 56 55 52 45 40 40 37 36 41 33 31 26 26 32 30 30 40 43 43 41 39 47 47 46 46 44 47 53 57 57 57 59 60 60
51 50 50 50 50 49 49 49 49 51 53 54 53 51 41 39 38 38 37 36 36 33 30 28 29 28 27 33 35 38 38 36 35 39 40 38 40 47 50 53 56 57 56 57 59
50 50 50 49 49 48 48 47 44 51 55 52 51 46 42 28 34 36 35 28 32 31 34 30 30 26 27 30 31 35 36 34 33 35 39 37 34 49 49 51 56 58 56 56 56
50 50 49 49 49 47 46 38 20 29 27 17 19 30 22 35 33 35 33 31 20 30 34 35 31 27 27 29 30 36 37 33 33 34 35 36 34 46 55 58 55 55 58 56 56
50 49 48 48 48 45 45 19 16 18 14 16 18 19 20 22 25 30 34 29 18 27 32 34 32 31 30 29 29 31 33 34 32 30 33 34 32 49 53 54 55 55 56 56 55
49 49 48 48 46 39 32 17 16 16 14 15 15 15 18 16 18 24 29 29 17 24 29 33 34 35 34 29 27 29 30 31 31 28 25 29 32 48 50 51 52 52 54 57 54
49 48 48 47 32 34 27 19 16 16 16 12 9 13 14 15 14 21 27 27 24 21 29 34 35 35 34 31 29 27 30 31 30 29 24 23 28 34 44 46 48 52 56 56 55
48 48 47 47 41 35 30 16 16 17 4 6 18 21 17 12 7 10 23 25 24 21 29 32 35 35 33 32 31 29 29 28 29 28 25 23 25 29 40 44 49 53 56 58 59
48 47 47 40 39 36 26 18 17 13 7 7 18 15 14 14 19 10 17 24 23 22 24 30 37 35 34 32 31 30 29 23 27 25 20 20 21 23 31 36 44 49 55 58 52
47 46 46 42 33 30 30 19 11 7 14 15 15 12 12 19 23 23 12 21 21 18 19 27 28 35 31 30 28 27 23 17 13 16 15 16 17 20 27 35 35 46 53 52 51
47 47 43 40 37 34 21 19 12 11 15 17 14 11 14 19 22 25 26 15 26 18 24 24 22 27 32 26 21 22 18 11 9 11 11 12 12 17 23 27 33 40 49 49 54
47 41 37 36 38 27 18 16 10 14 13 10 9 8 13 16 22 26 29 28 22 21 20 23 22 26 28 27 22 17 14 12 11 15 12 10 10 12 14 19 21 33 38 49 53
44 39 37 35 24 20 19 16 12 11 13 14 12 12 11 19 24 26 28 32 37 34 29 18 17 25 26 29 23 18 15 12 10 10 10 11 10 10 11 13 21 25 32 41 52
40 36 25 22 21 19 16 12 10 10 17 14 14 13 10 25 27 24 28 33 37 35 33 31 18 15 22 26 26 15 16 13 13 13 12 13 13 14 13 15 22 22 28 34 44
38 33 33 27 18 16 12 12 12 13 23 21 22 10 15 16 22 23 29 35 37 35 30 32 29 16 17 22 23 19 15 15 12 13 14 13 13 21 23 18 22 23 27 36 41
38 36 33 30 19 19 19 17 15 25 25 21 21 18 14 26 27 31 31 32 36 33 29 36 29 20 16 17 19 18 15 16 17 19 16 13 14 24 27 19 25 26 27 32 42
39 32 33 31 28 26 23 19 20 22 24 22 18 16 21 24 25 29 29 29 33 31 35 35 30 28 21 17 19 18 18 15 18 15 15 17 17 22 25 28 29 30 34 33 44
35 33 36 31 31 31 29 24 22 23 24 19 16 21 20 21 17 26 26 26 26 30 32 30 26 30 30 26 25 23 18 17 16 18 17 15 20 24 27 33 36 38 37 39 41
36 36 38 36 35 29 28 27 24 24 22 19 18 20 20 19 23 23 23 23 25 29 27 26 26 30 31 29 26 25 19 18 16 17 19 17 17 26 33 35 33 35 35 36 44
42 39 38 36 33 29 28 28 28 27 26 23 19 17 20 22 25 23 19 18 21 21 24 25 24 28 29 30 30 27 27 18 18 18 18 19 20 32 34 32 31 32 31 31 31

GFSSW_sfc_30mbdewp_036.txt.gz
Dewpoint
50 49 49 50 50 50 50 51 51 51 52 52 53 53 53 54 55 51 42 35 35 52 66 65 61 55 64 64 65 63 50 48 48 53 54 60 57 60 61 60 59 61 62 58 59
50 50 50 50 50 50 50 51 51 51 52 52 52 53 53 54 52 47 42 46 48 42 53 52 50 45 60 61 62 60 52 49 52 55 54 60 58 59 59 59 60 62 60 59 59
50 50 50 50 50 50 51 51 51 51 51 52 52 53 53 54 47 36 45 50 52 56 43 46 45 41 43 55 60 59 54 56 55 55 53 54 55 59 59 59 61 61 60 60 59
50 50 51 50 50 50 50 51 51 51 51 52 52 54 53 51 28 29 52 55 54 51 37 31 28 39 40 49 54 54 58 57 54 52 51 50 56 58 57 59 62 63 62 62 62
51 52 52 52 51 51 51 51 51 51 51 51 53 54 52 41 31 36 47 59 54 45 36 31 27 33 40 45 50 52 53 54 54 52 49 50 51 51 55 61 62 62 62 62 62
51 51 51 51 51 51 51 51 51 50 50 51 54 53 48 26 33 38 45 57 46 42 35 31 26 28 37 40 47 49 50 50 50 49 48 48 48 52 60 62 61 61 61 62 62
51 51 50 50 50 51 51 50 50 50 51 51 55 52 48 24 31 34 46 50 46 39 34 31 27 31 33 39 40 42 46 46 49 47 47 48 47 54 60 61 61 61 61 61 62
51 51 50 50 49 49 50 49 49 52 53 52 56 51 42 46 45 42 39 36 45 40 28 31 27 28 30 31 30 41 43 43 46 47 47 48 45 56 60 59 60 60 60 60 61
51 50 50 49 49 49 48 48 49 52 54 55 53 50 40 46 44 41 38 35 39 38 30 26 26 27 30 27 25 33 36 40 41 48 46 47 44 57 59 59 59 59 59 60 60
50 50 50 49 49 48 47 45 43 53 55 53 52 46 40 26 28 25 38 37 35 31 29 25 24 26 27 26 25 31 36 37 38 38 45 46 43 57 58 58 59 59 59 59 60
50 50 49 49 48 48 46 30 15 15 16 14 14 29 24 21 17 25 30 35 36 31 29 29 24 24 24 26 27 32 34 36 37 37 35 37 47 56 57 57 58 59 59 59 59
50 49 49 48 47 47 44 19 17 16 12 14 14 15 16 17 16 15 27 30 29 29 30 33 28 26 29 27 26 29 30 34 37 38 34 35 46 54 56 56 57 58 59 59 59
49 49 49 48 47 36 34 25 23 15 13 14 15 14 15 17 16 14 19 29 27 24 28 31 33 32 31 29 27 28 28 29 34 35 33 31 45 47 52 56 57 58 58 58 57
49 48 48 47 30 38 31 29 27 17 14 13 17 16 14 15 14 23 15 24 29 20 22 28 34 31 33 29 28 26 28 28 30 30 30 28 35 49 52 53 53 53 55 57 57
48 46 47 47 40 35 26 34 29 19 -6 16 17 19 13 19 21 23 28 21 25 26 18 23 28 33 30 32 32 28 28 28 28 29 29 29 25 47 52 51 50 51 52 54 57
47 46 47 42 41 36 36 32 20 12 2 13 15 12 9 16 18 25 25 29 24 25 25 19 32 32 33 33 34 33 29 28 28 28 25 27 25 24 49 49 49 49 51 51 56
47 46 47 45 24 32 36 24 10 6 14 13 11 12 9 15 16 23 24 28 28 22 22 23 22 28 35 33 34 33 29 27 25 23 22 26 22 23 45 48 49 48 49 53 56
47 46 44 43 41 39 32 19 12 12 13 12 14 13 12 13 19 22 22 24 36 34 22 21 20 23 28 34 33 32 29 27 24 21 20 19 17 17 22 43 45 49 50 54 55
46 42 40 37 38 37 24 15 13 9 11 14 13 13 13 20 21 23 23 25 31 34 32 21 19 23 25 31 34 29 29 24 15 14 12 14 12 13 15 17 38 49 52 54 55
42 41 37 36 34 26 17 16 16 11 16 16 13 16 13 21 21 23 24 25 28 33 34 31 25 20 22 28 30 30 23 23 18 13 10 12 11 10 12 12 17 44 51 54 56
40 36 36 32 23 19 14 15 12 22 21 18 19 19 13 16 22 25 23 26 33 33 34 32 31 23 20 24 25 25 22 18 19 14 10 10 11 14 12 13 12 35 46 52 54
41 31 36 33 24 20 18 18 20 24 25 22 21 20 15 26 21 22 22 31 31 33 33 33 34 31 22 19 23 27 22 16 12 11 13 14 12 20 15 15 15 20 49 51 52
39 38 37 31 26 27 26 27 22 24 24 25 20 18 18 26 23 27 29 30 32 33 36 37 34 29 22 20 18 17 26 17 14 13 11 10 11 17 16 22 26 19 30 47 50
40 33 35 35 33 31 31 29 27 25 24 22 21 20 20 20 25 23 28 29 29 28 36 39 31 30 26 24 26 17 18 21 14 13 11 12 14 17 17 19 24 18 26 36 47
38 33 38 30 32 34 34 30 29 28 26 23 20 21 19 18 19 23 23 23 26 33 36 35 26 25 26 27 29 29 22 21 16 14 13 14 16 16 17 31 29 27 31 41 50
38 35 36 35 36 33 31 28 30 33 31 26 27 24 18 19 21 24 23 24 24 29 31 31 24 25 24 31 31 27 25 25 16 16 16 17 16 18 22 37 37 39 38 43 50
41 40 38 36 34 33 30 30 30 31 36 33 31 28 24 24 26 27 28 28 27 26 27 28 25 25 25 31 29 26 30 27 18 17 17 19 18 29 37 47 45 34 39 45 50

GFSSW_sfc_30mbdewp_039.txt.gz
Dewpoint
50 50 50 51 51 51 51 51 51 52 52 52 53 53 53 53 54 51 41 37 38 47 56 58 65 60 64 64 65 61 52 50 49 51 54 58 59 61 62 60 60 61 58 60 62
50 50 51 51 51 51 51 51 51 52 52 52 52 53 53 53 51 46 42 48 50 49 60 56 56 57 62 62 63 60 50 49 51 55 55 58 60 60 60 59 60 58 59 61 60
50 50 50 50 50 50 51 51 51 52 52 52 52 53 53 53 45 34 46 49 52 60 59 55 53 47 58 59 61 60 54 54 53 55 56 57 58 60 59 59 61 57 58 59 57
50 50 50 50 50 50 51 51 51 51 52 52 52 53 53 51 13 37 59 53 56 52 45 45 45 41 50 53 55 58 58 58 56 55 56 57 57 58 59 59 61 57 58 56 56
50 51 51 51 50 50 51 51 51 51 51 52 52 53 51 35 24 33 57 55 57 45 39 40 37 39 43 46 49 55 57 56 58 57 55 53 55 58 59 61 61 58 57 55 57
51 52 52 51 51 51 51 51 51 51 52 52 52 53 48 17 25 38 49 54 50 41 34 31 35 37 38 40 48 51 53 54 53 52 52 50 56 56 59 62 60 58 56 56 58
51 51 51 51 51 51 50 50 50 52 55 52 53 51 46 26 38 43 47 50 49 39 31 31 28 34 31 37 40 42 46 43 46 49 48 49 47 50 61 61 61 58 57 58 60
51 51 50 51 51 50 49 49 51 53 53 53 55 50 43 46 46 46 41 35 47 41 31 32 28 32 31 33 30 37 39 39 43 46 48 47 44 59 61 60 60 60 59 59 60
51 51 50 50 50 50 49 48 51 54 56 56 53 50 37 45 33 32 34 34 45 43 38 30 27 25 29 29 28 27 34 40 42 45 48 46 49 59 61 60 59 60 60 60 61
50 50 50 49 49 49 48 45 46 56 54 54 52 41 34 16 18 18 29 38 39 41 35 28 25 22 25 27 31 30 33 36 37 41 47 46 47 58 60 60 59 60 60 60 60
50 49 49 48 49 49 45 19 19 14 15 13 12 20 17 18 18 17 17 30 33 33 29 26 21 18 17 26 29 31 34 37 38 40 41 46 46 57 59 59 59 60 59 59 60
50 49 48 47 48 48 39 21 23 22 14 14 14 14 15 16 16 18 19 28 34 29 29 26 21 21 22 24 27 26 26 31 35 36 36 36 44 56 58 58 59 59 59 59 59
49 49 48 47 48 37 34 26 27 22 13 14 15 15 12 16 16 23 27 22 21 33 29 28 28 26 25 23 25 25 24 27 32 34 36 37 42 46 57 58 59 60 59 60 59
49 48 47 47 31 37 26 31 33 23 12 11 16 14 12 19 17 23 27 24 20 27 30 29 30 29 25 27 25 24 26 28 29 30 29 33 38 52 55 56 57 59 59 59 59
48 47 47 48 38 28 27 35 32 18 -3 17 14 16 13 16 18 21 26 28 24 23 22 25 28 28 28 26 29 27 28 28 28 28 28 29 29 46 54 55 55 57 58 59 60
48 47 47 44 42 37 37 33 17 10 1 14 14 13 12 15 18 23 23 29 32 32 24 21 24 27 28 31 30 31 28 28 28 27 25 27 28 27 47 52 54 56 57 58 58
47 46 47 45 25 39 34 22 9 5 13 12 13 14 13 18 19 21 21 33 32 29 27 27 22 26 29 29 32 32 28 25 24 24 25 28 27 28 43 50 52 54 55 56 55
47 46 44 44 43 40 25 17 9 11 12 13 14 14 13 21 22 22 22 25 33 33 32 28 22 25 23 30 30 31 30 28 24 24 26 26 24 25 32 48 51 53 53 52 52
47 41 38 36 38 35 20 14 14 9 12 14 13 14 14 22 18 22 23 25 33 36 30 30 27 30 25 24 32 32 31 31 25 18 22 26 17 18 23 37 49 50 51 50 50
42 39 37 37 34 25 19 14 16 20 19 17 14 17 15 17 20 23 23 23 28 36 36 32 28 30 28 23 28 33 32 30 25 23 19 18 16 20 20 24 37 48 50 50 50
39 32 36 38 23 19 15 15 15 23 21 18 18 18 16 18 22 24 22 23 28 30 34 35 31 30 33 22 21 25 29 31 30 22 21 11 16 16 16 18 20 39 46 48 50
39 17 35 30 26 24 20 24 21 23 25 23 21 21 16 22 22 21 24 29 31 37 33 34 35 31 31 30 31 24 27 23 27 24 18 17 17 16 15 17 17 24 41 49 52
37 37 39 33 29 29 30 30 26 25 24 24 22 20 18 22 21 25 27 29 36 33 34 35 34 27 24 22 23 19 26 24 24 23 21 23 22 16 19 18 19 19 35 45 52
39 30 35 34 33 32 32 31 28 30 26 26 22 21 19 21 24 22 24 29 33 31 35 39 33 28 25 27 28 26 26 26 19 17 19 17 20 19 14 16 20 24 28 36 49
37 31 37 27 30 34 34 32 29 31 32 31 21 24 25 20 18 19 23 24 32 35 35 36 29 28 28 28 27 25 25 26 21 18 15 14 13 13 14 18 31 38 34 28 43
37 36 35 34 35 34 32 29 30 30 33 33 32 32 30 23 21 20 22 23 25 32 32 36 28 26 24 25 25 24 28 31 30 19 16 15 15 17 30 46 49 43 33 35 46
39 40 38 36 35 33 33 34 33 36 36 36 35 32 29 27 27 27 26 26 27 30 31 32 30 25 23 28 29 29 32 34 30 37 31 16 27 35 42 49 56 57 43 34 45

GFSSW_sfc_30mbdewp_042.txt.gz
Dewpoint
51 50 51 51 51 51 51 52 52 52 53 53 53 53 53 53 53 52 41 36 39 48 60 69 65 64 65 63 65 60 55 51 50 51 54 59 59 62 63 58 59 59 59 61 64
51 51 51 51 51 51 51 52 52 52 53 53 53 53 53 53 51 45 42 49 52 53 65 65 59 62 61 62 63 60 54 50 51 54 55 57 60 60 60 59 59 59 61 63 63
51 51 51 51 51 51 51 51 52 52 52 52 53 53 53 53 42 29 57 50 52 56 58 57 53 59 57 61 61 61 55 53 51 55 55 56 59 61 59 58 59 58 60 61 61
51 51 51 51 51 51 51 52 52 52 52 52 52 53 53 51 8 37 58 54 54 58 54 51 53 54 57 57 59 58 59 57 57 55 56 55 58 58 59 59 61 59 60 60 59
51 51 51 51 51 52 52 52 52 52 52 52 52 53 50 33 20 38 57 55 55 57 51 47 50 42 51 56 53 58 58 57 59 58 57 56 55 55 59 61 59 59 59 59 58
50 51 51 51 52 52 52 52 51 52 53 53 52 53 46 16 28 44 55 54 54 50 45 39 48 41 43 47 52 51 53 55 54 54 54 54 55 57 59 58 58 58 57 57 57
50 51 51 51 51 51 51 52 51 53 55 53 54 51 44 31 42 45 49 52 51 44 37 35 34 40 35 37 42 47 45 44 43 47 50 50 54 55 60 57 56 57 55 55 58
50 50 50 50 50 50 50 51 51 54 53 54 53 50 37 45 46 45 40 38 48 47 32 33 29 34 32 33 30 35 38 39 43 44 46 48 45 55 61 58 56 55 54 55 58
51 50 49 49 50 50 50 50 51 55 54 55 53 49 21 36 25 18 25 31 46 45 40 31 28 27 31 31 31 28 37 38 42 44 46 47 46 59 61 59 56 55 54 55 58
50 50 49 49 49 49 49 48 55 56 55 54 51 36 21 14 17 18 23 40 43 42 38 31 26 23 25 30 30 32 31 38 41 41 45 47 46 59 60 60 58 57 55 55 57
50 49 49 48 49 49 47 29 22 19 21 12 13 15 15 15 17 24 23 28 37 35 31 27 23 19 19 29 31 32 34 36 38 39 45 45 47 58 60 59 59 59 58 57 58
49 49 48 48 49 48 39 24 27 28 20 15 15 14 15 16 17 22 28 28 33 33 29 25 22 22 19 20 28 29 27 30 35 38 40 41 45 56 59 59 59 59 59 59 59
49 49 48 48 48 36 32 25 28 20 14 13 15 14 14 17 19 20 26 26 19 31 29 25 23 23 20 20 18 23 28 26 31 33 36 37 38 49 58 59 59 59 60 60 60
49 48 47 48 27 36 23 31 35 26 9 11 14 13 15 18 12 23 25 26 20 24 29 30 28 26 21 20 22 18 24 28 26 28 30 37 34 46 55 57 58 59 59 59 60
49 48 47 47 38 27 27 37 30 16 -1 16 13 16 16 14 16 17 25 28 26 26 23 28 29 28 26 20 23 19 22 26 27 28 28 29 29 35 54 56 57 58 59 59 60
48 47 47 43 40 36 38 34 17 9 0 13 14 13 15 17 21 23 25 35 35 33 30 24 23 24 29 28 24 27 27 26 28 27 25 27 28 30 50 53 56 57 59 59 59
48 47 46 45 32 36 39 19 9 3 12 12 12 14 16 18 22 22 29 33 28 10 27 31 27 22 22 25 27 28 25 25 24 24 25 30 28 30 33 53 54 55 57 59 60
48 46 42 44 41 42 22 16 7 10 11 14 14 14 15 20 22 23 20 31 35 33 31 29 20 25 24 23 27 28 28 24 22 22 23 27 27 28 31 44 54 56 56 57 58
46 39 38 37 35 32 20 12 12 10 14 15 12 14 15 19 19 20 22 29 35 34 29 28 29 31 30 28 26 29 28 28 26 23 22 22 25 26 29 33 47 52 54 56 57
41 38 36 38 34 25 21 15 16 21 20 17 12 15 14 15 19 21 20 24 34 35 35 32 28 30 31 32 28 28 31 28 28 24 22 22 21 27 25 29 36 44 50 53 55
37 27 33 38 24 20 20 16 16 23 22 18 17 15 17 16 22 23 20 26 29 33 34 34 32 28 31 30 24 25 30 30 28 27 24 19 19 26 26 27 29 35 49 50 53
37 11 32 34 26 28 24 28 27 23 25 23 21 20 19 20 21 21 22 24 36 36 32 34 33 28 29 32 34 33 27 31 29 26 25 22 24 20 22 25 27 28 44 50 52
36 36 38 33 27 28 31 30 30 25 25 24 21 21 19 19 19 24 25 30 36 35 32 34 30 27 27 26 27 27 26 27 27 31 27 27 26 24 20 19 19 22 27 44 51
38 27 32 34 33 32 31 30 30 30 30 32 25 22 19 20 25 19 24 32 36 32 34 36 32 29 24 25 28 25 26 25 25 25 29 28 28 28 25 19 20 19 20 31 47
35 32 36 28 30 34 34 31 30 30 33 33 27 31 31 25 20 20 22 24 33 33 34 32 28 31 30 31 30 28 26 26 24 24 25 24 25 26 27 26 22 22 24 23 31
36 35 35 34 35 33 33 32 32 33 34 33 34 32 33 31 29 25 21 22 23 32 33 35 27 32 28 28 27 25 25 25 26 26 24 18 20 36 24 34 50 55 57 49 38
39 40 38 35 33 32 33 34 34 36 36 37 37 35 34 33 31 28 26 26 27 29 32 32 30 28 23 25 25 24 27 34 38 40 36 22 32 45 45 56 57 58 60 60 53

GFSSW_sfc_30mbdewp_045.txt.gz
Dewpoint
52 52 52 52 52 52 52 52 53 53 53 54 54 54 53 52 52 52 38 36 41 51 63 68 64 64 63 62 64 60 55 53 49 51 54 58 59 62 61 59 58 58 58 61 65
52 52 52 52 52 52 52 53 53 53 53 53 54 53 52 52 50 45 41 49 52 57 65 62 59 60 58 61 63 60 55 52 52 51 53 58 59 61 60 58 59 59 59 63 64
51 51 51 51 51 52 52 53 53 53 53 53 53 53 52 52 42 32 47 61 53 60 62 58 57 56 55 59 60 59 54 54 51 53 55 57 59 61 58 57 59 58 60 62 63
50 51 50 51 51 52 52 53 53 53 53 53 53 53 54 50 13 30 55 60 54 59 63 51 56 53 49 53 59 57 59 57 57 54 55 56 58 57 59 58 60 60 61 62 60
50 50 51 51 51 51 52 52 52 52 53 54 53 53 50 31 19 39 57 55 55 55 53 44 50 47 42 50 54 57 58 58 58 57 56 56 55 55 57 60 60 60 61 60 59
50 51 51 51 51 51 51 52 52 52 55 55 53 53 45 15 32 43 53 53 52 54 48 46 43 46 44 52 47 49 55 56 54 54 54 54 53 55 59 60 59 60 60 59 58
51 51 51 51 50 50 51 51 51 54 55 54 54 50 39 30 40 44 47 51 51 51 45 44 44 41 40 35 45 48 48 46 47 47 50 51 50 54 59 59 59 58 59 58 58
50 50 51 50 50 50 50 50 51 54 54 54 54 50 31 41 44 35 40 46 48 50 37 38 38 42 34 34 31 33 37 35 43 47 47 47 45 53 59 59 58 58 58 58 57
51 50 50 50 50 50 50 50 52 55 55 55 51 47 13 23 19 21 22 35 46 49 37 32 33 32 33 32 29 33 20 29 34 45 47 47 45 55 58 58 57 57 56 56 56
50 50 50 49 49 50 49 49 57 56 55 54 48 30 15 13 16 20 26 44 43 38 31 29 31 26 27 25 16 24 23 35 32 43 46 46 45 57 59 57 56 56 55 55 56
50 50 49 49 49 50 45 33 23 22 23 15 14 15 13 15 18 19 27 40 38 29 20 28 21 22 21 25 22 31 33 27 38 41 44 44 45 54 59 58 56 55 55 54 55
50 50 49 49 49 47 38 26 29 29 20 17 15 15 15 16 18 15 27 32 38 32 25 23 19 19 20 20 25 23 29 31 35 38 42 43 44 47 57 58 58 56 55 54 55
50 49 48 48 48 35 31 28 32 22 16 13 15 14 14 18 19 17 25 26 29 33 31 25 23 22 21 18 18 21 20 28 29 30 36 38 39 41 55 58 59 59 57 56 55
49 49 48 48 28 35 26 33 37 28 9 13 14 14 14 17 14 19 26 27 23 26 31 31 31 24 21 19 18 14 18 23 29 30 31 38 37 40 44 55 57 58 59 58 57
49 49 48 48 37 27 29 39 29 17 -0 15 14 16 16 13 17 17 28 28 25 26 28 29 30 30 28 24 21 17 18 17 17 27 30 31 33 38 46 49 54 57 58 59 59
49 48 48 43 39 34 38 31 19 10 1 13 13 13 15 19 22 21 31 34 35 30 31 26 28 27 30 29 23 22 20 21 19 15 17 29 31 33 39 47 51 55 58 59 59
49 48 46 45 34 37 38 19 10 4 13 11 11 13 17 18 19 20 31 31 26 7 19 22 19 24 24 25 27 26 24 21 18 18 10 19 29 31 36 44 47 52 56 58 59
49 46 41 43 39 40 23 17 9 10 11 14 12 14 13 16 19 19 24 27 31 30 26 20 -4 27 31 24 24 26 24 19 16 15 8 16 26 30 34 35 46 50 53 58 59
46 38 38 37 37 32 22 14 11 12 13 14 13 11 13 18 14 16 23 30 32 32 19 23 22 29 26 30 29 24 25 24 19 25 20 12 19 29 33 34 36 45 52 56 58
41 37 35 37 33 26 24 18 16 19 19 16 11 13 11 13 14 16 17 27 31 33 32 29 6 24 29 28 28 28 25 26 24 18 16 17 16 16 27 31 35 37 46 53 56
36 24 31 37 27 23 20 21 17 22 23 18 15 13 14 14 16 17 15 25 31 33 32 29 22 8 19 23 24 25 25 26 26 25 17 14 17 23 23 33 34 36 40 48 54
37 10 34 35 29 29 26 29 30 23 25 22 21 17 16 18 19 18 16 16 30 32 28 31 31 22 12 14 22 25 30 26 25 27 27 24 18 26 27 29 32 33 36 40 50
36 35 36 34 28 29 31 30 30 27 27 26 22 22 21 18 16 20 22 27 34 29 30 33 28 14 -0 7 20 23 25 29 26 27 28 25 23 27 30 30 32 34 35 44 49
37 27 32 33 34 32 30 30 29 30 31 32 28 24 20 19 24 19 22 32 34 30 35 33 30 20 8 8 25 27 27 28 27 24 28 28 26 26 30 28 28 30 31 33 45
36 34 35 32 31 32 32 30 30 29 33 33 32 30 30 26 22 21 22 23 33 32 35 32 25 24 25 23 23 24 25 26 26 26 27 30 31 31 31 32 33 33 31 34 34
37 36 36 34 35 33 33 32 31 33 34 33 32 33 35 32 27 24 24 24 22 29 31 33 24 25 23 18 22 26 26 26 26 26 25 27 29 38 39 38 34 38 49 50 50
40 40 38 35 34 33 33 34 34 36 37 36 36 32 32 34 37 36 33 31 27 26 28 31 29 25 16 17 25 24 24 25 26 28 26 24 28 43 45 52 55 56 57 57 58

GFSSW_sfc_30mbdewp_048.txt.gz
Dewpoint
52 52 52 52 53 53 53 54 54 54 54 54 54 54 53 52 52 50 33 37 39 45 61 61 61 60 59 61 61 62 54 51 48 50 54 57 58 61 62 59 58 58 57 60 64
52 51 51 51 52 52 53 53 54 54 54 54 54 53 52 52 47 39 36 47 52 53 60 58 57 56 53 55 58 57 50 47 50 50 51 56 58 58 58 57 57 57 59 63 63
51 51 51 51 51 52 53 53 53 54 54 54 54 53 53 51 39 36 52 59 59 56 54 53 51 52 45 52 54 54 50 51 50 50 54 58 59 59 56 56 57 57 61 62 63
51 51 51 51 51 52 52 53 53 53 53 54 54 53 54 47 18 29 57 60 63 54 52 49 48 44 41 46 51 49 53 53 52 53 54 54 56 55 56 56 58 58 61 62 60
51 51 51 51 51 51 52 52 52 52 53 55 54 53 50 31 17 35 54 60 51 52 51 46 44 41 37 38 43 47 51 55 55 54 53 55 54 55 56 58 58 58 60 60 59
51 52 52 52 51 51 51 52 52 52 55 56 53 54 41 16 33 35 48 49 45 50 49 42 41 37 34 34 36 38 43 54 54 53 53 53 52 52 54 58 58 59 59 59 58
52 51 51 51 50 51 51 51 51 54 55 54 54 49 25 21 29 31 39 46 46 45 44 38 37 36 30 32 37 37 42 42 48 51 51 51 48 49 57 58 58 59 59 58 57
51 51 51 51 50 50 51 51 52 54 54 54 55 48 22 25 29 22 32 45 47 47 41 41 38 35 30 30 25 28 28 33 40 45 48 49 44 51 57 57 58 58 58 58 57
51 51 50 50 50 51 51 51 55 55 56 55 48 40 15 24 17 22 24 40 42 43 38 40 36 34 34 24 17 19 17 25 35 44 46 47 43 53 56 56 57 58 58 57 57
51 51 50 50 50 50 49 51 57 55 52 49 42 26 14 15 16 23 35 41 40 42 30 28 30 26 26 20 13 13 16 21 27 41 46 45 44 53 55 55 56 57 58 57 56
51 50 50 50 50 50 45 36 35 21 17 15 15 14 12 17 17 26 34 39 38 40 29 23 23 20 18 19 16 21 21 20 30 37 45 45 44 48 54 54 55 56 57 56 56
50 50 50 49 49 46 38 25 29 29 17 15 15 14 14 17 15 19 32 35 30 29 27 22 18 18 21 18 20 17 25 28 29 34 41 43 43 44 53 54 55 55 56 56 55
50 50 50 49 48 38 27 28 34 31 17 12 15 13 12 16 14 13 24 28 33 25 22 20 19 17 17 19 18 18 15 18 27 33 34 41 41 42 46 54 55 55 55 55 54
51 50 49 48 35 30 25 32 35 33 11 13 14 13 12 16 13 15 22 25 25 29 28 21 20 22 18 18 16 13 14 15 17 26 29 36 35 40 42 50 53 55 55 54 55
50 50 49 48 37 26 32 35 29 22 -4 14 13 14 14 11 13 14 24 20 20 22 29 26 26 25 24 22 18 17 15 13 13 14 26 32 35 36 40 42 50 52 54 54 55
50 49 48 44 38 33 35 32 22 11 -1 11 12 12 12 14 16 14 21 25 27 17 25 25 29 27 26 26 25 23 20 17 16 12 7 23 31 33 36 40 43 49 52 54 56
49 48 45 41 32 35 36 22 10 1 11 11 10 11 12 13 14 13 19 17 13 5 10 17 21 26 27 26 27 24 21 17 15 11 5 11 20 31 34 37 42 44 49 53 55
48 46 42 38 35 35 31 17 8 8 10 13 11 11 11 13 14 13 16 14 21 18 8 5 4 16 27 25 24 25 22 20 16 9 6 7 10 19 31 36 38 45 46 51 54
47 36 33 33 35 35 24 11 6 12 12 12 12 11 12 14 13 13 15 16 21 20 10 9 5 24 24 28 28 24 23 22 20 19 14 7 8 9 22 31 35 38 43 46 52
39 33 28 34 32 29 20 13 16 17 17 15 14 14 12 12 14 14 11 21 21 22 19 19 4 9 18 20 24 28 24 22 21 19 17 17 15 8 17 29 32 34 37 44 50
34 27 29 34 29 25 20 21 22 20 21 18 17 16 15 14 15 14 13 19 23 24 23 18 13 8 9 0 7 20 23 25 23 21 19 18 16 18 16 19 31 33 35 39 48
33 15 31 35 28 28 25 28 28 23 22 21 21 19 17 17 16 17 16 14 24 24 18 22 18 17 8 2 7 13 24 23 21 22 22 22 20 19 22 22 22 29 34 37 43
33 28 33 33 28 28 30 28 29 26 25 26 23 22 21 19 18 17 17 16 24 22 19 24 18 13 0 0 6 8 11 22 26 26 24 23 23 26 26 28 26 24 27 36 40
34 29 32 33 34 32 30 28 27 28 28 30 29 27 24 22 19 19 18 22 25 22 30 24 15 15 4 1 8 17 19 19 23 23 23 24 25 28 27 26 29 31 33 30 33
35 33 34 31 31 31 30 30 29 29 29 28 28 29 30 28 24 20 22 22 25 25 29 27 26 18 16 15 14 11 7 16 24 27 26 24 24 26 30 29 29 31 32 34 35
36 36 35 33 34 31 31 30 30 33 34 30 30 30 34 33 29 26 28 25 23 27 26 27 25 20 16 16 15 11 7 6 14 21 25 27 27 30 30 33 31 30 32 36 42
40 40 39 35 33 33 33 35 35 35 35 35 35 35 33 35 37 38 34 35 36 29 28 28 27 22 15 11 8 6 8 12 10 18 24 25 27 30 34 37 37 38 39 45 49

GFSSW_sfc_30mbdewp_051.txt.gz
Dewpoint
52 52 52 52 52 53 54 54 54 55 55 55 55 55 53 53 53 49 32 38 40 45 55 55 53 55 56 54 56 58 52 51 49 51 54 57 59 60 63 59 58 59 58 61 62
52 52 52 52 52 53 53 54 54 54 55 55 55 55 53 53 47 35 42 49 53 52 56 50 51 53 52 52 54 55 48 49 51 49 56 55 56 57 57 56 56 57 59 61 61
51 51 52 51 51 52 53 53 54 54 54 54 55 55 54 52 40 36 55 57 58 54 54 51 50 50 47 46 49 50 47 48 49 49 53 55 56 57 56 54 55 56 60 61 62
51 51 52 51 51 52 53 53 53 53 53 54 55 54 54 49 27 36 52 57 61 50 55 50 46 45 41 40 46 46 47 46 52 51 54 58 60 55 55 60 55 58 61 61 61
52 52 52 52 51 52 52 53 53 53 53 55 55 54 52 37 20 32 47 59 56 45 52 47 42 42 36 35 41 44 45 51 53 52 52 55 56 55 55 56 57 59 61 60 59
52 52 52 52 52 52 52 52 52 52 54 56 55 54 49 23 27 29 44 51 46 38 47 44 40 40 35 33 35 37 41 49 53 53 53 51 53 54 56 55 57 59 60 59 58
52 52 52 52 51 51 51 51 52 53 55 56 54 52 33 21 25 27 40 40 37 39 44 43 39 37 33 30 29 33 36 38 51 51 55 53 52 53 54 56 56 58 59 58 57
51 52 52 51 51 51 51 51 54 54 54 55 56 51 23 21 24 21 31 41 42 44 45 39 37 35 33 27 25 29 32 37 44 48 49 50 46 48 54 55 56 57 57 57 57
51 51 52 52 51 51 51 51 55 55 55 56 54 45 18 21 17 20 24 39 43 43 41 39 37 33 31 25 23 16 22 28 31 45 46 46 47 55 54 54 55 57 57 56 56
51 51 51 51 51 50 49 50 54 55 54 47 40 28 14 15 16 23 27 35 38 41 36 36 34 30 28 25 14 8 15 20 26 39 43 44 51 58 51 53 55 56 56 56 56
51 51 51 51 50 50 44 39 40 36 26 15 14 13 13 16 17 26 37 36 38 37 27 30 28 23 25 26 20 13 9 16 22 33 42 44 48 59 50 51 54 56 56 55 56
51 51 51 51 50 49 43 23 25 27 20 13 13 12 13 16 13 23 33 32 30 33 31 22 19 22 21 19 18 15 14 18 20 30 42 44 45 47 49 50 53 54 56 55 55
51 51 51 50 49 40 25 25 29 29 20 12 12 11 11 13 13 12 23 29 28 28 30 24 19 19 19 19 18 17 15 17 25 29 35 42 43 43 50 49 52 53 54 55 54
51 51 50 49 39 24 25 28 28 27 16 11 11 11 10 12 11 13 17 24 24 26 19 20 20 19 18 16 18 17 17 14 17 28 30 36 36 43 46 48 50 52 52 54 54
50 50 49 49 39 25 28 28 25 25 0 12 11 13 11 10 13 11 15 18 18 19 26 22 18 16 18 17 18 18 17 13 11 14 22 29 33 38 43 49 47 50 52 52 54
49 48 48 42 38 29 29 28 22 11 -1 9 10 10 10 11 12 11 12 14 19 19 21 23 25 21 18 19 20 20 18 17 13 10 9 21 30 32 39 41 46 47 51 52 53
48 48 46 39 30 30 30 25 12 -1 11 10 8 9 9 11 12 10 14 11 7 4 3 11 16 25 25 22 22 22 20 17 16 11 7 9 23 30 33 42 42 44 48 51 52
47 47 38 31 29 30 29 20 9 6 6 11 8 9 7 11 11 11 10 10 15 14 9 2 4 10 19 21 21 22 20 16 16 14 9 6 10 21 31 35 46 51 49 49 52
47 35 30 27 30 30 26 14 8 10 11 8 7 8 6 12 13 13 12 10 14 14 8 1 3 17 21 20 21 22 22 20 15 16 15 10 6 7 19 27 34 39 44 49 50
42 29 26 28 28 27 22 15 13 16 15 14 12 13 12 12 13 14 13 16 17 18 17 13 13 10 13 21 21 24 26 21 19 15 16 17 13 7 8 17 25 35 39 44 49
42 28 29 32 30 25 21 22 23 22 21 20 18 18 17 15 15 14 15 16 18 18 16 11 14 5 6 12 8 7 15 22 23 18 14 17 17 17 12 12 17 26 34 40 43
34 24 33 34 29 26 26 28 28 24 23 22 22 21 20 19 18 17 16 17 18 20 16 11 11 7 5 4 -3 -2 7 8 17 22 20 16 17 20 19 16 17 24 31 34 39
33 30 34 34 28 27 29 26 27 26 26 26 25 24 23 21 21 22 20 20 20 19 17 18 16 9 11 10 7 2 4 15 17 15 20 18 17 21 22 23 25 22 23 32 36
34 30 32 31 31 28 28 26 25 27 26 27 26 26 26 25 23 22 20 20 18 21 27 22 18 15 9 11 10 7 1 4 13 16 17 20 22 20 26 27 28 28 24 28 35
35 32 34 29 29 29 29 28 26 27 28 28 26 27 27 27 25 26 24 23 23 23 25 22 17 18 16 14 13 10 11 11 11 14 14 18 22 27 28 31 30 29 31 31 29
34 35 32 31 32 29 29 30 29 31 32 28 30 30 30 30 29 29 33 34 26 23 23 23 22 23 22 16 13 9 10 10 7 5 16 22 24 27 29 31 32 33 31 33 35
38 39 35 33 30 30 31 32 32 32 32 31 31 32 32 32 31 31 30 30 37 32 30 26 23 23 21 18 13 11 11 9 8 6 4 7 18 23 26 28 31 33 33 32 34

GFSSW_sfc_30mbdewp_054.txt.gz
Dewpoint
53 53 53 52 52 53 54 54 55 55 55 55 56 56 55 54 54 50 32 39 40 47 45 43 50 53 56 56 56 53 54 52 53 52 58 62 60 59 59 61 60 60 60 60 60
52 52 52 52 52 52 53 54 54 55 55 55 55 55 55 54 49 40 47 44 48 50 37 48 47 51 52 52 52 52 52 50 53 54 56 60 57 58 58 57 58 58 60 60 59
51 51 52 52 52 52 53 54 54 54 54 54 55 55 55 53 46 36 48 50 49 54 45 49 46 49 47 49 48 48 49 48 51 53 57 57 55 55 55 54 56 59 60 60 58
51 51 52 51 52 52 53 53 53 54 54 54 55 56 54 49 34 39 51 57 60 48 45 52 45 45 45 44 45 44 46 47 48 53 55 58 62 58 59 62 62 60 60 60 58
52 52 52 52 52 52 53 53 53 53 53 54 56 55 52 41 35 37 52 59 53 42 43 51 46 44 41 40 40 40 43 45 50 54 54 60 59 60 60 61 60 60 60 60 58
52 53 53 53 53 52 52 53 52 54 54 56 57 54 46 38 24 25 34 50 42 34 41 51 45 42 39 37 32 38 40 42 48 51 53 55 58 60 58 60 58 59 60 60 58
52 52 53 53 52 52 52 52 52 55 56 56 56 51 47 35 22 23 32 41 41 34 37 48 44 39 38 33 32 30 34 34 39 51 51 52 50 52 59 60 58 58 59 59 58
52 52 52 53 52 52 52 52 52 56 55 55 55 50 43 20 21 19 28 38 39 36 33 43 42 37 35 33 26 25 28 30 35 49 51 51 46 49 59 63 57 58 58 58 58
52 52 52 52 52 52 51 51 50 56 56 55 53 47 36 20 18 18 21 34 36 35 41 43 38 35 31 32 25 22 20 28 31 42 48 49 48 57 62 63 57 57 56 57 58
52 52 52 52 52 51 50 49 48 54 54 48 43 34 24 12 15 19 22 35 36 38 39 40 35 31 30 27 23 18 15 20 25 30 42 44 49 58 59 60 55 56 56 56 56
52 52 52 52 51 51 47 35 39 42 37 28 23 21 14 15 15 23 29 28 35 38 34 36 33 30 28 25 25 19 15 9 17 24 41 44 51 51 52 53 55 55 55 55 56
52 51 51 51 50 50 45 30 24 24 22 20 11 11 11 13 11 23 32 31 33 35 30 27 29 30 22 25 24 24 20 13 11 19 33 50 52 53 48 56 57 54 54 54 55
52 51 51 50 49 43 30 24 25 25 19 12 11 6 9 11 9 12 20 29 29 27 30 24 21 23 23 20 21 19 18 14 14 19 27 31 49 51 50 52 59 52 53 54 54
51 50 50 49 40 30 23 25 26 24 18 13 9 9 9 8 9 12 12 21 22 24 23 27 26 20 17 19 19 17 17 16 14 16 22 30 31 50 54 55 57 55 53 53 54
49 49 49 49 39 31 27 24 24 23 10 12 10 12 9 7 13 11 12 14 15 19 22 21 22 23 19 17 17 16 18 17 16 13 18 27 29 32 52 54 54 59 53 53 54
49 48 48 38 41 33 23 25 22 14 4 10 11 8 6 7 9 11 10 11 15 13 15 16 21 17 17 17 18 17 16 18 17 12 9 14 22 26 38 49 50 55 57 55 53
48 48 47 38 33 29 23 24 15 7 10 11 7 7 7 9 10 8 8 10 5 7 7 14 17 23 24 17 16 17 16 15 15 13 9 8 9 18 29 47 53 52 54 56 54
48 47 42 33 27 24 24 22 13 9 7 9 5 5 4 5 8 8 8 9 10 7 8 6 -2 8 22 24 19 18 18 16 13 13 13 13 8 10 16 34 50 52 56 58 53
48 41 38 30 25 24 23 18 12 12 11 8 6 4 0 3 8 10 10 8 6 11 8 5 5 9 6 19 21 21 19 19 16 15 14 13 12 13 12 21 40 49 52 57 56
44 39 26 28 24 24 21 17 15 18 17 15 10 9 11 9 11 11 10 11 10 17 18 15 12 11 13 17 17 17 20 20 18 16 16 14 15 13 11 17 31 46 46 52 57
45 33 31 32 30 26 21 25 24 24 22 20 19 18 18 16 15 14 13 15 16 17 18 15 11 6 10 12 12 14 15 20 24 22 17 16 16 20 23 16 22 45 49 45 53
39 28 33 33 30 28 28 28 27 25 25 23 23 22 20 21 20 20 19 17 19 17 17 17 10 9 9 8 10 11 9 3 7 22 24 20 16 19 25 18 15 16 26 50 54
38 31 33 33 29 28 28 25 25 25 25 24 24 25 25 23 23 21 21 21 21 20 21 20 15 12 11 9 6 4 -1 -1 1 3 12 20 20 20 21 26 19 18 19 32 56
40 31 31 29 28 26 27 25 24 25 26 26 25 24 24 24 25 26 26 24 24 19 28 22 19 18 13 10 15 11 9 4 0 8 10 8 19 24 29 35 38 36 36 29 34
34 30 33 29 29 27 29 27 28 28 28 27 25 27 28 25 25 22 22 29 31 26 21 21 18 18 18 17 16 15 13 10 4 3 10 13 13 20 31 33 38 39 38 39 35
36 35 30 30 29 27 28 27 27 27 28 26 26 26 26 25 25 24 25 27 29 30 28 22 19 21 20 20 18 17 13 11 10 4 1 8 13 17 23 29 33 35 36 36 38
37 38 33 30 29 28 29 30 29 31 32 29 29 29 28 28 28 27 26 27 28 27 31 27 25 23 21 19 19 17 17 12 10 12 11 9 12 15 16 21 26 30 31 32 37

GFSSW_sfc_30mbdewp_057.txt.gz
Dewpoint
52 52 52 52 52 52 54 54 55 55 55 56 56 56 56 56 55 52 39 34 33 45 44 44 47 50 62 62 63 60 52 52 53 52 58 62 60 60 60 62 62 61 60 60 59
52 51 52 52 52 52 53 54 54 55 55 55 55 56 56 55 50 45 44 51 53 50 28 40 45 48 52 55 56 55 50 51 52 54 58 59 60 56 59 60 60 60 61 60 59
51 51 52 52 52 52 53 54 54 54 54 55 55 56 56 54 48 42 47 51 51 47 28 37 44 46 50 52 52 50 50 50 51 54 58 59 62 58 58 58 59 60 59 59 59
51 51 52 52 52 53 53 53 54 53 54 54 54 56 55 51 37 41 51 48 50 44 34 41 48 43 48 47 49 48 47 48 49 58 62 62 64 59 59 61 64 62 60 59 58
51 52 53 53 53 53 53 53 53 53 54 54 55 56 52 44 37 44 54 59 57 46 34 40 49 46 45 45 44 45 44 44 49 57 62 63 60 59 58 61 64 62 60 58 57
51 53 53 53 53 53 53 53 53 53 56 56 57 56 46 42 26 43 55 56 46 42 35 40 50 48 44 43 41 41 40 39 41 56 61 58 59 60 60 59 62 61 59 58 57
52 53 53 53 52 52 53 53 52 52 57 55 57 52 47 45 27 23 27 52 46 39 31 40 49 50 42 39 38 34 30 30 35 47 55 58 56 57 61 61 61 59 58 58 57
52 52 53 52 52 53 52 52 51 52 56 55 56 51 47 43 21 21 20 32 46 39 31 38 46 48 41 37 35 30 25 25 31 41 50 52 52 60 63 62 59 59 59 59 57
53 52 53 53 52 52 51 51 51 52 56 56 54 50 42 19 19 19 20 29 41 40 33 30 36 41 38 32 32 32 23 22 25 31 49 51 55 62 64 62 59 59 59 59 58
52 52 52 52 52 51 51 47 47 48 53 51 47 41 39 23 15 19 20 21 34 33 32 31 39 37 35 30 28 30 23 21 20 28 48 51 57 60 60 60 60 58 59 58 58
52 52 52 51 51 50 48 36 40 39 36 37 36 32 21 14 14 17 23 24 35 36 36 39 38 34 31 31 29 27 26 22 18 20 41 50 58 60 58 59 60 61 59 58 57
52 51 51 50 50 49 48 33 23 23 21 25 30 25 11 11 11 22 30 22 33 33 36 34 34 36 33 31 29 25 24 24 24 18 21 49 54 55 59 57 61 61 58 57 57
51 51 50 49 49 46 31 30 25 25 22 20 15 14 7 9 9 19 27 30 31 31 35 30 30 33 31 30 23 23 24 23 22 19 35 49 50 51 54 57 60 62 59 58 56
50 50 50 49 39 34 32 28 24 24 18 17 11 8 9 8 6 12 12 15 22 28 28 28 30 26 27 26 24 20 22 20 17 16 17 47 43 50 51 55 59 58 59 58 57
50 50 49 49 41 32 31 23 24 22 14 12 9 12 8 7 11 10 12 11 13 16 20 23 23 26 26 22 19 19 21 19 19 16 16 15 16 44 52 54 54 55 55 55 58
50 49 49 44 46 37 34 26 25 17 13 10 11 9 7 7 7 12 12 13 12 12 13 14 17 21 25 24 22 19 17 17 17 18 16 15 14 20 50 52 54 51 52 54 57
50 49 48 42 35 34 25 23 20 13 12 8 7 6 6 6 7 9 8 10 8 6 7 14 16 19 19 21 17 17 17 15 14 15 16 16 12 11 49 53 54 52 54 56 60
49 48 45 42 35 30 25 23 18 14 10 8 6 5 4 9 8 10 8 7 11 7 5 6 6 4 14 21 23 19 16 16 13 16 16 17 14 13 13 53 54 53 56 60 59
48 44 40 39 39 25 23 21 17 15 16 13 7 4 3 2 6 9 10 10 10 18 12 13 10 16 14 17 24 23 21 17 16 17 17 17 17 18 16 39 52 52 55 55 56
46 43 38 30 25 24 23 20 21 22 20 19 16 14 15 15 9 11 10 11 15 19 19 17 12 14 12 13 22 22 23 18 18 15 16 18 18 20 20 16 49 52 53 59 60
46 40 33 34 31 28 25 27 26 24 24 21 20 20 20 20 21 20 20 20 20 18 19 19 15 12 12 11 12 17 17 18 20 22 21 16 17 22 26 32 46 51 52 58 56
44 36 33 34 31 32 29 26 26 25 25 24 24 23 25 24 22 21 21 21 22 21 20 20 18 13 12 13 13 12 12 14 13 16 22 24 25 28 33 38 43 50 50 58 59
43 37 32 33 28 28 27 25 25 24 25 25 24 24 25 24 23 25 25 26 26 22 26 22 20 16 12 8 14 15 12 6 7 5 4 9 19 31 31 33 38 41 45 54 59
43 33 33 32 30 29 28 27 27 27 27 26 26 28 27 25 25 25 25 26 30 28 27 23 19 18 17 19 19 18 17 16 13 2 2 6 11 11 26 29 31 39 38 47 59
42 30 32 29 29 29 28 27 24 25 27 27 26 25 25 24 24 23 25 27 29 30 29 25 20 20 20 19 18 18 17 16 15 14 11 9 10 25 23 24 29 30 31 34 41
36 37 35 30 30 28 29 29 27 29 30 27 28 29 28 25 27 26 26 25 25 27 28 29 26 21 20 20 20 19 20 20 19 16 12 13 10 12 16 16 18 17 19 22 25
41 39 37 30 29 28 29 29 29 31 31 30 31 32 29 29 31 29 29 27 25 24 28 30 31 29 24 24 23 22 19 20 20 20 14 11 14 16 18 20 19 21 25 26 24

GFSSW_sfc_30mbdewp_060.txt.gz
Dewpoint
52 52 52 52 53 53 53 54 55 55 55 55 56 56 56 57 55 53 36 26 31 65 53 56 56 49 61 63 63 61 56 52 51 52 56 63 61 62 63 61 60 61 58 59 62
51 51 52 53 53 53 53 54 54 55 54 55 55 55 56 56 51 43 44 46 44 56 32 42 43 47 50 60 61 59 55 54 52 57 59 61 61 58 60 60 60 61 59 59 61
51 52 53 53 53 53 54 54 54 54 54 54 55 55 57 55 48 44 49 56 58 49 30 34 42 47 48 50 56 54 54 54 53 58 57 56 58 62 58 58 60 59 57 58 59
51 52 53 53 53 53 54 54 53 53 54 55 55 56 56 52 33 42 55 57 60 45 31 29 35 45 45 48 52 51 51 50 51 59 59 59 62 60 60 60 63 60 59 58 59
52 53 53 53 53 53 53 53 53 53 53 56 55 57 52 44 26 45 59 58 58 43 32 32 42 47 43 47 50 47 48 50 50 61 59 57 57 58 59 64 64 62 59 58 58
52 53 53 53 53 53 53 53 53 52 53 57 57 57 46 35 44 50 55 57 46 41 37 32 44 49 47 44 45 45 43 41 60 60 61 59 60 60 59 63 63 61 59 59 58
52 53 53 53 53 52 52 52 52 52 52 57 57 54 47 33 40 51 55 48 46 42 33 33 38 43 50 45 44 43 38 32 48 61 60 59 58 58 59 62 63 61 58 58 58
52 52 53 52 52 52 52 52 51 52 53 57 57 53 40 49 47 39 53 51 46 43 34 32 36 42 47 48 40 33 31 26 39 59 59 54 52 60 60 62 61 60 58 57 58
53 52 52 52 52 52 51 51 50 52 54 56 53 51 40 42 24 19 21 22 47 40 37 30 31 35 40 38 32 32 31 29 24 39 58 55 57 60 62 62 60 59 58 57 58
52 52 52 52 51 51 50 49 49 51 55 54 51 44 38 28 18 17 19 32 42 40 36 32 29 30 35 35 31 30 30 26 23 22 50 54 56 61 62 61 59 58 58 57 58
52 52 51 51 51 50 49 38 33 36 42 33 36 32 25 26 14 15 23 21 34 33 32 33 33 34 37 35 32 30 28 26 27 27 25 52 58 60 62 61 59 59 58 57 59
52 51 51 50 50 50 49 28 28 23 21 27 32 34 32 27 11 14 22 23 33 32 34 35 36 38 37 33 31 30 29 26 26 26 29 55 57 60 60 60 60 59 59 58 58
51 51 51 50 49 46 35 30 31 29 22 22 22 19 23 10 8 14 26 25 32 32 33 34 34 35 36 35 31 30 29 27 25 26 52 55 54 57 58 58 61 61 61 61 58
51 51 50 49 39 36 30 31 30 26 17 17 17 13 9 8 5 13 15 17 23 30 31 34 35 32 31 32 30 28 27 24 24 19 20 48 44 53 57 57 60 56 59 60 60
51 51 50 49 41 30 28 34 33 23 13 15 10 12 9 6 10 11 12 10 14 17 18 25 25 29 29 27 28 27 26 22 20 18 17 25 18 44 55 55 59 53 54 57 59
51 50 49 46 45 39 38 35 24 17 12 9 10 8 7 7 8 12 12 12 12 10 13 13 16 17 21 26 28 26 21 18 19 18 14 17 15 46 51 54 58 59 60 60 58
50 49 48 46 28 36 33 25 20 13 15 9 9 8 7 6 6 10 9 10 7 6 4 8 11 13 17 17 20 20 17 15 14 13 13 18 16 14 50 51 57 58 59 59 57
49 48 47 43 38 39 30 23 18 16 17 16 7 6 5 7 9 9 8 7 11 10 5 4 5 9 13 17 21 20 16 15 13 13 16 18 15 15 33 51 54 57 57 55 55
48 44 42 39 41 37 23 20 20 19 20 20 14 11 18 18 9 9 11 16 18 18 12 13 10 16 14 12 16 22 20 19 16 18 15 17 19 22 33 31 54 53 53 54 55
45 44 40 40 38 27 23 29 22 24 23 21 19 20 20 21 20 20 16 21 18 20 19 17 11 14 14 13 18 21 23 19 19 14 13 17 19 19 34 41 47 53 52 53 59
45 39 34 35 32 29 28 27 25 26 25 23 23 24 24 23 22 21 21 22 22 20 22 20 15 14 12 12 12 11 13 19 20 22 19 17 18 32 36 39 42 52 53 55 59
44 31 33 35 31 33 24 24 26 26 27 25 25 25 25 24 24 24 24 25 26 25 23 22 18 15 14 18 17 13 18 16 15 15 21 24 22 32 36 36 34 40 53 58 59
42 42 35 32 27 28 27 27 26 26 26 26 26 26 26 25 23 25 26 30 28 27 26 22 20 14 9 12 20 19 19 18 15 9 5 4 8 27 33 34 32 34 53 58 60
42 29 32 31 31 28 26 26 26 28 28 27 26 26 25 24 25 24 25 26 28 32 33 24 19 18 16 19 19 18 19 20 17 11 12 8 10 18 18 19 22 30 44 60 62
39 30 32 29 29 29 28 29 28 29 30 31 30 29 27 24 25 27 27 26 26 31 29 27 19 22 21 20 20 19 19 20 19 19 16 14 13 13 17 17 18 23 26 47 56
35 35 34 30 30 29 29 29 29 30 30 30 31 30 29 29 30 29 28 27 25 26 26 31 28 28 24 24 24 23 24 23 20 20 20 19 15 18 22 23 24 25 27 37 41
43 43 35 31 31 30 29 30 30 31 31 32 32 31 30 32 33 32 31 30 28 26 24 27 28 28 24 27 25 19 21 23 22 23 22 21 22 22 26 26 26 38 40 41 41

GFSSW_sfc_30mbdewp_063.txt.gz
Dewpoint
52 52 52 53 54 54 54 54 54 55 55 55 55 55 56 57 56 54 36 23 30 61 65 64 60 53 63 63 63 62 56 52 51 53 57 61 61 63 64 60 56 62 57 62 64
51 52 53 53 53 54 54 54 54 54 54 54 54 55 55 57 51 44 42 45 49 59 54 50 45 48 55 61 61 60 56 54 54 57 57 61 61 61 60 59 59 56 60 63 66
52 53 53 53 53 53 54 54 54 54 54 54 55 55 56 56 47 40 50 50 51 62 34 41 44 47 49 51 60 57 55 55 54 57 60 60 60 60 58 58 60 56 60 62 65
52 53 53 53 53 53 53 54 54 53 53 54 56 55 57 52 20 43 55 55 57 49 30 33 42 47 46 50 51 52 53 54 51 58 57 56 60 60 60 59 61 57 61 62 63
52 53 53 53 53 53 53 53 53 53 53 54 56 57 51 42 25 50 54 62 60 39 32 30 40 44 46 48 49 50 50 49 49 53 56 57 56 59 60 64 62 58 60 61 61
52 52 53 53 53 53 53 52 52 52 53 54 57 57 45 19 40 58 53 59 50 38 33 36 39 45 46 44 46 47 47 46 49 56 57 56 59 59 61 64 62 58 58 59 60
52 52 52 52 52 52 52 52 52 52 52 54 57 53 46 20 45 56 52 52 45 37 33 31 41 45 48 48 47 45 44 41 56 58 57 59 58 57 62 63 62 59 58 58 59
52 52 52 52 51 51 52 52 51 52 52 55 57 52 38 46 48 51 53 48 46 41 33 34 36 40 44 47 41 34 31 29 56 58 60 58 49 59 62 62 61 60 58 58 57
52 52 51 51 52 52 51 51 51 53 53 56 53 50 38 44 43 41 51 42 45 44 38 31 32 36 37 38 35 32 31 31 43 60 59 57 53 59 62 62 61 60 58 58 57
52 52 52 52 51 51 51 50 52 54 55 54 51 44 37 30 21 19 43 40 44 39 36 33 29 29 35 34 34 31 31 29 27 54 56 56 55 59 60 61 61 60 58 57 57
52 52 52 51 51 51 49 40 32 33 47 31 28 33 31 31 16 19 20 38 37 37 35 31 28 31 31 36 36 32 30 28 29 29 26 49 52 59 60 61 60 60 59 57 57
52 52 52 51 51 50 48 27 28 25 24 29 35 36 34 33 23 14 21 23 34 31 32 35 31 34 38 36 33 31 30 29 28 27 30 36 51 59 61 60 60 59 59 57 57
52 52 51 51 50 46 33 28 32 31 23 22 25 25 21 29 16 11 21 25 31 31 33 33 35 37 37 37 34 31 30 29 28 28 51 55 54 58 60 60 60 60 59 59 57
52 52 51 50 36 37 30 31 35 28 17 15 19 17 16 11 6 11 25 21 25 31 32 33 34 35 34 33 34 32 32 31 28 22 17 50 42 54 57 57 59 60 60 59 57
52 51 50 49 42 34 30 36 32 22 12 17 14 11 8 6 10 11 12 12 19 18 28 30 27 34 33 30 31 29 31 28 26 20 17 25 35 40 57 55 56 60 61 61 60
51 50 49 46 44 38 38 31 23 16 10 9 10 8 7 7 9 12 12 12 12 10 13 12 14 17 22 27 29 29 26 21 20 18 15 16 20 35 53 53 55 58 60 60 60
50 50 48 46 26 36 34 25 17 14 17 15 9 8 6 6 8 11 9 10 7 6 5 8 11 14 17 16 19 23 19 18 14 14 14 18 16 16 46 54 54 56 59 56 58
50 48 48 45 40 39 28 22 17 19 19 20 12 9 13 8 7 10 11 13 17 12 6 4 4 8 14 14 18 19 19 16 13 13 14 18 14 24 38 43 54 56 56 58 57
48 44 41 40 43 34 25 21 22 22 23 21 20 20 21 21 15 13 19 21 20 19 10 13 10 15 14 13 15 20 20 18 16 18 14 17 19 24 39 41 43 54 58 58 59
45 43 36 40 37 28 29 25 23 26 25 24 21 23 21 21 20 20 20 23 22 22 19 17 12 14 14 15 13 15 22 19 17 13 13 16 21 32 34 34 40 51 56 58 59
44 33 33 35 33 29 26 24 25 27 26 24 24 24 24 23 24 22 25 24 27 23 22 21 15 12 12 15 13 17 17 17 21 19 14 14 26 33 34 32 34 47 53 56 55
43 29 35 33 28 28 25 26 27 26 27 27 27 26 24 24 25 26 27 28 30 25 24 22 18 14 15 19 19 19 19 17 15 17 20 22 25 24 31 28 30 55 53 54 55
40 39 35 31 25 26 26 26 28 28 27 25 25 26 26 24 24 26 27 26 32 32 32 23 19 13 12 14 19 19 20 19 16 11 12 9 14 19 19 21 27 50 59 62 61
35 29 31 31 30 27 26 28 27 30 30 30 29 27 25 25 26 25 25 26 29 32 36 25 20 18 16 18 19 18 20 20 18 17 17 12 15 15 18 21 23 32 44 57 60
35 31 33 29 29 29 29 29 29 29 30 31 29 29 27 27 27 28 28 27 26 29 30 26 24 26 22 22 23 22 23 22 19 19 18 17 18 17 20 21 29 37 41 44 47
36 34 32 30 30 29 30 29 29 30 29 30 30 30 30 29 30 29 29 27 26 27 25 29 27 27 24 27 25 22 22 21 21 19 20 20 20 22 28 28 37 38 37 37 39
43 43 32 31 31 30 30 30 30 30 32 33 32 31 31 32 33 33 32 31 29 28 25 27 27 25 21 28 23 15 23 23 23 23 22 21 26 34 32 33 37 37 37 37 37

GFSSW_sfc_30mbdewp_066.txt.gz
Dewpoint
52 53 54 54 54 54 54 54 54 54 54 54 54 55 55 55 56 54 35 24 30 48 62 64 60 57 64 63 63 63 56 52 51 53 56 61 60 63 64 59 56 59 60 62 65
52 53 53 54 54 54 54 54 54 54 54 54 54 55 55 56 51 43 41 45 48 65 61 52 50 54 61 61 61 60 56 53 55 57 58 60 60 62 60 58 57 61 63 64 67
52 53 53 53 53 53 54 54 54 54 54 54 54 55 56 56 43 34 50 49 60 57 55 46 48 49 52 56 60 59 55 55 55 59 60 59 60 62 59 58 58 60 62 65 66
52 53 53 53 53 53 53 53 53 53 53 53 54 55 57 51 16 48 55 54 61 43 40 43 47 51 52 53 54 54 53 55 54 58 59 59 60 59 60 59 60 61 63 65 65
52 52 53 53 53 53 53 53 53 53 53 53 54 56 52 38 20 55 53 54 59 38 34 38 47 46 50 51 50 51 52 51 52 52 57 59 59 60 59 63 59 62 63 64 65
52 52 52 52 52 52 52 52 52 52 52 53 55 56 46 14 37 56 58 58 48 36 31 38 45 47 47 45 49 48 49 48 46 48 55 55 57 59 62 61 60 62 62 63 64
52 51 52 52 52 52 52 52 51 52 52 53 57 54 44 15 48 56 57 50 44 36 32 34 43 45 48 47 48 46 43 39 39 58 57 60 58 57 63 60 60 61 61 62 63
51 51 51 51 51 51 52 52 51 52 52 54 57 53 36 44 54 51 50 47 46 38 33 32 38 41 43 46 40 35 32 31 51 57 59 55 49 60 64 61 59 60 60 61 61
51 51 51 51 52 52 51 51 53 54 53 57 53 49 37 47 46 49 49 44 44 42 35 33 32 36 37 39 38 32 32 31 31 58 59 55 52 59 63 62 58 58 58 59 60
52 52 52 52 52 51 50 50 54 56 55 54 52 44 37 33 29 45 50 45 42 40 35 32 28 30 34 35 39 32 31 29 29 55 57 55 54 59 62 62 61 59 57 58 58
52 52 52 52 52 50 48 42 29 31 49 28 27 35 27 32 30 22 45 40 39 37 34 31 28 30 34 35 36 34 31 29 29 36 38 31 42 56 60 62 61 60 58 58 57
52 52 52 52 51 50 47 28 27 28 26 31 37 37 36 33 26 17 37 32 37 36 34 30 25 32 34 35 36 33 31 30 29 30 28 37 47 56 58 61 61 60 58 58 57
52 52 51 51 50 46 32 29 32 32 24 21 27 27 23 30 22 13 24 31 34 32 33 29 32 33 37 37 34 32 31 30 28 30 43 53 51 56 60 61 61 61 60 59 58
52 52 50 50 37 39 30 32 36 32 16 15 20 21 20 18 8 12 23 28 31 30 33 33 35 36 36 34 36 35 33 31 30 26 18 49 29 52 57 59 59 60 60 59 58
52 51 50 48 42 33 32 37 31 23 11 17 15 15 11 6 9 11 13 17 25 28 31 31 32 34 33 33 33 34 31 30 28 25 19 25 41 33 55 56 58 60 60 60 59
51 51 49 46 44 37 37 33 23 16 10 12 9 7 6 8 10 12 12 12 12 12 15 23 15 28 32 33 32 29 27 21 20 19 16 17 32 17 50 53 54 58 61 61 60
51 50 48 46 25 36 35 24 17 15 19 18 12 7 6 7 10 11 11 14 9 7 8 8 12 16 17 17 23 27 24 19 15 16 14 17 17 23 37 39 44 55 59 62 61
50 48 48 46 43 41 27 24 19 21 21 21 17 20 16 16 18 19 18 18 20 10 6 7 10 11 14 12 12 22 21 18 13 14 14 18 15 27 35 37 38 52 58 60 61
48 44 39 40 43 35 25 22 23 24 25 22 22 20 21 21 16 19 21 22 20 21 11 10 9 15 14 13 16 18 19 19 17 18 15 17 24 26 33 31 34 38 55 58 59
44 41 33 36 38 32 26 24 24 26 26 24 22 23 21 23 20 21 22 26 26 23 19 16 11 15 15 14 16 20 19 17 17 14 13 17 29 31 26 27 33 43 52 56 58
42 30 32 35 33 27 24 24 26 27 27 25 24 24 24 24 24 25 26 27 30 24 22 20 13 13 16 18 18 18 17 17 20 18 14 18 27 25 25 27 30 54 59 54 59
39 28 34 32 26 27 25 26 28 28 28 25 26 25 24 25 25 27 25 27 31 28 22 22 17 15 17 19 21 20 19 17 18 19 17 23 22 19 20 24 33 50 60 60 60
36 33 33 30 24 25 27 27 30 28 29 26 26 25 25 25 25 26 25 27 28 35 29 23 18 13 16 16 19 19 20 19 15 12 15 19 14 17 21 28 38 46 44 47 54
31 28 31 31 30 27 26 28 27 31 30 30 29 28 25 26 28 26 25 27 27 34 37 25 21 16 10 16 19 19 21 19 18 16 16 16 18 18 23 31 38 39 38 41 43
34 31 33 27 29 30 29 29 29 28 30 32 29 29 27 25 28 28 28 27 26 29 29 25 25 24 23 23 23 22 22 20 16 18 15 16 19 19 31 34 36 37 36 36 36
37 31 32 31 30 30 30 29 29 30 30 30 29 31 31 29 29 28 29 28 26 27 25 28 27 26 25 28 25 22 22 22 20 19 19 20 20 34 34 36 37 36 36 37 38
43 42 31 32 30 30 31 30 30 31 32 33 32 31 31 32 33 33 32 31 29 28 25 27 26 23 18 27 22 20 25 23 23 26 30 21 29 37 35 36 36 37 37 36 37

GFSSW_sfc_30mbdewp_069.txt.gz
Dewpoint
53 53 54 54 54 54 54 54 54 54 54 54 54 54 53 54 55 53 35 25 32 52 60 61 58 64 63 62 64 63 56 52 51 52 57 61 61 64 64 59 58 59 60 60 63
53 53 53 53 54 54 54 54 54 54 54 54 54 53 54 54 50 41 39 45 47 59 56 50 49 62 60 60 61 60 56 53 55 56 57 60 62 62 60 57 59 60 62 63 63
52 53 53 53 53 53 53 54 54 54 53 54 54 54 55 55 41 26 48 49 51 63 53 47 52 58 57 60 59 58 55 55 54 57 59 59 60 63 59 57 59 60 61 62 61
52 53 53 52 53 53 53 53 53 53 53 53 54 55 57 51 11 40 55 53 66 55 44 46 49 48 54 55 57 56 55 55 54 57 58 58 60 60 59 60 61 61 61 61 60
52 52 52 52 52 52 52 53 53 53 53 53 53 56 52 36 21 55 54 62 53 43 40 43 45 48 44 52 52 54 54 52 51 51 53 58 58 58 59 61 61 61 61 60 60
51 51 51 52 52 52 52 52 52 52 52 53 53 55 45 11 41 52 53 60 47 36 38 44 45 48 47 51 50 50 49 47 45 45 50 55 57 59 60 61 61 61 61 60 61
51 51 51 51 51 52 52 51 52 51 52 53 54 52 39 18 52 52 52 51 47 34 35 40 49 46 48 47 48 47 43 37 52 53 55 58 56 56 60 61 61 61 60 61 62
51 51 51 51 51 51 51 50 51 53 53 53 56 53 33 43 53 54 48 44 39 35 33 34 43 44 45 46 42 39 34 36 52 56 57 56 51 58 61 61 61 61 61 61 62
51 52 51 51 51 51 50 50 54 55 54 56 53 49 32 48 51 49 43 38 39 38 35 32 37 41 41 43 42 34 36 33 34 58 57 55 51 60 62 60 60 60 59 60 61
52 53 52 51 51 50 49 50 54 56 56 54 51 43 38 36 41 46 48 40 38 35 31 29 30 37 39 42 35 36 32 29 34 51 56 53 52 59 62 61 60 61 59 59 60
53 53 52 51 50 50 48 46 30 36 49 29 26 31 28 31 35 44 44 41 38 32 27 27 31 32 40 42 37 34 32 31 31 41 40 31 33 49 60 61 59 59 59 59 59
53 53 51 50 50 50 46 29 28 31 26 31 36 36 35 33 22 41 43 34 37 29 30 24 23 31 39 41 37 36 33 32 31 31 32 31 35 57 57 60 61 59 58 58 59
53 51 51 50 50 46 33 30 33 33 26 21 30 28 25 30 20 28 37 35 35 34 28 21 22 30 37 37 36 35 34 32 30 31 42 50 48 55 59 60 61 61 59 58 58
52 51 50 49 38 40 31 34 36 33 15 15 20 22 24 27 10 20 29 33 34 34 32 29 30 33 38 38 37 35 34 33 31 29 22 40 24 48 56 57 60 61 60 58 58
52 50 49 48 40 33 34 36 31 24 10 17 16 18 17 10 11 17 20 23 28 32 33 30 34 32 37 37 37 37 34 33 31 29 23 27 30 39 53 55 57 60 61 59 59
51 50 49 45 44 39 37 34 25 18 12 16 10 13 12 9 11 13 13 15 16 24 29 27 25 35 37 35 33 34 27 24 23 23 20 21 28 26 38 42 42 56 60 60 59
50 49 48 43 27 38 38 26 18 17 22 19 15 8 11 11 14 13 19 19 14 18 25 14 14 17 24 27 31 30 27 22 21 20 20 20 21 32 35 36 38 44 51 61 60
50 48 48 46 44 44 29 25 20 23 22 23 22 19 16 19 20 21 20 19 21 10 11 22 20 14 15 17 19 26 26 20 18 18 18 21 18 30 28 36 45 53 53 57 61
48 44 38 36 42 37 28 23 23 24 25 24 22 17 21 21 18 21 23 24 23 22 12 14 12 15 16 17 20 21 21 22 19 19 17 18 25 29 26 37 47 56 57 56 60
45 37 33 35 38 32 26 24 25 27 27 25 22 24 20 23 20 22 23 29 28 25 21 18 12 16 17 18 20 22 21 18 20 17 15 23 29 25 26 39 49 56 58 55 58
38 31 33 34 33 29 25 25 26 28 27 26 25 24 25 25 25 26 26 29 30 29 24 20 15 17 19 19 19 20 19 21 21 20 16 19 25 20 31 45 48 47 55 60 60
35 28 34 33 27 28 26 27 29 28 30 26 26 25 25 26 27 27 27 28 30 32 22 23 18 17 18 20 21 20 20 19 20 22 22 23 21 25 39 44 42 45 47 51 57
34 32 34 32 25 26 28 28 29 28 29 28 26 26 28 26 27 27 27 27 30 35 28 24 18 16 16 17 19 20 20 19 14 17 22 19 16 27 40 39 38 39 40 41 43
33 28 31 32 31 28 27 29 28 30 30 30 29 28 27 27 28 26 26 26 27 33 35 26 22 18 10 17 20 20 20 20 18 16 17 18 19 26 36 36 35 36 35 36 38
35 31 32 28 29 30 30 30 28 29 30 31 29 30 27 26 28 28 27 26 26 29 29 28 23 23 24 23 22 21 20 19 17 19 17 19 20 29 36 36 35 35 35 35 37
35 31 33 32 32 31 30 30 29 31 30 29 29 31 31 29 29 28 28 28 27 27 26 29 27 26 25 25 23 20 22 21 19 18 18 19 24 35 36 37 37 37 36 36 36
43 38 34 33 32 30 31 31 30 32 33 34 32 32 32 33 33 33 32 31 31 28 27 29 28 24 20 26 22 15 24 23 23 31 26 18 33 36 35 35 36 35 38 38 37

GFSSW_sfc_30mbdewp_072.txt.gz
Dewpoint
53 54 54 54 54 54 54 54 54 55 54 54 54 54 54 53 54 50 30 26 31 57 65 55 51 57 61 58 61 62 55 49 50 53 57 59 59 62 61 58 58 58 58 57 59
53 53 53 53 53 54 54 54 54 54 54 54 54 54 54 53 45 32 33 42 47 60 54 44 47 57 57 56 59 58 54 50 52 53 57 61 61 60 59 58 57 58 58 59 60
53 53 53 53 53 53 53 53 54 54 54 54 54 54 55 54 37 22 44 49 54 61 47 41 47 53 52 55 57 56 52 52 51 54 55 59 60 62 59 56 57 58 58 58 59
52 52 52 52 52 52 53 53 53 53 53 53 54 55 56 47 10 39 52 53 57 53 45 41 46 48 47 50 55 55 54 54 51 51 54 55 58 58 59 59 60 60 59 58 58
51 51 52 52 51 52 52 53 53 53 53 53 53 55 52 33 13 51 54 54 50 48 41 39 39 38 40 44 52 54 53 52 50 47 48 53 56 57 59 61 60 59 58 57 57
51 51 52 51 52 52 52 52 52 52 52 53 53 54 41 17 43 47 44 48 45 41 35 36 34 36 35 42 45 49 50 48 45 42 45 53 55 56 59 60 59 58 57 56 56
51 51 51 51 52 52 51 51 51 51 52 53 53 51 36 18 47 42 49 44 39 35 33 35 38 37 38 39 44 46 44 44 45 45 49 54 55 56 60 60 59 57 56 56 56
52 51 51 51 51 51 51 50 51 54 54 53 55 49 28 38 47 44 46 44 36 34 32 38 41 37 36 42 42 41 41 39 46 46 51 54 51 58 60 60 59 57 56 57 57
51 51 52 51 51 51 50 50 55 55 54 55 52 46 27 50 45 39 37 39 34 33 34 35 40 36 38 34 32 35 34 36 44 49 51 53 50 58 61 60 59 60 57 57 58
52 53 52 51 51 51 50 50 55 56 54 51 48 38 36 32 42 40 38 35 32 30 28 29 33 32 32 27 23 28 33 36 35 49 49 49 50 58 60 59 59 60 58 57 57
53 53 52 51 50 50 48 46 40 42 40 26 23 25 30 33 41 38 39 36 33 30 24 25 27 22 26 29 31 29 34 35 34 46 42 38 34 50 57 59 59 59 58 58 57
53 52 52 51 50 50 46 30 29 30 24 29 31 28 29 29 29 34 38 36 30 23 23 23 22 23 29 33 37 34 33 33 32 32 35 30 29 47 50 56 59 60 59 58 57
53 52 51 50 50 47 32 29 31 31 23 21 25 25 24 26 24 35 35 31 31 21 22 19 18 26 35 37 36 33 31 33 32 31 32 35 35 48 52 54 59 59 59 58 57
52 52 50 49 43 37 30 33 33 32 17 15 17 19 23 24 16 32 34 28 28 29 23 17 22 24 31 35 34 30 33 33 33 30 27 31 30 41 52 54 59 60 58 57 58
52 51 50 48 37 30 32 34 31 28 9 15 16 20 22 19 15 27 32 27 27 29 30 22 20 24 29 33 35 32 35 33 32 32 28 24 27 41 46 51 57 60 60 57 58
51 50 49 45 40 32 34 33 26 18 12 14 13 17 16 10 13 21 24 21 26 27 30 27 24 26 31 36 37 36 32 31 30 29 25 24 24 30 37 40 42 56 59 59 58
50 50 48 40 31 38 39 26 17 14 19 15 12 16 12 10 14 18 18 19 23 25 26 25 28 30 33 35 36 35 29 22 20 20 19 23 23 33 35 40 44 46 46 59 58
50 48 47 41 39 40 30 23 18 20 20 21 18 12 12 13 17 19 20 21 19 19 24 19 21 26 30 33 32 32 28 19 17 16 16 23 20 28 36 46 54 55 50 49 59
48 43 34 35 39 36 27 20 23 24 25 23 16 12 14 15 16 20 21 20 22 20 18 20 17 17 18 19 22 30 27 23 18 19 16 19 30 28 35 48 51 56 54 53 58
44 36 33 33 36 32 25 24 26 27 26 24 19 20 14 16 15 16 20 26 24 24 22 19 18 18 17 18 20 23 25 22 19 15 15 18 24 26 36 47 50 53 57 57 57
39 31 32 32 33 28 24 25 25 27 27 25 24 22 23 21 20 22 23 26 27 26 24 19 18 16 18 20 20 20 19 21 19 18 14 17 22 27 41 47 49 50 51 54 58
32 28 32 33 27 27 25 26 28 26 28 26 26 26 25 26 24 25 24 26 30 30 21 21 15 14 18 20 21 22 22 22 18 20 20 19 22 36 42 45 45 44 45 46 48
31 29 32 31 25 26 27 26 27 26 27 26 26 27 28 27 26 26 25 26 29 30 27 24 18 16 15 17 20 20 21 22 21 21 19 15 22 39 42 44 41 39 39 40 41
29 23 27 30 30 27 24 24 25 27 27 27 27 27 27 27 28 27 25 26 27 30 34 28 20 21 12 16 18 20 19 20 20 17 20 20 27 36 38 40 41 37 36 37 38
30 26 31 22 24 24 24 24 24 24 26 27 25 26 26 26 27 27 26 26 26 29 29 28 23 23 22 20 19 18 17 17 19 21 20 22 26 34 36 36 37 37 37 36 37
28 27 28 28 31 25 25 26 25 27 27 27 26 26 27 28 28 27 27 27 27 26 26 26 26 25 23 22 21 19 19 18 16 18 21 23 28 34 37 38 37 37 37 37 37
39 34 31 30 26 24 26 26 27 30 31 30 29 30 29 30 31 31 30 29 29 28 26 26 25 24 16 22 18 14 17 17 19 22 22 20 31 34 34 35 35 35 38 39 38

GFSSW_sfc_30mbdewp_075.txt.gz
Dewpoint
53 54 54 54 54 54 54 54 55 55 55 55 55 55 55 55 53 48 30 31 36 62 68 55 55 57 58 56 59 59 55 50 52 52 56 59 57 58 60 57 57 58 57 55 57
53 53 53 53 54 54 54 54 54 54 54 54 54 55 55 54 44 33 42 42 49 64 59 49 45 53 54 53 57 57 54 50 52 54 56 58 58 59 57 56 56 56 56 56 57
53 53 52 52 53 53 53 53 54 54 54 54 54 55 55 54 40 21 47 44 48 65 50 41 41 49 50 52 56 55 52 51 52 54 58 59 60 61 56 54 55 55 55 56 57
52 51 52 52 53 53 53 53 53 53 53 53 54 54 56 48 25 46 53 50 55 56 48 36 39 46 45 48 55 54 53 51 50 52 55 58 58 56 58 60 58 56 56 56 56
52 52 52 52 52 52 53 53 53 52 53 53 54 54 52 34 23 54 52 53 44 50 42 35 37 42 42 45 54 53 50 50 48 47 49 54 56 58 59 60 59 57 56 56 55
52 52 52 52 52 52 52 52 52 52 52 52 53 54 43 21 36 47 41 35 37 46 39 35 36 38 35 38 47 52 50 47 46 43 45 52 55 57 60 59 58 57 55 55 54
52 52 52 52 52 52 52 52 51 52 53 53 53 51 35 23 39 39 35 28 36 41 35 33 32 31 33 36 42 47 48 46 42 41 47 53 55 56 58 58 56 56 55 54 54
52 51 51 52 52 52 52 51 52 55 55 54 54 47 34 27 38 40 40 33 35 37 30 30 33 32 31 36 38 43 44 41 42 43 47 53 52 56 58 57 55 55 54 54 54
51 52 52 52 52 51 51 50 53 55 55 54 51 47 26 46 38 41 39 31 32 32 31 34 35 33 32 30 34 37 36 36 40 41 45 51 52 55 58 58 56 55 53 54 54
53 53 52 52 51 51 51 51 54 56 53 50 43 35 36 29 33 35 38 34 29 30 31 30 29 31 29 29 25 27 31 32 37 41 44 49 57 56 57 58 57 56 57 54 54
53 53 53 52 51 50 49 47 45 43 37 31 25 27 23 29 35 33 32 33 28 27 25 25 23 25 25 24 20 23 28 31 33 41 40 42 52 53 56 57 57 59 60 56 55
54 53 52 51 50 50 49 35 26 28 25 28 24 23 27 35 32 32 35 28 27 24 21 22 21 24 23 22 21 25 24 29 33 40 39 35 33 48 53 56 58 59 59 58 56
53 52 51 50 50 47 37 27 29 28 24 22 23 20 26 30 27 29 31 29 27 24 21 19 17 21 20 24 26 30 28 30 32 32 36 31 31 42 45 51 59 60 59 60 57
52 51 51 50 42 31 28 28 28 28 22 16 19 19 23 22 21 29 31 28 27 20 17 18 17 18 22 27 32 26 26 28 30 31 28 32 28 39 44 46 59 60 58 57 58
52 51 50 49 42 29 29 28 27 27 14 14 16 19 21 21 19 28 28 27 23 23 22 18 14 18 24 30 31 26 26 27 31 29 26 29 29 41 46 48 56 57 57 58 58
52 51 50 47 41 29 28 30 27 20 14 11 13 16 19 20 15 25 25 26 25 25 27 21 19 18 20 26 31 33 31 29 28 28 22 24 22 41 43 51 53 55 59 58 57
51 50 49 44 31 32 31 28 22 16 17 11 12 14 17 16 13 21 24 22 20 22 24 25 26 22 21 25 32 34 31 25 24 22 20 21 20 35 38 41 42 52 54 57 58
51 49 46 40 35 34 32 26 20 18 18 17 14 14 12 10 12 17 20 17 18 23 23 19 20 20 22 27 31 32 29 20 17 15 16 20 20 33 42 50 52 51 49 57 57
49 41 38 32 34 34 30 25 24 22 22 18 15 12 10 12 14 17 17 17 19 22 20 20 18 25 25 30 31 29 28 24 17 15 13 21 29 35 45 48 53 57 52 47 57
42 34 30 32 33 32 27 22 24 24 23 21 15 13 13 12 14 17 21 24 21 23 23 22 19 21 21 22 26 25 28 25 22 16 13 18 26 27 42 47 51 53 55 58 61
39 32 30 31 31 29 24 24 24 26 25 23 24 18 24 20 14 16 21 23 24 22 22 18 23 20 19 19 19 21 24 25 22 17 15 17 26 37 46 48 49 48 49 51 53
31 27 30 27 26 23 23 24 25 24 26 24 25 22 23 25 21 25 22 24 27 25 14 16 19 18 19 21 22 22 19 23 21 20 17 17 27 41 47 48 46 44 45 46 47
27 21 26 28 24 21 24 21 24 23 25 23 23 25 24 22 22 20 23 25 28 26 24 22 14 17 18 20 21 20 21 21 19 18 19 16 31 41 47 44 43 42 42 43 43
24 21 22 24 25 23 21 20 19 24 25 27 26 26 25 24 23 20 21 24 26 27 31 31 17 21 17 16 17 19 19 20 20 19 19 21 36 38 42 42 39 39 40 41 41
25 21 28 21 19 21 21 20 20 19 21 23 24 25 25 24 23 22 23 24 25 28 29 24 19 20 20 17 18 19 19 18 18 18 17 31 35 37 39 40 40 39 38 39 39
27 25 21 24 25 21 22 21 21 24 25 23 22 21 24 27 28 25 25 24 23 26 25 23 22 22 19 20 18 16 17 17 17 20 22 29 35 37 37 39 40 41 40 38 38
32 32 27 24 23 20 20 21 23 27 27 27 28 26 25 28 29 30 30 30 30 29 26 26 20 22 18 20 19 16 16 16 15 17 22 26 33 37 36 36 36 38 40 38 38

GFSSW_sfc_30mbdewp_078.txt.gz
Dewpoint
53 54 54 54 54 54 54 55 55 55 55 55 55 55 56 56 55 46 30 30 33 50 56 41 46 52 57 57 58 59 55 52 53 53 55 58 56 57 59 59 59 58 54 55 56
53 53 53 53 53 53 54 54 54 54 55 55 55 55 55 56 46 32 35 41 46 50 55 49 50 54 54 53 56 61 53 51 53 55 56 58 56 57 57 57 56 57 54 55 54
53 53 53 53 53 53 53 54 54 54 54 54 54 55 55 55 43 28 45 43 46 50 53 49 47 48 52 51 54 61 53 52 54 55 57 57 58 60 59 55 55 54 54 54 53
52 52 53 53 53 53 53 54 54 53 53 54 54 54 55 48 33 44 53 45 44 42 53 45 37 41 48 48 54 54 53 51 54 56 56 57 59 55 60 59 57 55 54 54 53
52 52 52 52 52 53 53 53 53 53 53 53 53 54 50 40 25 53 55 51 31 43 50 41 33 41 43 45 52 56 56 52 48 56 57 57 56 58 59 59 57 56 55 54 53
52 52 52 52 52 53 53 53 52 52 52 53 53 54 43 31 32 49 35 30 29 43 48 38 32 40 41 42 50 52 54 48 46 46 49 53 58 58 61 58 57 55 54 54 53
51 52 51 51 52 52 52 52 52 52 54 54 54 50 41 30 34 41 33 24 29 39 40 36 32 37 36 34 42 46 51 47 44 43 48 55 55 56 59 57 58 55 54 54 53
52 53 53 52 52 52 52 52 51 53 56 56 55 45 36 28 32 34 31 25 27 36 40 34 32 30 29 31 36 40 43 43 42 40 47 53 53 57 58 56 55 55 53 54 53
53 53 52 52 52 52 52 51 52 56 56 56 49 43 33 34 32 33 34 27 29 36 35 29 29 30 30 28 33 36 38 38 40 39 47 50 54 57 57 55 54 54 53 54 54
53 52 52 52 51 51 51 51 51 55 53 48 46 38 35 32 29 35 35 29 28 31 30 29 30 30 30 28 27 31 34 37 42 40 42 51 51 57 57 54 54 54 53 54 54
54 53 53 52 51 51 49 47 44 46 42 33 30 32 26 32 29 33 35 27 26 28 27 30 26 23 26 25 26 28 28 31 41 43 39 52 56 58 55 55 55 54 57 54 54
53 53 52 52 51 51 49 42 26 26 24 33 29 25 24 30 29 28 32 27 25 24 25 24 21 21 25 25 23 23 22 25 41 44 50 49 51 57 56 55 55 55 59 57 56
53 52 52 51 51 48 39 33 26 24 22 26 25 21 26 32 30 27 28 27 23 21 20 18 17 19 22 22 20 18 18 26 38 44 46 43 50 55 56 55 57 57 59 59 57
52 52 52 50 42 35 31 26 24 24 22 20 19 21 22 29 28 28 30 25 24 21 20 17 17 15 19 20 19 19 24 27 36 35 30 36 34 44 49 55 57 57 57 59 59
53 52 51 50 38 32 28 23 26 24 19 16 15 19 19 22 22 26 29 26 26 20 18 17 17 16 15 18 22 24 25 27 34 32 28 27 27 37 45 55 57 57 56 58 58
53 52 51 45 41 33 23 25 25 19 18 12 15 15 18 20 18 25 27 28 26 23 20 14 16 16 16 20 27 29 28 23 27 31 24 26 26 44 49 51 56 58 57 60 58
52 51 50 42 33 29 27 25 22 18 25 12 8 13 15 18 16 22 26 23 22 21 21 23 20 13 18 19 26 28 29 22 23 25 23 23 25 40 52 54 54 53 58 61 63
51 50 43 41 37 31 30 27 28 33 28 17 12 11 14 17 15 18 22 20 23 21 21 22 20 24 21 18 21 27 27 23 20 19 18 21 21 38 48 57 58 51 53 58 59
49 41 39 39 41 32 31 29 32 35 21 17 10 11 11 11 11 14 20 21 20 20 21 25 22 22 21 18 22 27 27 28 20 19 16 24 37 44 49 52 55 56 56 60 63
40 37 37 26 29 36 33 29 26 20 20 21 16 12 11 10 12 17 17 21 23 22 24 24 24 22 18 19 25 28 29 25 24 20 20 25 34 39 45 49 53 52 52 54 58
40 35 31 21 25 35 31 23 21 21 20 23 23 22 23 18 21 24 28 26 24 22 23 22 25 25 23 23 24 28 31 27 24 23 21 25 35 43 47 50 50 49 49 49 53
38 31 26 20 26 21 22 20 22 22 19 20 21 23 23 25 27 25 30 27 24 22 20 20 19 26 19 19 22 24 25 25 24 25 23 35 38 48 48 48 47 48 48 46 48
35 19 22 26 29 25 21 19 22 22 22 21 22 21 24 23 26 25 27 24 25 21 30 28 17 20 20 19 20 18 21 21 21 23 24 29 35 47 47 47 46 46 46 45 45
34 20 20 18 19 20 19 18 17 18 22 25 25 23 20 21 22 25 20 21 23 24 30 29 18 24 28 23 19 18 20 20 19 18 20 32 42 45 46 45 44 44 44 43 44
28 16 24 20 17 18 20 18 17 18 17 21 25 24 27 30 19 21 21 20 22 25 23 21 15 19 23 20 18 18 17 18 18 21 26 38 41 44 46 44 43 42 42 42 41
28 27 18 21 24 20 20 18 19 21 25 20 20 18 22 36 36 35 31 22 20 21 20 21 20 27 23 20 19 18 17 18 18 18 22 35 37 41 43 42 42 42 41 41 41
33 30 29 20 20 17 16 18 20 25 23 25 26 25 23 28 29 35 29 30 36 30 23 22 22 28 23 20 19 18 18 17 17 18 39 38 38 39 39 40 41 41 41 40 39

GFSSW_sfc_30mbdewp_081.txt.gz
Dewpoint
54 54 54 54 54 54 54 54 55 55 55 55 55 55 56 57 56 51 30 31 35 47 57 46 36 36 43 58 59 62 57 53 53 53 55 58 57 60 65 59 57 54 55 56 60
53 53 53 53 53 54 54 54 54 55 55 55 55 55 56 56 52 42 36 39 48 49 34 44 38 41 46 55 61 60 56 54 55 56 56 58 57 61 60 60 58 54 56 56 59
53 53 53 53 53 53 53 54 54 54 54 54 54 55 55 56 49 36 47 48 54 50 31 48 47 51 52 53 62 58 57 55 54 56 57 57 56 62 59 57 54 53 54 55 59
52 52 52 52 53 53 53 53 54 54 53 54 54 54 55 52 38 42 56 50 48 43 37 49 50 47 46 50 60 55 59 57 57 57 57 57 61 61 62 59 55 54 54 54 56
52 52 52 52 52 52 53 53 52 52 53 53 54 54 52 45 33 48 54 49 42 36 39 51 49 39 40 47 54 54 53 56 56 56 58 59 59 60 60 61 55 54 54 53 53
51 51 51 51 52 52 52 52 52 53 53 53 54 54 49 27 46 51 43 40 24 30 39 50 45 35 39 43 52 54 52 53 57 56 56 57 58 58 58 56 55 54 54 53 53
53 53 52 52 52 52 52 52 52 52 53 54 55 52 42 35 45 44 35 27 19 30 46 48 47 32 36 39 43 57 46 51 54 56 57 60 57 57 57 59 54 54 54 53 53
53 53 52 52 52 52 52 53 52 52 54 56 56 50 35 33 34 39 32 23 24 30 44 43 37 32 30 32 32 49 48 46 46 48 57 54 52 58 57 58 55 54 54 53 53
52 52 52 52 51 51 52 52 52 53 57 57 51 48 37 32 30 33 31 26 21 30 34 39 33 30 29 28 27 33 38 43 45 48 54 52 54 61 59 59 56 54 54 54 54
53 52 52 51 51 51 51 51 51 53 54 49 42 41 38 34 28 30 31 24 23 29 34 34 28 29 29 29 25 32 34 37 42 42 53 54 55 60 60 60 56 54 54 54 54
53 52 52 52 52 52 50 48 44 46 47 35 35 40 32 35 30 30 35 30 28 30 31 29 27 27 29 30 28 30 33 34 41 46 52 51 51 54 58 59 56 54 54 54 55
52 52 52 52 52 51 49 44 43 24 23 40 32 33 33 31 26 33 34 27 26 27 28 28 28 29 27 28 28 26 23 28 43 51 54 51 49 49 51 58 54 54 54 54 56
52 52 52 52 51 48 42 40 38 23 21 21 32 31 24 28 27 30 33 27 24 25 26 25 27 28 22 24 25 24 22 25 41 45 51 52 52 52 55 57 55 55 57 55 56
52 52 52 52 46 37 35 36 36 24 20 22 27 24 22 29 29 28 30 29 23 22 23 23 23 22 19 19 22 21 22 21 43 42 43 51 43 52 56 55 55 55 57 57 57
54 54 53 51 43 33 32 23 25 24 19 23 20 21 20 23 29 29 28 27 24 21 21 20 17 17 16 17 21 20 20 26 39 38 38 46 43 49 55 54 56 57 58 57 56
54 53 52 48 47 39 37 34 26 20 22 24 15 16 16 20 22 26 29 29 26 26 22 20 20 16 18 16 17 20 22 27 35 35 33 32 37 46 53 53 56 59 58 58 60
53 52 50 47 36 37 35 27 24 31 36 22 15 14 15 19 20 21 26 25 26 23 22 22 18 15 15 16 18 20 27 26 22 30 31 33 31 48 55 58 58 57 55 57 59
51 50 48 45 37 38 35 35 32 33 32 31 28 13 12 17 18 23 25 23 25 25 22 21 20 22 14 17 19 22 27 27 21 23 27 28 40 46 52 53 54 51 57 58 59
49 45 43 40 43 41 38 31 31 32 31 25 18 12 12 15 16 17 23 24 22 23 21 24 24 24 19 18 18 22 23 27 25 22 21 39 47 50 50 53 55 56 59 61 63
42 38 35 38 39 38 32 32 30 31 20 25 24 22 21 18 17 16 23 25 22 23 25 26 24 26 27 23 18 18 30 25 27 25 21 42 44 48 53 52 50 50 52 55 58
44 36 34 32 35 34 29 30 24 21 18 24 22 24 24 26 28 30 28 24 24 23 22 23 22 27 26 18 16 29 28 32 29 27 24 32 42 51 52 49 47 48 48 52 54
39 36 38 20 27 34 30 19 20 21 23 21 21 24 29 28 29 31 30 29 24 24 21 28 18 27 28 27 23 23 30 32 28 25 35 39 42 51 50 48 47 46 46 49 51
40 37 22 27 27 27 20 18 18 21 22 24 22 23 22 26 28 30 29 22 23 26 26 28 23 20 25 26 20 19 20 21 23 24 28 33 42 49 48 48 47 45 45 45 48
40 28 25 23 20 20 20 18 16 14 18 22 26 24 21 23 26 25 26 20 21 22 29 29 20 20 25 28 26 19 19 20 21 20 36 35 45 45 45 44 45 44 45 46 46
41 16 19 19 19 16 22 19 17 18 20 19 24 26 30 29 32 24 31 22 21 25 22 23 20 21 26 28 24 19 19 19 19 23 33 43 44 45 45 44 43 43 42 43 44
32 27 31 20 25 24 20 18 20 21 24 23 24 22 33 32 33 35 34 31 27 27 20 21 24 25 23 25 23 19 20 19 19 36 43 44 45 46 44 44 43 42 42 41 42
42 40 39 31 22 19 18 17 19 25 22 24 26 28 32 31 35 37 36 34 32 31 30 25 27 28 23 28 25 20 20 18 37 38 39 42 43 43 42 43 42 42 42 42 42

GFSSW_sfc_30mbdewp_084.txt.gz
Dewpoint
53 54 53 53 54 54 54 54 55 55 55 55 55 55 56 56 56 53 29 17 29 55 59 50 51 38 35 45 61 65 58 53 54 53 55 60 58 62 64 56 55 56 58 59 63
53 53 53 53 53 53 54 54 54 55 55 55 55 55 55 56 53 44 39 40 46 47 46 37 35 35 40 49 60 59 55 54 56 56 56 59 60 61 60 56 55 55 60 63 64
52 52 52 52 53 53 53 53 54 54 54 54 54 55 55 56 48 31 48 44 48 58 35 34 41 40 41 52 59 60 56 57 57 55 57 58 60 62 59 58 55 55 59 61 61
52 52 52 52 52 52 52 52 53 53 53 54 54 54 55 53 31 43 59 50 57 55 35 32 47 45 49 51 61 52 58 59 56 56 57 58 62 59 62 59 55 56 60 60 60
51 51 51 52 52 52 52 52 52 52 53 53 54 54 52 43 27 40 61 56 58 40 29 36 49 49 46 46 58 57 56 60 58 57 57 61 61 59 61 61 56 56 59 59 60
53 53 52 52 52 52 52 52 52 52 53 53 54 55 48 12 35 51 51 48 32 30 31 43 50 48 40 39 55 56 54 62 60 57 60 59 60 59 61 60 55 53 58 60 60
53 52 52 52 52 52 52 52 52 53 52 53 54 53 46 21 42 48 40 32 26 23 35 36 48 48 36 32 40 51 50 56 56 58 59 60 57 57 59 59 54 52 53 55 58
52 52 52 52 52 51 52 52 53 53 53 54 55 51 26 37 34 37 39 25 25 26 34 46 47 42 36 31 45 52 49 46 53 57 59 56 53 58 60 55 53 53 53 53 53
52 53 52 52 51 51 51 52 52 53 55 57 50 48 26 39 34 33 33 26 19 25 29 36 38 36 30 28 27 47 45 46 51 56 58 56 56 61 60 58 54 53 53 53 53
52 52 52 51 51 52 52 51 52 53 55 52 46 40 38 33 29 32 34 27 20 22 29 30 33 29 29 28 25 26 36 42 47 55 57 57 56 59 60 59 55 53 54 53 54
52 52 51 51 52 52 49 47 44 45 48 27 32 39 37 35 30 28 31 26 21 27 29 32 26 25 26 29 29 29 28 33 47 55 55 55 54 56 58 61 57 54 54 54 55
52 52 52 51 52 52 49 39 42 33 25 39 34 39 36 36 29 29 32 25 24 25 29 28 26 27 27 29 29 28 27 27 51 53 51 54 55 56 58 60 59 55 54 54 56
53 54 52 51 51 47 40 36 40 36 26 22 34 35 34 31 30 27 32 29 25 26 28 27 27 29 29 28 26 25 26 26 44 52 53 52 51 51 53 54 60 57 54 55 55
54 53 53 52 44 41 35 35 37 35 19 19 21 28 29 28 26 31 32 28 24 24 26 26 27 27 28 27 24 21 25 24 45 42 40 50 35 52 51 51 58 56 55 56 55
54 54 53 51 41 34 31 35 36 24 18 31 27 26 21 26 29 28 29 30 24 22 23 22 23 23 22 24 21 19 21 22 35 41 45 44 42 47 53 55 55 56 57 57 57
54 53 51 48 48 41 40 38 29 21 20 31 21 19 18 21 22 26 26 28 28 25 25 23 22 20 18 18 18 18 22 36 40 38 36 41 42 46 52 54 56 58 58 58 58
53 52 50 47 32 38 37 35 29 26 34 30 26 26 17 18 20 22 26 26 25 24 23 24 23 22 19 16 16 18 23 24 27 31 31 35 44 41 53 56 57 57 57 59 58
52 51 48 47 44 39 37 35 24 31 31 33 30 25 18 17 19 21 26 25 26 25 24 22 19 21 20 15 15 17 23 26 22 27 29 35 38 46 56 58 59 59 59 55 58
50 46 43 41 46 42 36 28 23 28 29 29 25 21 20 17 17 24 25 24 24 24 21 21 23 28 27 18 17 17 21 26 25 26 23 44 47 50 54 53 54 55 58 59 63
41 38 36 36 43 39 31 31 30 30 30 28 22 26 25 26 27 25 24 24 23 24 24 23 23 24 25 24 17 17 26 24 27 23 23 43 45 46 51 50 51 52 54 56 58
43 35 37 39 39 33 26 29 29 27 29 22 21 26 28 27 29 30 28 24 23 24 25 25 21 20 28 24 18 22 24 32 29 28 24 36 43 53 50 49 49 50 52 53 56
40 34 39 32 28 34 28 28 21 21 23 24 21 24 28 29 30 30 27 23 24 28 24 27 21 18 26 27 29 28 28 29 27 27 38 40 45 51 50 50 48 48 49 52 54
35 38 35 29 24 30 28 18 16 14 20 22 24 21 27 29 28 29 27 22 23 21 19 25 20 21 23 24 27 20 20 20 25 31 33 29 42 50 50 48 47 47 47 50 52
40 32 25 23 22 20 19 18 14 15 18 20 25 26 28 29 28 26 27 21 22 20 31 27 20 21 22 27 27 21 20 20 21 20 34 39 44 46 46 45 45 45 45 48 49
41 30 24 15 17 18 19 22 21 21 24 25 27 29 28 25 32 32 32 31 22 25 20 22 23 24 28 24 24 22 20 23 20 23 29 42 38 44 44 44 44 45 46 45 45
35 36 39 31 24 19 20 20 20 21 24 25 32 34 35 31 33 30 32 30 32 32 28 25 27 26 24 30 27 23 22 32 35 40 44 45 44 44 44 43 42 42 43 44 45
47 44 41 37 22 18 18 22 27 24 27 29 32 30 28 29 33 34 36 34 26 28 26 29 27 26 25 29 26 22 23 28 39 44 45 42 44 43 42 42 41 40 41 43 44

GFSSW_sfc_30mbdewp_087.txt.gz
Dewpoint
53 53 53 53 53 53 53 54 54 55 54 54 55 55 55 56 56 54 29 14 28 51 59 56 53 42 36 44 59 65 58 54 55 53 55 59 58 60 62 57 57 58 60 62 64
52 52 52 52 52 52 53 53 53 54 54 54 54 55 55 56 52 43 36 42 48 62 48 44 40 39 44 44 60 60 55 55 56 55 56 60 59 60 56 56 58 59 61 63 64
52 52 52 52 52 52 52 52 52 53 53 53 54 55 55 55 42 19 49 48 51 58 39 37 36 39 39 53 56 59 55 58 55 56 59 59 60 62 55 55 57 58 61 62 62
52 52 52 52 52 52 52 52 52 52 52 53 53 54 55 53 9 42 59 53 53 56 41 31 44 42 48 49 60 52 57 59 56 58 59 59 61 59 59 58 58 61 62 62 61
53 53 52 52 52 52 52 52 52 52 52 52 53 54 51 35 18 30 63 55 61 52 36 35 46 50 48 50 58 54 58 60 56 58 59 61 60 59 60 62 60 62 62 61 62
52 52 52 52 52 52 52 53 52 52 52 52 53 54 46 15 14 48 51 56 49 38 33 37 48 51 47 46 55 57 58 59 58 56 60 59 58 60 60 60 59 60 60 61 61
52 52 52 51 51 52 52 51 51 52 52 52 53 53 43 23 43 50 48 42 33 31 26 33 48 49 45 38 43 57 54 56 58 58 59 60 57 56 60 58 58 59 59 60 60
53 52 52 51 51 51 51 51 52 52 53 53 54 52 24 32 36 36 38 31 28 26 32 40 39 45 42 40 44 52 55 52 55 58 59 57 53 59 60 58 57 58 59 59 60
52 52 52 51 51 51 52 52 52 53 54 55 51 48 22 37 35 30 38 27 24 23 27 32 38 37 34 28 27 44 46 47 54 60 59 57 56 58 59 59 53 55 57 59 59
52 52 51 51 51 51 52 52 52 53 55 53 48 40 37 32 33 31 35 25 20 21 28 30 33 31 29 28 28 29 38 46 50 56 58 55 55 58 60 59 54 52 53 55 56
52 52 51 51 50 52 49 48 44 42 48 25 28 36 37 36 34 31 33 28 24 29 30 32 31 28 29 28 29 29 28 27 48 55 55 53 54 58 59 60 54 53 54 53 54
53 53 52 52 51 50 49 33 38 35 31 37 36 36 38 37 32 29 31 26 23 25 29 29 28 27 27 28 28 29 28 38 54 56 54 54 53 57 59 60 57 54 54 54 54
53 52 52 51 51 47 40 34 40 36 29 24 37 34 29 34 30 29 29 27 22 25 28 29 27 29 28 27 26 26 26 27 48 53 54 54 52 54 57 59 60 60 57 55 54
53 53 53 52 43 41 35 37 36 34 20 23 23 26 31 29 26 30 32 29 25 24 27 27 29 27 27 28 27 24 24 27 50 48 44 51 41 51 54 55 57 60 58 56 54
53 54 53 50 42 35 33 39 36 25 20 30 30 27 25 27 28 28 33 29 24 24 25 25 25 25 25 26 27 24 22 22 43 43 45 48 41 44 52 51 53 59 58 56 57
53 53 52 48 47 42 42 37 28 23 22 29 30 27 19 22 25 28 28 30 27 25 26 24 24 23 23 23 24 22 20 31 39 40 38 41 41 43 51 50 53 59 57 57 57
52 52 50 47 32 40 38 36 27 22 32 25 24 29 23 18 21 22 25 27 25 23 23 24 24 24 21 19 17 20 23 23 34 36 35 39 41 41 53 54 56 57 58 58 59
51 50 48 48 44 41 38 29 23 29 30 31 30 27 25 18 19 21 25 24 26 25 24 23 19 23 20 21 17 19 18 20 27 31 33 41 38 45 55 58 58 60 60 59 61
48 44 42 42 47 42 35 23 21 27 27 27 25 24 25 20 19 23 25 25 25 25 23 21 22 27 26 21 18 21 21 24 25 26 26 43 48 52 53 53 56 58 59 59 61
41 38 35 42 43 36 30 29 29 31 29 27 24 27 25 27 26 25 24 24 23 24 24 23 22 24 26 25 21 18 25 22 26 23 23 43 45 43 52 51 53 55 56 57 59
41 36 37 42 37 32 25 28 29 26 31 22 24 27 28 28 31 29 27 23 24 25 27 24 20 20 27 25 19 22 25 29 28 28 26 38 41 51 52 51 52 53 53 56 57
39 29 38 35 30 35 27 30 21 19 23 24 23 24 27 30 31 27 21 22 24 28 22 26 19 20 25 25 26 21 22 30 23 29 37 38 41 50 50 50 51 51 52 54 56
35 35 39 31 22 28 28 18 14 17 19 23 25 24 30 29 27 28 26 22 21 21 20 24 21 21 23 25 27 21 20 20 28 35 35 30 37 51 50 49 49 49 50 53 54
38 22 23 22 23 21 18 18 18 25 26 24 26 28 28 28 31 29 28 26 24 26 33 25 21 22 25 24 26 21 22 22 21 20 32 33 42 48 48 47 46 46 48 51 52
40 29 29 18 21 21 22 22 21 22 26 30 31 32 27 27 30 30 31 29 30 33 21 22 22 24 26 27 26 23 22 31 25 25 29 38 42 47 47 46 46 45 47 47 47
36 37 40 34 25 19 20 20 21 21 24 29 32 33 33 29 32 29 30 30 30 30 29 27 26 25 27 31 30 27 25 27 40 43 43 44 42 46 45 44 44 45 45 44 45
46 45 41 37 20 18 20 22 25 27 29 31 32 29 27 27 33 32 34 32 27 26 25 29 26 24 25 29 33 30 26 31 39 45 44 39 42 44 43 43 42 43 44 45 45

GFSSW_sfc_30mbdewp_090.txt.gz
Dewpoint
52 52 52 52 52 52 53 53 53 53 53 53 54 55 55 55 55 54 28 14 30 40 58 59 49 43 40 51 58 64 58 54 54 53 55 59 58 59 61 57 58 60 61 63 66
52 52 52 52 52 52 52 52 52 52 52 53 53 54 55 56 52 41 35 42 46 58 53 43 41 41 44 44 59 59 56 55 57 55 57 58 57 58 57 57 58 61 63 65 65
52 52 52 52 52 52 52 51 52 52 52 52 53 54 55 55 39 11 46 48 51 64 45 43 40 50 53 51 55 59 55 58 56 56 59 60 60 59 57 56 57 60 62 64 64
53 52 52 52 53 52 52 52 52 52 52 52 53 53 55 53 -1 44 57 53 55 60 33 40 39 50 49 48 59 53 57 58 56 58 60 58 61 56 58 57 59 61 62 63 63
52 52 52 52 52 52 52 52 52 52 51 52 52 53 51 33 18 32 65 55 57 49 34 38 46 53 49 52 58 55 59 57 59 58 59 61 59 56 58 59 61 62 62 62 62
52 52 51 51 51 51 51 52 51 51 51 51 52 53 45 23 24 51 56 57 50 43 34 41 49 54 52 50 56 57 59 56 58 59 60 59 59 58 58 61 61 61 61 61 61
52 52 52 51 51 51 51 51 51 51 51 51 52 53 43 24 35 52 53 46 46 33 32 33 50 48 48 42 53 56 56 57 56 59 58 59 57 57 59 61 60 60 61 61 62
52 52 52 51 51 51 50 51 52 52 52 52 53 52 22 28 36 39 37 31 31 27 33 32 43 45 45 41 48 54 54 52 56 58 59 57 53 58 61 60 60 60 60 61 62
52 52 51 51 50 50 50 52 52 53 52 53 50 45 20 35 35 34 36 27 26 25 23 31 39 40 34 28 33 48 47 49 54 58 58 57 53 59 60 58 58 59 59 60 61
52 52 51 51 50 50 51 51 53 54 55 53 48 40 35 32 35 30 36 20 20 22 27 29 33 32 30 28 28 42 44 47 50 53 58 56 54 58 59 58 58 58 59 59 60
52 52 52 52 51 50 48 49 39 37 48 26 26 31 32 36 34 32 34 29 26 27 27 31 34 33 31 28 30 33 38 34 47 56 56 55 55 56 58 58 56 57 58 58 59
52 52 51 51 51 50 47 32 34 35 32 37 39 35 35 36 29 29 31 25 23 23 31 30 33 32 33 29 29 29 28 49 55 57 55 54 54 55 58 59 55 54 55 56 58
52 52 52 51 50 47 39 33 37 36 30 25 35 34 29 34 30 29 30 25 23 27 29 31 29 29 27 27 26 27 27 32 48 55 56 52 53 55 57 59 60 58 54 54 55
54 53 53 51 42 41 35 37 38 36 21 26 29 28 33 31 25 30 31 27 25 27 29 29 30 28 28 27 27 24 26 31 51 49 44 53 43 52 55 56 58 60 57 54 55
54 54 52 49 41 34 33 40 37 25 19 29 31 29 27 25 27 29 32 29 25 25 27 28 26 27 26 26 27 26 25 25 50 46 47 49 42 40 54 54 56 58 60 55 55
53 53 50 47 47 41 42 38 27 22 20 26 30 28 19 22 25 28 30 30 27 25 25 26 24 24 24 25 27 25 23 35 42 43 40 43 44 39 51 52 54 57 59 58 55
52 51 49 47 31 40 39 33 25 21 31 21 24 28 27 19 22 25 27 27 25 23 23 24 24 24 22 21 20 22 19 23 33 36 32 40 44 39 53 56 55 55 58 59 56
51 49 48 48 45 41 35 28 21 27 29 30 29 25 26 20 19 23 25 26 26 25 24 21 18 23 22 23 19 19 18 21 27 33 33 43 38 41 54 57 59 58 59 59 60
49 42 42 42 47 43 33 24 21 26 27 26 26 25 26 24 20 24 25 25 25 25 23 23 21 26 23 19 20 22 16 20 25 26 32 41 46 51 54 55 58 59 59 61 62
43 38 36 42 44 34 28 28 28 31 30 25 24 27 26 28 25 25 24 23 23 25 25 23 20 24 25 21 23 22 25 22 25 23 23 42 43 39 52 53 55 56 57 59 60
40 34 38 44 37 31 24 26 29 24 30 22 24 27 28 29 31 27 23 23 23 26 25 24 22 21 26 24 19 25 27 27 27 27 28 34 38 51 51 53 54 54 56 57 59
36 28 38 35 30 35 27 29 19 17 22 25 24 23 28 31 31 24 20 21 23 27 22 25 19 22 23 25 24 22 22 29 24 29 36 36 34 50 51 52 53 54 55 56 58
35 33 39 33 22 23 28 18 24 20 23 24 25 29 32 30 28 30 23 24 25 22 21 24 21 21 21 24 24 22 23 23 30 37 36 29 30 50 50 50 51 51 54 55 56
37 21 25 22 23 23 18 18 22 26 29 28 31 28 29 31 35 30 28 28 31 35 34 25 23 23 21 22 24 22 26 30 21 24 30 31 37 49 49 49 48 48 51 53 54
36 28 30 18 21 21 21 22 21 22 25 32 31 32 26 27 29 30 30 27 29 32 24 25 25 26 26 26 27 28 27 34 37 22 28 30 37 46 49 47 47 48 49 50 51
36 35 39 36 27 20 21 21 21 22 26 30 31 31 31 32 31 28 28 29 28 28 28 29 27 26 27 30 32 30 29 36 43 43 42 43 41 47 48 46 46 47 46 47 48
46 45 39 34 20 18 19 23 24 27 26 31 31 28 26 27 31 30 33 31 26 24 24 28 26 25 24 29 32 27 28 35 41 44 44 39 42 46 45 46 45 45 45 46 47

GFSSW_sfc_30mbdewp_093.txt.gz
Dewpoint
52 52 52 52 52 52 52 52 52 52 52 53 53 53 54 54 54 53 26 17 31 50 59 54 51 50 53 59 59 63 58 54 54 53 56 60 58 59 59 57 59 60 56 61 66
52 52 52 52 52 52 52 52 52 52 52 52 52 54 54 55 51 40 34 43 47 55 51 39 38 45 47 49 56 58 56 55 56 55 57 59 57 57 56 57 60 61 63 65 65
53 53 53 53 52 52 52 52 52 52 52 51 52 53 54 55 37 7 43 48 48 61 48 40 37 52 55 48 55 59 56 58 56 56 58 57 58 57 56 55 58 59 61 63 63
52 52 52 52 52 52 52 52 52 52 52 52 52 52 54 53 -0 43 60 51 57 50 42 38 42 55 55 48 56 54 57 58 56 58 59 57 58 55 55 57 58 60 62 63 62
52 52 51 51 52 51 52 52 52 51 51 51 51 52 50 33 26 25 62 55 60 44 37 36 42 55 51 54 56 56 57 57 57 58 59 60 56 56 58 58 60 62 62 61 60
52 52 51 51 51 51 51 51 51 51 51 51 52 53 44 23 33 54 54 55 51 38 34 40 50 56 53 52 55 57 57 57 58 59 58 57 57 56 60 59 59 60 60 60 60
52 52 51 51 51 51 50 50 50 51 51 51 52 52 41 22 34 55 47 44 42 34 31 38 52 51 51 45 50 58 55 57 57 58 58 59 56 56 61 59 58 58 59 60 61
52 52 52 51 51 50 50 50 51 51 51 51 53 51 20 27 35 48 37 36 36 30 31 32 48 48 46 44 50 55 54 52 56 57 61 59 53 58 62 60 57 58 59 60 61
52 52 51 51 51 50 50 51 52 52 52 52 49 44 20 33 34 38 35 30 35 26 24 31 37 42 37 32 50 51 49 51 54 57 59 57 53 59 62 59 56 58 58 59 60
52 52 52 52 51 50 50 51 54 55 54 52 48 40 35 32 34 36 35 27 25 24 28 31 35 40 33 29 37 47 47 49 51 55 57 56 56 60 62 60 57 57 58 59 59
52 52 51 51 51 50 47 49 39 37 47 31 29 29 30 36 33 31 33 23 24 25 28 33 39 41 36 30 32 47 46 45 47 55 54 53 56 58 59 58 58 57 58 59 60
54 52 51 51 50 50 47 33 35 35 32 37 39 35 33 35 27 31 32 22 20 17 30 34 37 38 35 30 29 33 39 37 53 55 55 55 55 57 58 57 57 57 58 58 59
54 52 52 51 50 48 39 32 38 36 30 26 33 33 31 31 27 30 30 24 20 26 30 28 34 33 33 30 28 28 29 48 47 54 54 52 51 53 57 59 57 58 57 58 58
54 52 51 51 43 42 35 38 38 37 22 28 29 29 33 32 29 31 30 23 25 23 31 34 30 31 27 29 28 27 28 38 52 48 45 51 43 49 54 57 58 56 56 56 58
54 52 51 50 41 36 34 40 37 28 19 28 31 31 30 26 28 29 31 28 22 27 30 28 29 29 28 27 28 29 26 33 50 47 47 47 43 45 54 54 57 58 56 54 55
53 51 50 47 47 41 42 36 28 23 18 26 28 27 23 23 27 30 30 30 28 27 28 28 27 28 27 28 29 29 33 39 45 43 35 44 42 39 51 53 54 57 59 58 55
52 50 49 46 33 40 40 34 25 21 29 22 25 28 28 20 24 28 28 27 27 24 24 26 25 24 24 22 26 24 21 28 29 32 23 40 44 39 51 55 55 55 58 60 56
51 49 48 48 46 43 35 28 22 25 26 29 27 24 24 21 21 26 28 27 27 25 24 22 22 25 24 23 21 24 22 24 25 29 30 42 35 39 54 57 59 59 56 59 58
49 43 42 41 47 44 33 25 22 25 26 26 26 26 26 23 21 25 26 28 28 27 23 21 20 25 23 24 22 22 18 24 29 31 29 38 44 51 55 57 59 57 57 59 59
45 40 38 43 44 35 29 26 28 29 30 26 25 28 27 27 25 27 25 24 24 25 27 26 20 25 26 21 24 23 22 20 22 25 25 39 41 39 51 55 57 58 59 61 61
40 36 38 44 39 32 25 26 29 26 30 23 24 27 28 30 29 28 24 22 23 26 26 25 24 24 28 25 21 24 23 26 25 27 23 27 35 51 52 55 56 57 59 59 61
36 31 39 36 31 34 28 29 22 17 23 26 24 29 30 32 30 24 22 22 23 27 24 25 23 23 23 24 25 24 28 29 18 29 37 32 33 51 53 55 56 57 58 59 60
35 34 40 34 23 24 29 18 25 23 25 27 26 30 34 33 31 32 28 25 28 23 25 26 24 22 21 23 27 29 27 29 33 36 34 23 29 51 52 54 55 55 57 57 58
37 25 26 25 25 24 21 19 23 26 30 31 33 29 31 33 36 30 31 31 32 35 35 28 26 26 21 24 26 30 33 25 25 21 32 29 38 49 51 52 52 52 55 56 57
36 30 29 21 22 22 23 23 22 23 27 33 32 32 28 29 31 31 31 31 33 34 29 29 26 27 28 28 28 30 37 38 24 26 26 32 34 45 51 52 52 53 53 53 55
39 37 38 36 26 22 23 23 21 23 28 30 29 29 33 33 32 29 29 30 27 31 32 31 28 29 29 30 32 26 33 41 41 41 41 42 40 46 51 50 49 52 52 52 54
47 46 39 32 22 21 22 24 26 28 28 31 31 29 28 28 30 34 31 26 27 27 29 31 28 31 28 30 31 28 29 32 37 42 42 35 43 49 48 49 50 51 52 51 52

GFSSW_sfc_30mbdewp_096.txt.gz
Dewpoint
52 52 52 52 52 52 53 53 52 52 52 52 52 53 54 54 54 48 29 22 26 46 58 46 53 59 59 61 60 63 57 54 54 51 55 59 57 58 58 58 56 57 50 59 62
53 53 53 53 53 52 52 52 52 52 52 52 52 53 54 54 46 37 37 39 48 52 46 41 46 56 56 56 56 58 56 55 55 53 56 57 56 57 56 57 56 52 57 60 62
53 53 53 52 52 52 52 52 52 52 52 52 52 53 54 54 39 12 47 47 51 57 42 34 44 55 56 54 55 57 55 56 54 55 56 56 56 57 55 55 56 55 58 60 60
53 53 52 52 52 51 52 52 52 52 52 52 52 52 54 48 12 40 61 53 53 48 41 34 39 52 56 51 54 54 56 56 54 56 56 56 57 55 55 53 56 57 58 59 59
52 52 52 52 52 51 51 51 51 52 51 51 52 53 49 36 26 37 60 53 44 45 36 32 33 49 54 55 54 55 56 55 55 57 58 57 54 54 55 56 56 55 58 58 58
52 52 52 52 51 51 51 51 51 51 51 51 52 53 40 23 31 49 42 45 42 38 34 31 32 51 54 54 54 56 56 55 55 57 58 54 53 54 56 56 55 56 57 56 56
52 52 52 51 51 51 51 50 50 50 51 51 52 50 35 22 33 49 43 43 40 34 34 33 40 52 51 47 53 57 54 55 56 57 56 56 54 55 56 56 56 55 55 55 55
52 52 52 52 51 51 50 50 50 52 52 52 53 46 21 25 36 43 37 40 39 32 31 40 53 50 46 46 57 55 54 53 56 57 60 58 52 57 58 54 53 53 55 56 56
52 52 52 52 52 51 51 51 51 53 52 52 49 40 19 32 31 34 24 26 27 27 28 38 49 46 43 45 51 54 49 51 54 56 58 57 54 59 61 58 52 53 54 55 56
53 52 52 51 51 51 50 51 54 53 52 50 44 39 31 30 33 33 30 28 24 24 24 37 46 44 38 40 44 49 48 49 51 56 56 57 54 59 61 59 53 53 53 54 55
55 53 52 51 51 50 48 48 44 43 44 31 27 28 27 33 35 32 28 25 23 18 19 27 38 42 38 35 34 48 49 47 50 56 57 56 56 59 61 61 54 52 53 53 54
55 53 52 51 50 50 46 34 34 34 29 32 33 32 30 30 30 32 26 22 21 14 22 25 31 40 41 33 34 42 46 45 50 54 53 56 56 59 61 60 57 52 52 52 54
54 52 51 51 50 49 38 34 36 36 30 27 28 27 28 29 27 29 30 23 18 12 23 19 23 39 38 31 32 36 40 41 48 53 53 53 52 54 57 60 59 55 52 53 56
54 52 51 50 46 39 34 37 37 37 24 26 26 28 30 29 27 29 26 24 17 13 16 16 26 35 37 37 32 32 32 44 50 47 46 50 43 49 53 57 58 56 54 54 56
54 52 51 50 43 35 35 37 37 32 16 25 26 30 29 28 28 28 26 24 18 14 21 20 26 32 32 36 35 31 29 37 42 44 47 49 43 47 53 52 56 57 54 53 54
53 51 50 47 45 38 38 36 32 23 19 23 26 25 25 25 26 27 29 27 25 20 22 24 30 29 29 33 35 30 29 34 40 41 39 41 39 42 46 49 50 56 56 54 53
51 50 49 44 33 38 37 36 25 17 25 22 23 24 24 23 25 26 27 25 23 20 16 23 27 27 29 30 32 32 30 28 29 30 28 40 38 38 44 53 51 56 57 56 54
50 49 49 43 41 39 38 29 18 22 22 25 25 23 20 21 24 26 26 23 27 22 16 20 19 25 26 24 28 32 29 28 28 28 27 35 37 38 48 53 55 55 57 57 57
50 44 40 39 43 42 34 20 20 21 23 23 24 20 20 20 22 25 25 23 25 24 19 17 18 23 23 23 22 27 28 30 27 30 27 32 34 49 52 54 55 56 56 55 58
44 38 37 42 43 38 26 21 23 25 25 24 22 26 21 18 20 22 23 26 26 27 27 23 17 20 21 21 22 20 25 27 26 25 23 28 31 31 50 52 57 55 55 55 58
42 30 39 42 40 32 21 23 23 22 25 22 21 25 26 22 20 20 24 24 26 27 28 25 21 19 20 19 16 20 19 18 24 24 21 22 29 46 48 53 57 58 60 61 59
37 30 39 38 30 27 22 21 21 15 20 24 24 26 28 29 23 23 23 25 24 26 25 26 22 22 18 23 24 18 17 19 15 23 23 24 32 50 52 55 57 58 59 61 62
34 34 37 34 24 22 24 18 21 17 17 21 24 28 32 30 29 26 25 28 30 24 26 27 23 22 22 23 25 20 20 21 19 17 24 23 25 51 54 56 57 58 59 60 61
37 28 30 31 27 20 21 19 19 24 22 24 29 28 28 30 32 27 26 27 31 31 34 27 24 24 18 17 20 25 26 22 21 17 18 22 31 49 52 54 55 57 58 58 59
36 28 29 18 19 21 21 20 19 18 23 23 29 27 26 27 27 27 27 28 31 32 31 31 26 25 26 25 25 25 24 21 21 18 18 21 25 43 51 53 55 56 57 57 58
38 33 33 28 27 22 22 22 18 18 23 20 26 26 28 29 31 28 28 29 28 30 32 31 29 29 28 28 25 29 32 29 25 26 23 28 28 44 51 54 55 55 55 56 57
45 45 40 27 23 21 21 21 20 22 26 30 30 26 26 29 30 30 29 28 29 29 30 31 30 29 25 28 28 24 28 29 33 34 32 24 41 47 50 52 53 54 55 55 56

GFSSW_sfc_30mbdewp_099.txt.gz
Dewpoint
53 53 53 53 53 53 53 53 53 52 53 53 53 53 54 55 54 50 35 25 32 38 55 43 49 54 57 59 60 60 58 53 53 48 50 53 52 53 56 54 54 54 53 56 58
53 54 54 53 53 53 53 53 53 53 53 53 53 53 54 55 47 37 41 36 36 48 46 39 45 56 56 57 57 57 56 54 55 49 52 54 53 54 54 54 54 50 54 57 58
53 53 53 53 52 52 52 53 53 53 53 53 53 53 53 54 42 28 49 45 48 50 42 38 44 54 55 55 54 57 55 56 54 53 54 54 54 54 54 52 50 53 55 57 57
54 53 52 52 52 52 52 52 52 52 52 52 53 53 54 48 24 39 52 55 55 43 42 35 37 52 55 54 53 53 55 56 54 54 54 53 54 52 50 51 52 55 55 56 55
53 53 52 52 52 52 52 51 51 52 52 52 52 53 50 35 29 46 59 55 39 42 39 33 30 46 52 54 53 53 56 55 55 53 54 54 51 50 53 53 54 55 55 55 54
53 52 52 52 52 51 51 51 51 51 51 52 52 53 45 28 29 40 39 32 25 39 34 31 28 36 51 54 53 56 55 54 56 55 57 52 51 51 52 52 53 54 54 54 53
53 52 52 52 52 51 51 51 51 51 51 52 52 49 36 25 29 43 35 29 26 33 32 28 28 34 51 51 52 56 54 55 57 55 55 54 50 51 52 52 53 53 53 53 53
53 53 53 53 52 52 51 51 51 51 52 53 53 45 31 22 31 40 37 36 30 30 31 29 33 40 49 49 55 56 55 54 57 54 57 55 52 52 52 52 51 51 52 51 51
54 53 52 52 51 51 51 51 52 52 53 53 52 42 23 27 26 35 33 35 31 29 29 32 43 47 47 46 54 54 52 52 55 56 58 56 54 56 52 51 50 50 50 51 52
55 55 52 52 51 51 51 51 54 54 53 48 44 34 29 25 29 26 23 25 23 23 24 25 43 44 43 43 47 48 52 51 54 57 56 55 55 59 58 58 49 50 50 51 49
55 54 53 52 52 51 49 50 47 47 43 31 26 24 25 31 34 28 26 20 19 20 20 20 33 39 39 40 49 51 52 52 54 56 54 55 54 58 59 57 57 50 50 50 50
55 54 52 52 51 51 48 34 31 32 28 27 25 25 27 29 31 27 27 22 18 14 18 19 25 34 40 37 36 43 49 50 55 55 52 55 55 58 59 56 58 56 50 50 51
54 53 52 52 51 49 39 32 33 34 31 23 23 21 22 26 26 28 24 21 18 10 14 16 17 26 37 38 33 35 47 48 51 55 54 54 54 56 59 58 59 60 54 50 50
54 53 51 51 46 34 32 35 35 36 28 24 24 26 27 26 22 28 27 20 16 11 13 17 17 21 39 38 33 32 49 52 54 49 50 54 46 53 56 56 59 57 54 50 52
54 52 51 50 46 34 33 34 35 35 20 22 23 29 28 26 25 26 28 23 17 11 11 13 14 20 32 34 35 34 36 53 54 47 47 49 43 49 53 54 56 57 54 53 53
53 51 50 49 44 36 35 35 35 25 18 20 22 23 23 23 23 24 24 24 22 16 12 12 19 21 27 29 35 36 31 32 44 44 43 42 40 45 48 52 55 57 57 55 55
51 50 49 46 35 34 34 34 30 16 20 19 19 19 20 19 22 23 21 22 22 17 14 16 23 24 26 24 32 36 30 29 30 41 34 40 38 40 47 52 56 56 58 55 55
51 50 49 42 38 36 35 33 20 15 18 19 19 19 16 19 20 22 22 22 22 20 16 10 14 24 23 25 27 33 30 29 28 28 32 41 36 40 43 47 48 54 56 56 54
50 45 40 37 39 39 35 28 18 18 18 18 20 17 16 16 21 20 22 20 20 24 18 12 13 21 23 24 24 26 31 31 31 30 35 35 43 47 43 45 50 53 52 56 55
44 34 33 38 39 38 32 16 21 20 20 20 18 26 19 16 14 18 20 20 20 22 22 22 16 19 20 20 20 20 26 29 27 27 29 33 34 34 48 50 50 51 53 55 56
43 30 36 37 37 32 26 21 19 19 17 19 19 19 24 26 16 19 25 22 28 30 25 25 21 18 19 19 17 18 19 25 26 23 22 29 33 40 47 50 53 53 54 54 56
37 26 37 36 30 25 20 17 13 11 15 15 20 21 25 35 21 18 27 30 26 27 25 25 23 18 17 17 17 16 15 18 20 25 22 22 38 46 50 52 55 58 61 62 62
37 32 34 32 27 19 22 14 14 15 13 13 20 22 27 26 27 25 32 31 28 25 28 26 20 19 22 16 16 14 17 14 14 15 17 18 35 47 53 55 56 58 59 61 63
37 26 27 28 28 20 18 16 16 20 15 15 22 24 23 26 27 29 24 27 30 28 33 29 23 19 22 21 18 16 17 14 13 13 12 22 42 47 51 54 57 59 60 60 61
36 27 25 21 17 16 19 18 14 14 18 18 23 23 22 25 25 26 26 26 29 33 31 27 24 24 23 28 23 16 13 17 17 18 17 16 29 43 50 53 55 58 58 58 60
37 30 24 23 23 18 17 21 15 12 17 17 19 23 23 26 31 34 26 32 30 30 31 32 31 30 24 28 22 19 20 20 17 16 16 22 34 46 50 55 55 57 58 58 58
40 40 37 24 20 18 20 18 17 14 20 23 25 23 23 27 28 29 29 28 31 32 32 33 38 32 30 24 26 23 25 23 21 20 19 23 39 42 48 52 54 56 56 57 58

GFSSW_sfc_30mbdewp_102.txt.gz
Dewpoint
53 54 53 53 53 54 53 53 53 53 53 54 54 54 54 55 54 47 38 33 31 36 55 40 49 52 54 55 59 61 57 54 55 46 49 46 45 49 51 51 51 53 54 57 56
53 53 53 53 53 53 53 53 53 53 53 53 54 54 54 55 48 39 37 37 38 39 42 41 39 51 53 56 59 59 57 55 55 52 48 49 49 52 53 53 52 51 54 54 55
53 53 53 53 53 53 53 52 53 53 53 53 53 54 54 54 44 34 50 42 35 37 35 39 38 53 53 57 56 57 58 59 58 59 50 52 52 54 52 52 50 51 53 53 52
53 53 53 53 52 52 52 52 52 53 53 53 53 54 54 47 31 39 54 49 46 25 36 38 36 49 52 54 56 53 55 58 56 58 51 53 53 51 52 50 51 53 55 52 52
53 53 53 52 52 52 52 52 52 52 53 53 53 53 47 41 31 50 59 57 34 30 37 38 32 41 50 54 55 54 56 56 57 55 53 54 53 55 53 54 53 54 54 51 51
53 53 53 53 53 52 52 52 52 52 52 52 53 54 45 30 29 46 40 43 20 28 35 37 31 33 48 51 55 56 55 55 55 57 54 51 48 52 55 52 52 53 53 51 50
54 53 53 54 53 53 52 52 52 52 52 53 54 50 37 30 26 32 36 22 18 26 32 32 30 28 36 48 54 52 54 57 58 59 54 52 48 50 48 51 51 52 51 51 50
55 54 54 53 53 52 53 52 52 52 52 53 54 47 35 23 27 36 35 27 18 25 32 30 27 27 32 50 50 53 54 53 58 59 54 53 52 51 49 50 50 50 51 51 51
55 55 55 53 53 52 52 52 52 54 54 54 52 44 30 24 18 30 33 31 28 24 28 29 27 29 36 45 48 55 52 52 55 57 56 54 54 54 50 49 49 50 50 50 51
55 55 54 53 53 52 52 51 52 54 54 49 45 37 32 22 20 32 30 31 28 25 27 28 29 34 41 43 44 48 51 52 53 58 56 56 56 54 52 50 48 50 49 49 49
55 55 54 53 52 52 49 47 48 46 47 34 30 25 24 27 30 26 22 26 24 21 21 22 21 33 41 42 43 49 54 53 54 56 54 55 56 57 59 57 56 50 49 50 50
54 55 54 53 52 52 49 39 28 29 30 35 21 18 22 27 27 27 23 18 16 15 17 18 16 24 37 42 53 51 50 52 53 52 57 54 55 57 57 58 58 58 55 50 49
54 54 53 52 52 49 37 33 31 33 31 25 18 19 17 20 24 25 24 20 16 14 12 15 15 20 29 36 43 47 47 50 48 51 54 54 53 56 58 59 58 58 59 60 52
54 54 53 51 47 37 34 32 32 33 30 24 22 23 21 21 19 26 25 21 18 14 9 10 15 15 22 29 41 48 51 51 51 47 45 53 46 54 55 55 56 57 58 59 55
54 53 52 51 43 33 32 31 33 33 27 21 21 26 26 22 21 24 27 21 18 13 10 7 12 15 16 26 39 41 50 50 51 49 49 50 46 50 56 54 56 56 57 59 57
53 52 50 47 46 36 34 33 32 28 24 18 19 22 22 21 23 24 25 25 22 18 11 9 12 14 14 25 33 40 44 50 50 49 45 46 45 50 53 54 56 55 57 60 57
52 52 50 46 40 33 32 31 31 28 18 19 18 16 18 20 19 21 21 21 20 18 17 10 10 17 18 20 27 37 35 38 41 43 40 49 43 49 53 52 55 55 58 60 59
52 51 47 43 34 36 34 32 30 18 15 15 15 16 12 22 19 21 19 17 20 21 16 12 8 19 21 22 22 30 36 30 35 37 42 49 41 46 51 51 54 56 57 60 60
50 43 39 39 39 34 33 31 32 17 16 14 16 23 20 16 17 22 20 19 19 19 18 15 12 12 19 21 22 25 27 31 31 37 37 44 47 49 47 49 52 53 57 56 57
47 39 33 34 34 34 32 30 22 18 15 14 14 22 23 25 18 19 20 19 18 19 19 21 22 18 19 21 22 23 25 24 35 31 32 38 42 43 46 48 51 53 54 54 56
45 35 33 30 31 30 29 29 19 15 13 10 15 16 18 33 24 22 20 26 27 25 26 21 24 23 18 19 17 17 18 21 23 30 30 32 40 50 46 46 48 51 54 56 59
40 30 34 29 26 27 26 24 14 7 11 11 15 15 17 27 28 32 30 29 27 28 27 26 23 22 21 19 19 16 15 17 20 22 25 26 37 47 51 52 51 53 53 61 56
39 33 35 29 24 28 27 16 10 11 8 10 11 19 17 29 27 34 31 33 31 25 31 29 25 21 22 22 17 16 15 14 13 18 21 22 43 53 49 55 58 59 62 64 64
41 34 29 27 26 28 24 16 13 18 14 14 13 19 20 23 32 34 41 33 28 25 31 29 25 23 19 26 27 15 14 13 13 11 12 15 39 51 53 55 56 59 61 63 64
38 31 29 20 19 19 16 17 14 11 15 14 16 20 20 29 35 32 34 32 28 30 28 25 25 25 23 25 26 25 16 14 16 12 13 22 37 42 49 54 56 59 60 61 61
38 36 35 23 22 17 16 12 15 12 14 15 17 18 20 20 37 37 34 41 33 32 29 28 27 32 31 28 28 25 24 15 13 13 15 30 44 52 55 60 57 58 58 59 60
42 43 39 27 20 16 17 20 17 15 16 14 20 21 21 28 28 32 32 27 36 32 30 32 35 37 33 37 30 24 28 28 15 17 19 41 47 46 47 48 57 57 59 60 61

GFSSW_sfc_30mbdewp_105.txt.gz
Dewpoint
53 53 53 53 53 53 53 53 53 53 54 54 54 55 55 56 55 48 41 35 38 40 50 44 39 44 47 49 59 64 55 53 54 45 43 53 54 54 53 51 56 55 56 57 59
53 53 53 53 53 53 54 53 53 53 54 54 54 54 55 56 50 41 39 47 42 45 29 44 39 48 49 55 60 60 57 54 57 57 52 48 52 53 53 51 54 56 56 58 58
53 54 53 53 53 53 52 53 53 53 54 54 54 54 55 55 45 39 54 50 39 36 24 38 40 43 50 57 58 61 56 59 56 57 61 50 52 54 52 53 55 54 54 56 53
54 54 54 53 53 53 53 53 53 53 53 54 54 54 55 52 34 43 47 44 44 30 18 30 35 35 52 54 57 56 59 58 59 62 60 53 53 52 53 53 55 55 55 54 51
54 54 54 54 54 53 53 53 53 53 53 53 54 54 52 44 37 47 54 51 41 22 17 32 38 35 49 55 55 56 57 61 61 59 60 54 52 53 53 53 53 53 52 52 51
55 55 54 54 54 54 54 53 53 53 53 53 53 55 50 30 42 48 53 52 30 16 29 34 38 33 36 51 53 57 58 61 60 63 63 55 54 52 53 54 54 53 51 51 51
55 55 55 54 54 54 54 54 53 53 53 53 54 52 41 33 32 45 42 39 33 17 28 33 38 33 30 35 55 58 56 58 62 62 60 56 52 51 53 54 53 53 52 51 51
56 55 55 55 54 54 53 53 52 53 54 54 55 51 37 34 27 29 33 25 18 18 25 32 32 30 27 40 50 52 55 52 59 61 59 56 49 54 55 53 53 52 52 51 52
56 55 55 55 54 54 53 53 53 54 56 55 53 47 38 27 19 22 25 31 17 16 20 28 31 26 26 28 38 54 50 50 55 61 61 54 51 54 54 52 51 51 51 51 51
55 55 55 55 54 53 52 52 51 53 55 51 47 42 40 29 24 19 19 32 28 25 23 25 29 27 28 29 38 47 48 51 52 56 56 55 53 56 57 51 50 50 51 51 50
54 54 55 54 53 53 50 44 48 48 46 42 37 33 25 26 28 29 30 28 29 25 24 27 26 26 28 34 39 51 52 50 54 56 54 55 54 56 59 58 56 51 51 50 50
54 54 55 54 53 53 51 37 37 31 29 33 39 33 17 21 25 28 26 23 26 23 21 21 21 21 23 40 48 50 48 51 53 53 51 52 55 57 58 58 58 58 57 53 50
53 54 54 53 52 49 41 35 34 33 30 32 33 21 16 19 18 27 24 20 17 16 15 16 18 19 18 46 44 49 49 50 49 53 53 52 54 54 56 59 59 58 59 59 56
53 54 52 51 47 42 38 38 39 33 30 29 21 20 20 19 18 20 25 23 19 15 14 12 14 15 16 42 44 45 51 51 50 48 44 53 46 53 55 54 56 58 57 58 58
53 53 52 50 44 36 33 33 32 33 26 20 22 25 25 19 22 19 25 24 22 19 15 10 8 9 12 20 48 50 52 50 48 48 48 49 48 51 55 52 52 54 56 58 59
52 52 52 47 49 42 38 35 33 29 25 19 21 22 22 21 21 24 25 24 23 21 21 15 12 10 13 24 46 51 50 51 50 49 42 46 48 49 51 49 50 54 56 58 60
51 51 50 47 38 39 35 34 29 30 29 20 15 20 20 20 19 23 24 24 22 20 19 19 12 10 12 36 49 49 48 42 41 39 38 45 46 47 52 55 53 54 55 57 60
51 50 49 47 42 38 35 32 31 34 26 14 14 16 15 22 23 21 21 20 22 21 20 19 13 10 19 18 42 48 42 38 35 38 41 48 45 45 52 54 56 56 56 58 60
50 46 46 42 46 43 33 32 32 29 15 12 13 19 24 26 26 21 21 19 18 19 18 20 17 20 18 21 21 31 34 38 40 43 40 46 48 51 53 54 54 56 57 57 59
48 43 39 40 37 36 32 30 31 19 14 9 10 16 25 25 28 27 26 26 24 24 20 19 19 24 24 18 21 21 29 27 36 36 35 44 45 46 46 51 53 54 54 54 56
47 37 38 39 35 33 28 30 30 14 11 9 10 14 22 29 27 32 32 29 29 26 27 26 24 22 26 21 19 20 24 27 34 33 34 38 41 45 47 49 52 52 53 54 55
45 35 34 31 27 28 27 29 29 14 11 11 9 10 16 28 26 34 33 35 33 28 29 30 27 24 25 22 21 20 18 19 19 25 32 31 45 53 52 52 51 53 55 56 55
44 38 39 33 25 22 30 29 17 9 14 8 10 11 20 31 31 36 33 34 35 30 29 29 28 25 23 24 23 17 17 17 17 16 16 25 42 51 53 52 51 56 57 57 56
45 36 37 35 32 23 27 27 24 17 16 14 15 15 17 29 34 38 38 37 35 30 31 30 26 25 24 26 27 27 20 16 17 14 14 17 44 48 46 43 60 63 64 64 58
44 37 37 32 27 23 26 20 17 12 15 12 16 18 22 29 38 39 37 37 37 35 29 28 24 25 28 31 27 26 26 21 14 17 18 41 44 51 55 56 59 61 62 63 63
42 40 44 41 36 21 20 12 15 14 15 13 16 20 24 30 32 35 37 38 34 34 34 31 27 36 34 39 38 34 29 29 26 14 42 51 52 56 57 57 58 58 59 61 62
49 49 45 42 37 22 19 20 19 17 14 17 17 20 25 32 34 36 39 37 37 37 32 33 37 37 35 37 37 32 36 35 40 43 36 41 49 53 51 48 50 58 58 60 62

GFSSW_sfc_30mbdewp_108.txt.gz
Dewpoint
53 53 54 54 53 53 53 54 54 54 54 55 55 55 55 56 55 51 33 28 40 40 55 38 42 38 42 45 63 64 54 53 53 43 44 53 53 53 56 57 54 56 57 60 63
53 53 54 53 54 54 53 53 54 54 54 55 55 55 55 56 52 41 35 45 51 55 33 37 38 40 46 48 60 59 53 53 57 57 55 55 55 51 55 55 55 53 59 61 63
54 54 55 54 54 54 54 54 54 54 54 54 55 55 55 55 45 33 51 48 55 48 26 29 39 39 42 55 59 59 55 58 56 57 57 58 55 53 54 54 52 54 59 60 61
55 55 55 55 54 54 54 54 54 54 54 54 54 55 55 53 29 41 51 55 55 35 17 20 29 33 35 52 59 57 59 59 58 58 60 59 57 53 56 55 54 54 58 59 59
55 55 55 55 55 55 54 54 54 54 53 54 54 55 51 39 33 44 55 58 47 27 19 13 33 36 35 51 57 57 58 59 61 61 60 60 58 54 55 56 54 56 56 57 58
56 56 56 55 55 54 55 55 54 54 54 54 54 55 49 18 34 52 47 46 32 19 15 19 35 39 35 46 55 58 59 60 61 60 61 60 58 54 55 55 53 55 54 54 53
56 56 56 55 55 55 54 54 54 53 54 54 54 53 45 16 43 51 51 46 37 15 19 25 30 34 35 30 51 58 57 60 60 61 60 61 55 53 54 53 53 53 51 51 54
55 55 55 55 55 54 54 54 53 53 54 55 55 52 29 36 37 31 44 32 34 20 13 27 32 32 30 28 32 55 56 53 58 59 58 62 52 53 53 52 52 51 51 52 55
55 55 55 55 55 54 53 53 53 54 55 55 53 47 34 42 30 29 31 29 21 20 18 20 23 29 28 26 31 54 48 50 57 59 60 59 53 54 54 53 51 52 51 52 54
54 54 54 55 54 53 52 52 52 53 55 53 49 42 38 30 27 21 21 23 22 17 17 16 23 27 27 26 29 42 47 52 52 55 58 55 55 56 55 52 52 52 51 53 54
54 54 54 54 54 53 49 43 39 41 48 37 35 35 34 28 28 25 22 26 29 25 23 24 25 25 26 27 29 46 51 51 54 55 53 54 54 58 57 54 53 51 50 52 54
53 53 54 53 52 52 50 33 32 33 31 37 40 40 38 35 22 27 29 26 26 25 23 23 24 25 27 27 35 51 51 51 52 55 51 51 52 54 58 58 58 55 51 51 54
53 53 53 53 52 49 41 37 35 34 31 31 33 35 35 22 18 19 27 21 19 24 21 20 21 22 23 25 49 49 48 50 49 52 54 52 50 52 57 59 58 58 58 56 53
52 53 53 52 43 43 33 38 37 36 29 31 29 20 18 17 18 18 23 21 21 17 16 15 16 17 18 23 48 46 51 50 50 48 44 52 44 53 56 56 57 57 58 58 56
52 52 52 51 42 35 30 38 39 33 24 28 22 25 23 19 21 20 24 24 22 22 20 17 15 10 12 15 46 50 51 50 50 48 49 49 45 51 56 54 55 55 57 58 59
52 51 51 47 48 41 43 39 34 29 25 21 21 21 23 21 21 24 24 24 24 22 23 22 23 16 11 37 50 51 50 49 48 47 42 45 45 47 52 53 54 55 57 57 58
52 51 50 47 25 39 39 35 29 29 33 19 18 22 21 20 21 23 24 23 22 20 19 21 21 32 51 50 50 50 45 40 39 39 38 48 46 45 52 53 53 53 57 58 59
51 50 49 48 44 43 36 33 29 34 32 22 11 17 20 26 25 24 23 23 24 22 21 18 17 15 45 48 47 47 40 37 32 37 41 49 45 45 52 52 53 53 56 58 59
50 46 46 44 48 43 33 31 32 31 14 9 10 18 21 23 27 25 25 21 21 22 19 18 20 21 21 45 47 46 38 40 40 43 41 45 48 49 50 54 53 54 55 57 59
47 43 39 42 44 36 32 30 31 31 11 9 9 15 24 25 28 28 31 32 31 29 27 22 17 19 24 25 42 40 39 35 38 36 37 42 43 42 44 49 54 56 55 57 59
47 36 34 40 38 34 29 28 29 30 11 10 9 10 20 26 30 32 33 33 34 32 31 29 21 22 26 24 21 21 26 29 34 37 36 39 40 45 42 46 54 55 56 57 57
46 35 35 36 32 31 27 28 30 29 10 10 10 10 19 30 34 34 32 34 35 33 27 29 27 24 24 27 25 20 19 24 22 22 35 37 36 46 47 48 52 54 55 55 56
40 42 39 33 29 26 26 26 27 28 16 11 13 14 31 31 30 35 34 36 36 35 30 28 25 24 24 27 28 26 26 20 19 21 22 27 36 47 54 51 50 52 55 56 56
44 35 39 37 32 27 26 24 24 19 16 15 15 16 28 30 39 34 34 36 37 35 36 30 26 26 24 26 30 28 29 30 17 15 15 20 31 48 50 54 56 55 57 60 58
45 35 40 37 35 36 33 26 23 16 15 17 19 28 24 32 34 33 37 35 36 37 34 29 23 26 26 38 37 36 37 37 34 29 16 22 39 50 52 59 61 62 62 61 58
34 41 47 43 42 38 31 29 19 14 14 13 19 30 30 31 29 27 36 34 33 30 34 34 30 36 37 35 37 36 39 42 44 43 50 49 47 57 59 60 60 61 61 61 60
48 48 48 43 42 40 30 25 19 15 17 17 19 23 28 32 33 31 34 35 37 34 32 38 36 35 34 37 36 35 39 43 44 46 47 45 49 56 56 57 58 60 62 63 63

GFSSW_sfc_30mbdewp_111.txt.gz
Dewpoint
53 53 53 53 53 53 54 53 53 54 54 54 54 54 55 56 55 51 28 26 38 45 55 36 46 38 40 44 63 63 53 51 52 45 50 54 54 57 57 57 57 57 59 61 65
54 54 54 54 54 54 53 53 53 53 54 54 54 55 55 56 52 40 35 44 51 48 34 34 36 39 44 46 62 58 53 53 57 57 56 56 54 55 55 54 55 57 60 63 64
55 55 54 54 54 54 54 54 53 53 53 53 54 55 55 56 42 27 45 50 53 61 30 28 35 36 41 53 59 58 55 57 55 57 57 57 55 55 54 53 55 57 60 62 63
56 56 55 55 54 54 54 54 54 54 53 54 54 55 56 52 26 39 53 55 56 50 19 21 28 35 35 41 60 56 58 58 56 57 57 58 60 54 54 54 56 58 61 62 62
56 56 56 55 54 54 54 54 54 54 54 54 54 55 50 31 26 40 63 59 51 25 18 12 31 35 34 39 59 57 59 60 60 60 59 60 58 56 54 54 58 59 60 61 61
56 56 55 55 55 55 55 54 55 54 54 54 54 55 47 7 24 51 55 51 37 24 23 18 29 36 37 33 54 58 58 60 60 60 59 58 57 58 56 54 57 59 59 59 60
55 55 55 55 55 55 54 54 54 54 54 54 55 54 41 9 46 50 44 38 35 23 17 18 26 33 35 32 45 59 57 60 60 60 60 61 55 55 56 54 54 56 57 58 59
55 54 54 55 55 54 54 53 54 54 54 55 55 52 34 32 38 35 47 47 37 21 15 25 30 32 32 31 28 56 55 52 58 60 60 59 52 55 56 53 53 55 55 57 57
54 54 54 54 54 54 53 53 53 54 55 55 52 47 28 41 38 37 34 38 26 27 20 18 21 25 29 27 28 51 45 50 55 60 58 58 54 56 56 53 53 54 51 55 59
53 53 53 54 54 53 52 52 54 53 55 55 50 41 34 30 32 21 31 34 26 17 16 15 20 26 27 25 24 39 48 51 52 56 57 55 55 57 55 54 53 53 52 56 59
53 53 53 53 53 52 48 42 33 35 50 33 32 33 33 35 27 22 19 20 24 22 24 24 22 22 26 27 30 48 51 50 53 57 54 53 54 56 58 56 52 52 52 54 57
53 53 53 53 53 51 49 29 29 34 31 36 39 40 39 36 33 26 28 27 27 26 24 23 23 25 27 27 32 49 50 50 53 55 54 53 53 55 57 58 58 52 52 53 54
54 52 52 52 51 48 39 35 37 37 32 31 35 34 33 36 30 21 27 25 22 24 22 21 22 23 24 27 47 50 48 48 48 53 53 52 50 54 57 59 59 58 54 54 54
55 53 52 51 39 42 31 38 39 36 29 28 31 29 24 19 18 19 23 20 19 18 21 19 18 18 18 21 46 44 51 51 50 48 44 52 44 52 54 55 57 58 57 54 54
55 54 51 50 38 35 30 39 38 33 20 29 24 23 19 18 21 20 24 23 19 20 20 19 20 19 16 15 47 47 52 50 49 47 48 49 45 49 55 52 53 57 58 56 55
54 53 51 47 46 38 40 39 34 29 25 28 21 22 23 21 21 23 22 24 24 22 22 21 23 22 23 42 42 51 50 50 48 47 41 46 45 44 52 52 52 57 58 58 57
53 52 49 47 22 39 39 34 29 27 33 14 13 19 21 21 21 22 21 22 22 18 18 21 24 50 50 49 50 48 45 37 36 37 38 47 45 43 50 54 55 56 57 58 59
53 50 48 48 45 41 35 33 28 31 28 26 13 22 20 26 24 24 23 22 24 22 21 18 15 46 49 48 46 47 40 32 28 35 40 49 43 45 52 55 58 58 58 59 60
51 46 44 44 48 42 33 31 31 33 29 8 11 18 22 25 27 25 28 29 26 23 20 19 19 22 46 48 46 46 41 40 40 43 39 44 46 48 50 49 53 55 54 58 59
46 44 39 46 45 35 31 29 31 33 27 10 8 14 21 25 28 29 31 33 31 32 27 25 21 20 22 44 47 42 42 37 39 35 36 40 42 41 48 50 53 53 54 57 59
46 39 33 44 38 33 27 28 29 30 29 10 9 8 15 26 31 32 32 34 34 31 30 28 21 20 25 25 34 31 36 31 36 38 36 36 35 44 41 46 52 53 54 57 59
43 30 37 40 32 32 29 28 29 28 21 10 11 11 23 31 33 32 31 34 36 34 27 28 27 24 23 26 28 27 25 29 26 25 38 38 33 50 46 47 53 56 55 56 58
35 40 42 35 30 29 28 26 26 26 25 12 13 15 31 32 27 34 33 35 36 33 29 28 24 23 23 27 32 28 33 25 21 23 25 30 24 52 50 50 54 56 57 57 58
42 30 38 35 33 29 26 26 26 26 26 14 16 20 30 30 37 31 33 35 37 36 42 30 26 25 25 28 33 35 40 37 18 15 15 22 18 42 50 52 52 55 56 57 60
42 32 40 37 37 39 37 35 33 29 15 16 27 27 26 30 32 29 36 33 35 35 34 30 24 27 28 38 38 40 42 43 38 41 18 18 18 40 53 55 55 57 58 58 60
28 42 47 44 43 40 35 31 29 29 14 16 26 30 30 29 25 23 31 33 31 33 34 35 31 35 35 37 38 38 41 43 44 47 44 49 48 58 60 61 60 60 59 57 58
46 46 47 43 43 40 39 37 31 18 19 16 26 30 29 29 31 30 34 34 36 35 33 38 35 32 31 36 32 31 38 42 43 49 49 47 52 54 55 58 59 61 62 62 60

GFSSW_sfc_30mbdewp_114.txt.gz
Dewpoint
53 53 53 53 53 54 54 53 53 53 53 54 54 54 55 55 55 50 26 25 36 54 52 43 46 38 41 44 63 62 53 50 51 45 53 56 56 57 58 57 57 58 60 62 66
55 54 54 53 53 53 53 53 52 53 53 53 53 54 54 56 51 39 34 44 52 54 28 39 34 41 45 46 62 58 52 52 58 57 56 57 55 56 56 55 57 60 63 65 66
56 55 54 54 54 53 53 53 53 53 54 54 54 55 55 56 40 25 43 48 55 53 32 33 35 40 44 51 56 58 54 56 56 58 58 57 56 56 55 53 56 58 62 64 65
56 56 55 54 53 54 54 53 53 53 53 54 54 55 56 52 24 37 59 56 58 56 18 20 32 37 37 40 58 55 58 58 58 60 57 57 60 54 54 53 57 60 63 64 64
55 56 55 55 55 55 55 55 53 54 54 54 55 55 50 23 17 54 60 58 55 28 20 17 33 35 35 37 58 56 57 59 62 61 59 59 58 57 54 56 59 61 62 63 63
55 55 55 55 55 55 55 55 55 55 54 54 55 55 44 6 20 54 56 45 34 23 20 21 29 35 36 34 50 58 58 60 61 60 60 58 57 58 56 57 59 61 61 62 62
54 54 54 54 55 55 55 54 54 54 54 54 55 54 37 6 46 48 47 40 34 25 22 22 30 35 35 32 40 59 55 58 60 59 58 61 54 54 57 58 58 59 61 61 62
53 54 54 54 54 54 54 54 53 54 54 55 55 51 30 31 39 39 46 46 40 21 20 20 30 32 32 31 40 57 56 52 58 61 60 58 52 56 60 57 57 59 59 60 60
54 53 53 53 54 54 53 52 53 54 55 55 52 45 26 40 37 38 41 36 32 25 20 18 27 25 28 27 29 50 47 52 54 59 59 57 54 58 58 55 57 58 58 59 59
55 54 53 53 53 53 51 52 55 55 55 55 51 38 32 30 33 25 34 28 24 19 18 16 24 24 27 25 25 42 48 51 52 56 56 53 53 59 58 55 54 56 56 58 58
56 54 53 53 53 52 48 44 33 34 49 33 32 33 32 34 31 21 30 32 25 23 23 24 21 23 26 27 35 49 51 50 53 56 53 52 53 57 56 58 54 53 53 55 57
56 55 54 52 51 51 47 32 31 35 32 35 39 38 39 37 32 29 24 26 26 27 24 24 22 24 27 27 32 50 50 50 53 55 52 53 51 56 56 57 58 55 53 55 58
55 55 54 51 51 46 36 34 38 38 32 32 35 35 34 37 29 26 27 25 24 25 24 23 22 25 25 37 39 50 46 49 48 53 53 52 49 53 57 58 59 59 55 55 58
55 55 54 51 34 38 31 37 38 38 28 26 31 30 28 24 18 22 25 21 19 20 22 21 18 18 20 20 40 42 50 50 51 48 43 52 42 51 53 55 57 59 55 54 56
54 54 53 50 39 29 31 38 38 33 17 29 25 23 19 19 21 20 24 22 19 19 19 17 20 20 18 18 40 37 52 51 50 47 48 49 45 48 53 52 54 58 58 54 54
54 53 51 46 44 37 38 39 34 29 21 28 21 22 22 22 20 23 22 24 24 21 22 21 23 22 23 42 41 52 49 49 48 47 41 47 45 46 50 49 53 56 58 56 54
53 51 50 47 20 39 38 35 29 26 30 18 12 19 21 22 21 22 21 22 22 19 18 21 23 47 50 48 50 49 43 38 38 39 37 48 45 43 52 55 55 56 58 58 55
52 50 49 48 45 40 35 33 28 30 30 23 13 23 20 26 26 24 23 22 24 23 21 19 17 46 50 47 46 46 39 34 29 33 38 48 41 43 49 53 55 56 58 59 57
51 46 44 43 48 40 33 31 29 32 31 10 11 14 22 26 28 28 30 27 28 23 21 19 18 27 47 49 47 46 41 41 40 42 40 43 46 48 52 53 56 57 58 58 60
44 45 42 46 47 35 31 29 31 34 30 10 9 14 19 25 27 29 31 33 31 32 26 25 22 23 26 47 47 45 44 38 40 32 33 38 41 40 49 50 56 57 57 58 60
45 36 35 45 39 33 25 27 29 31 28 12 9 9 19 26 31 31 32 34 34 32 29 27 22 22 25 32 41 35 39 35 38 38 33 32 32 45 47 50 55 55 56 56 58
37 29 41 39 30 32 27 29 29 29 21 10 10 11 23 31 32 31 29 32 36 34 27 28 26 24 24 26 29 34 35 34 30 27 39 37 34 50 48 49 53 53 54 57 57
32 37 43 37 27 29 29 26 27 25 26 13 13 14 31 31 26 33 32 34 37 34 30 28 25 23 24 28 34 31 38 28 24 28 33 27 23 51 50 48 53 54 55 57 57
39 27 38 36 34 30 29 29 26 28 25 19 15 30 30 31 35 27 31 34 36 36 42 31 26 24 23 28 33 36 41 43 19 17 20 26 23 48 51 51 55 56 57 58 59
39 31 40 36 36 38 34 35 33 33 21 20 27 21 28 28 31 29 33 32 33 35 34 31 24 28 29 37 40 41 42 44 37 42 18 33 44 53 55 57 54 56 57 58 59
29 43 46 44 43 41 38 35 32 31 25 15 24 28 29 27 28 24 30 31 31 33 32 38 28 36 35 36 38 37 41 43 46 49 47 47 49 56 58 60 59 58 57 58 59
44 45 46 41 42 40 38 35 38 39 18 18 26 30 29 28 30 29 33 33 35 33 33 36 36 32 27 36 34 32 37 41 43 48 49 45 49 53 56 57 59 60 58 59 61

GFSSW_sfc_30mbdewp_117.txt.gz
Dewpoint
54 54 54 54 53 53 53 53 53 53 53 53 53 53 54 55 55 50 25 26 39 49 51 52 44 40 44 47 62 61 54 50 49 48 52 56 55 56 58 55 56 59 56 59 64
56 55 54 53 54 53 53 53 53 53 53 54 54 55 55 55 50 37 32 43 51 56 33 37 36 43 49 49 61 58 53 53 58 57 56 55 54 56 54 54 57 60 62 64 65
56 56 55 54 54 54 53 54 54 53 53 54 54 55 55 56 39 26 48 51 55 53 28 40 39 45 46 51 57 59 52 56 58 60 60 57 55 56 52 52 55 56 61 63 64
55 55 55 55 55 55 55 55 55 54 54 54 54 55 56 52 25 31 63 57 57 55 19 30 40 44 41 45 56 54 57 56 56 57 59 57 57 54 54 52 55 57 61 63 62
55 55 55 55 55 55 55 55 54 54 54 55 55 55 49 20 13 53 60 58 52 24 17 28 42 39 40 37 52 54 58 59 58 56 55 58 56 56 54 56 58 61 62 61 62
54 55 55 54 55 55 55 55 55 54 54 55 55 56 40 7 32 55 54 41 29 24 20 23 37 38 37 35 47 58 59 60 61 60 58 57 56 58 54 57 59 60 60 61 61
54 54 54 54 54 54 54 54 53 54 54 55 55 53 35 8 46 52 44 38 32 27 24 21 32 37 36 33 42 58 58 59 60 59 58 58 54 54 56 57 59 59 60 61 61
56 54 53 53 53 53 53 52 52 53 54 55 56 50 29 32 36 39 44 45 35 24 21 20 25 32 33 32 55 55 54 51 58 59 61 56 52 55 58 57 58 58 60 60 61
56 56 54 53 53 53 52 52 54 54 55 55 51 45 26 40 37 38 42 37 31 24 22 21 24 28 29 28 39 52 45 52 55 59 59 55 53 57 60 57 54 57 59 59 60
56 56 55 54 53 52 51 52 55 55 55 55 51 38 32 29 33 32 37 30 23 21 17 19 25 27 28 27 29 43 47 52 52 56 54 56 54 57 59 57 55 57 58 59 59
55 55 55 55 53 52 48 45 37 36 47 33 32 33 32 35 33 24 34 30 24 24 20 25 27 31 26 27 34 40 47 48 53 56 55 52 53 55 58 57 56 57 58 57 58
55 54 55 54 52 50 46 33 34 35 32 34 37 37 38 38 30 26 30 27 25 28 25 24 26 25 27 28 40 42 44 49 53 55 53 53 51 56 58 57 56 56 57 56 57
54 54 54 53 50 44 37 36 38 37 33 32 35 35 34 37 27 25 25 27 27 27 25 24 24 25 26 36 39 43 36 48 48 53 53 51 49 52 58 58 58 59 56 54 56
54 54 52 51 33 36 32 38 38 38 27 27 29 30 35 32 20 27 27 24 20 24 24 24 21 21 21 20 31 30 45 48 51 49 44 51 43 50 54 56 56 57 57 55 55
53 53 51 50 39 28 32 37 38 33 16 30 26 26 21 20 21 19 24 22 20 19 21 21 18 20 19 18 27 26 50 50 50 48 47 48 47 47 53 53 54 55 55 57 55
53 52 50 46 44 36 38 38 35 29 17 25 22 22 21 22 20 23 22 25 24 21 23 21 23 22 22 43 32 50 49 48 49 47 42 43 45 43 50 50 52 54 53 54 56
52 51 50 48 23 39 38 36 30 24 29 18 14 18 22 24 22 22 21 22 22 20 21 22 22 39 47 45 48 48 43 34 34 38 34 48 46 45 50 50 50 51 53 56 56
51 50 49 48 45 41 34 33 28 28 29 22 15 23 22 27 27 24 22 21 24 23 22 20 16 42 47 41 40 43 34 22 22 29 37 48 43 42 49 50 52 53 54 58 55
50 45 45 44 48 42 34 31 29 31 31 14 12 19 22 26 28 30 31 24 28 25 22 20 20 29 48 48 45 45 39 37 39 43 38 43 45 45 50 50 54 55 56 58 56
45 44 43 46 46 36 31 31 33 34 30 11 10 16 18 23 28 29 31 33 31 32 28 26 24 25 34 48 47 45 43 38 41 29 28 36 41 40 48 51 53 54 56 57 58
44 36 39 46 39 34 26 29 30 32 31 18 11 12 17 26 30 31 31 33 33 32 30 28 25 25 26 36 35 41 40 40 41 40 29 29 29 45 47 50 54 55 56 57 58
33 30 42 42 32 33 28 30 29 29 26 14 12 12 21 31 32 29 29 32 36 34 28 29 27 24 25 27 29 39 37 36 32 32 38 38 29 51 50 50 55 56 57 58 60
36 36 43 39 27 30 31 27 28 25 26 13 12 15 32 31 25 32 31 34 37 33 31 30 26 22 23 29 34 33 40 34 28 32 32 28 25 49 51 50 54 56 57 57 58
38 30 40 38 35 31 29 28 28 28 28 25 18 31 33 32 35 28 32 33 36 34 42 32 27 26 20 28 35 39 40 43 34 25 26 26 28 38 53 55 54 56 56 56 58
38 30 40 35 34 32 32 35 32 31 28 22 25 25 27 26 31 30 33 31 33 36 36 32 27 28 29 36 38 38 39 43 38 42 23 29 42 51 55 57 58 57 58 58 59
34 44 45 45 44 41 39 37 34 35 32 17 24 23 31 26 26 25 30 33 32 35 35 38 30 35 34 36 34 37 37 42 46 47 47 46 47 55 57 60 58 57 58 58 60
42 45 46 41 43 41 38 35 34 39 33 23 24 29 28 29 32 30 32 34 36 34 35 39 38 34 28 33 34 33 37 37 43 47 48 44 50 54 56 58 59 58 58 59 60